GFSGL_500_rhum_000.txt.gz
RH
22 21 15 17 17 31 75 85 64 62 62 51 45 49 44 50 67 62 55 43 39 35 23 18 16 21 19 12 12 12 10 9 8 7 7 6 4 3 5 11 18 23 28
17 18 18 19 48 88 87 58 59 65 49 42 51 43 53 72 62 57 45 40 34 22 20 24 20 11 12 12 10 9 9 10 11 8 4 3 8 14 20 26 28 28 20
20 17 24 60 87 85 72 58 62 51 43 62 37 56 74 63 60 48 42 31 22 23 26 13 13 12 12 12 11 10 11 11 6 3 4 12 16 22 27 30 24 14 10
18 33 66 83 86 80 63 66 62 59 78 38 57 71 66 66 52 42 28 24 27 22 14 14 13 12 12 10 12 13 10 3 6 13 17 20 22 24 28 21 12 14 22
39 55 71 87 82 74 75 73 77 86 40 70 67 71 76 57 42 27 28 31 20 15 14 13 13 12 11 13 14 7 4 12 16 21 24 23 23 27 24 15 15 24 60
38 67 78 82 83 83 85 89 84 59 69 66 78 85 61 40 29 30 32 22 16 16 15 15 14 15 17 10 3 7 16 15 13 13 12 11 12 13 11 16 48 67 80
71 73 88 86 85 95 98 94 80 56 64 85 91 64 38 32 33 32 26 18 17 18 16 15 16 14 5 3 12 12 12 16 19 17 13 11 10 11 20 54 77 77 75
81 92 94 95 98 96 89 57 60 73 92 92 64 38 37 34 32 24 19 17 17 17 18 19 11 4 5 12 9 11 14 17 18 14 11 12 20 31 70 75 78 77 82
100 100 98 95 92 54 47 65 76 89 92 59 42 39 36 31 22 20 18 17 17 18 18 10 3 9 10 9 12 13 13 13 12 17 23 24 71 88 87 87 87 87 100
86 85 80 63 40 56 61 72 94 84 55 46 41 37 27 22 20 20 18 15 15 16 11 4 13 9 9 13 13 13 14 22 24 29 74 100 98 100 100 94 97 100 100
61 55 36 43 55 62 82 94 73 55 50 44 37 25 22 21 21 18 18 18 18 11 4 11 8 9 13 14 14 20 22 33 84 95 98 100 100 99 100 100 100 99 99
35 36 51 62 69 89 84 70 57 56 47 35 26 22 22 22 21 19 19 19 10 6 11 7 9 15 16 16 20 26 79 96 95 98 100 99 100 100 100 100 100 97 90
60 70 67 82 83 80 68 62 56 45 33 26 23 24 25 23 22 20 18 9 6 11 7 8 18 20 20 21 41 91 96 93 97 98 100 100 100 100 100 100 100 100 100
63 75 81 77 78 72 67 55 42 31 26 26 27 26 24 23 22 19 9 5 10 7 7 16 19 12 17 70 85 88 90 95 99 100 99 98 100 100 100 100 100 100 100
81 73 78 75 72 60 50 38 30 27 28 28 27 25 24 24 19 8 6 10 7 6 13 19 11 20 92 96 90 91 94 94 95 95 99 100 100 100 100 100 100 100 100
72 73 74 68 57 48 38 31 31 31 32 30 29 28 28 20 8 6 9 8 6 11 18 13 65 92 90 93 96 95 97 98 99 100 100 99 99 100 100 100 99 100 100
73 72 64 55 49 40 33 32 33 36 36 36 32 29 20 6 7 9 8 7 11 17 10 84 90 88 94 98 98 100 100 100 91 66 54 59 87 97 98 99 100 100 100
71 63 55 52 43 36 36 36 36 34 34 33 31 23 7 7 8 9 8 12 18 10 57 95 94 96 99 98 93 85 47 29 24 21 20 20 20 41 90 95 96 100 100
64 57 57 49 38 38 39 38 36 36 34 32 26 7 6 9 10 10 10 16 11 47 93 95 96 98 88 53 39 36 34 27 20 16 15 18 21 23 22 64 88 96 100
62 60 48 41 42 41 41 38 38 36 33 27 8 5 9 12 14 10 16 12 45 91 95 92 72 44 40 42 42 42 45 44 35 26 24 22 28 28 33 39 42 65 97
57 45 44 43 43 44 39 39 38 35 28 8 6 10 13 16 9 14 14 54 95 98 81 45 42 43 45 43 39 45 56 58 54 44 34 29 31 38 47 58 54 48 56
47 46 44 46 48 43 42 41 35 30 10 7 10 16 19 15 12 15 49 94 90 53 41 34 33 28 24 40 63 63 68 71 63 58 42 45 56 68 72 58 48 44 44
46 47 50 50 42 41 39 37 33 12 7 11 13 19 20 12 15 33 96 77 39 34 41 42 29 18 34 49 54 54 55 49 48 41 44 50 54 54 54 60 60 47 39
51 52 45 37 38 37 37 35 14 7 10 12 13 19 16 14 22 98 59 38 52 55 52 29 20 32 38 36 33 30 31 33 37 42 42 39 42 48 55 59 61 60 46
45 38 37 39 36 37 36 17 8 10 12 9 11 16 12 16 94 56 44 60 54 38 22 16 23 36 44 37 34 31 33 51 59 56 58 67 75 76 69 62 64 62 57
37 36 39 37 37 37 20 9 11 14 11 7 13 11 14 72 60 50 64 51 35 29 22 20 20 29 40 46 43 42 47 57 74 81 69 65 70 71 65 56 61 67 64

GFSGL_500_rhum_003.txt.gz
RH
20 17 22 21 23 22 19 21 32 68 80 76 63 63 54 48 59 69 49 64 68 70 61 48 35 34 36 28 20 17 15 13 10 9 8 8 7 5 3 2 3 7 13
36 26 21 22 19 22 21 44 73 85 80 66 64 63 59 75 76 40 61 71 76 67 50 36 37 38 31 21 15 12 10 9 8 8 6 4 3 5 7 8 12 16 18
21 21 20 24 26 26 56 81 88 83 70 68 75 78 88 73 60 62 72 82 70 50 39 40 37 26 19 15 12 11 10 8 7 5 3 4 6 7 9 12 14 14 17
22 26 29 26 31 66 83 89 80 73 77 82 85 92 81 62 60 80 87 72 48 42 41 31 21 16 14 13 13 12 10 7 4 4 6 6 10 13 12 13 13 15 13
29 25 24 44 62 79 78 81 82 79 82 90 93 79 54 75 85 90 72 48 46 40 24 18 15 16 16 16 14 11 5 4 5 6 9 11 11 9 10 10 9 9 13
24 27 38 58 72 76 94 94 88 86 94 85 48 60 73 80 89 67 50 48 32 23 18 16 18 20 19 16 9 4 5 6 8 13 11 8 6 7 9 16 30 54 81
18 42 59 70 91 92 91 96 97 81 53 45 62 66 86 86 61 53 47 30 23 19 19 21 22 20 15 8 3 6 6 10 14 14 11 12 19 38 64 86 100 100 100
53 68 86 93 98 99 88 82 74 51 48 60 70 93 80 60 54 41 29 24 22 22 25 25 20 16 7 4 6 7 12 14 16 17 19 52 75 82 87 95 94 100 100
86 94 100 95 74 72 76 66 39 56 65 80 92 74 62 51 35 27 24 23 23 26 26 21 14 5 5 6 7 14 17 20 24 52 68 77 88 94 93 99 100 100 100
100 93 77 67 69 66 38 54 65 68 90 84 72 63 44 30 28 26 26 27 24 23 22 13 5 6 7 7 14 16 24 56 76 81 90 94 95 100 98 95 96 99 100
96 92 77 71 46 56 68 66 77 87 82 73 59 39 31 29 28 30 30 28 24 20 13 5 7 7 7 13 13 30 77 79 84 88 90 96 98 100 100 100 100 95 89
76 72 55 60 68 65 70 84 81 79 70 54 39 34 33 33 34 32 31 27 21 12 5 7 8 7 13 13 23 79 87 85 90 92 94 94 98 100 100 100 100 98 94
54 55 63 64 70 82 78 80 74 62 51 41 35 34 34 35 33 32 26 20 11 5 7 9 7 14 13 29 77 85 85 84 87 95 97 99 100 97 100 100 100 100 100
62 68 69 82 74 74 74 69 56 50 43 38 35 35 34 33 31 25 20 12 5 7 10 7 14 13 56 79 76 80 81 86 94 98 100 98 95 94 98 100 100 100 100
67 82 73 67 73 72 64 55 54 48 40 36 34 33 31 29 24 19 13 6 8 11 8 12 10 72 84 83 85 87 87 89 92 89 83 64 68 90 94 100 100 100 95
78 67 71 74 68 61 58 60 49 40 40 38 39 35 30 26 21 13 6 9 13 9 10 8 58 80 88 93 93 93 88 73 45 26 20 18 21 25 67 100 100 100 96
70 78 74 68 63 62 60 45 44 47 47 45 35 32 27 24 13 6 9 14 11 9 8 64 83 94 94 92 82 52 40 35 30 22 15 12 15 20 25 53 98 100 97
81 76 70 65 62 53 45 46 42 41 38 32 32 26 25 12 5 9 13 14 10 9 60 88 98 90 69 49 44 45 49 49 49 38 27 21 19 23 30 28 69 93 100
78 70 63 58 51 50 46 44 41 34 28 27 25 25 15 6 10 12 16 10 12 67 91 96 68 51 48 46 47 43 45 52 56 57 44 29 26 26 30 39 45 54 94
67 61 58 55 50 46 43 36 30 28 28 26 25 17 5 9 11 17 14 14 67 90 79 48 44 41 39 32 37 56 61 67 70 66 51 37 32 36 45 54 54 56 60
61 57 51 47 47 38 31 29 28 28 27 26 17 6 9 10 11 16 14 66 92 56 40 40 42 30 30 46 52 54 51 48 53 62 63 68 72 74 69 58 51 48 46
53 47 47 43 37 33 31 29 28 28 28 17 7 10 11 8 15 15 56 84 41 44 55 48 26 31 40 40 32 32 35 40 48 53 51 51 56 60 65 69 63 49 42
48 48 44 40 36 31 30 29 29 30 18 7 10 12 8 14 15 45 78 43 60 60 42 24 28 38 35 30 29 38 62 63 50 43 48 65 79 80 70 62 60 53 40
50 45 39 36 32 30 29 30 29 15 7 10 12 13 10 13 33 74 52 63 41 28 24 21 28 45 39 39 44 56 61 81 86 73 80 85 76 65 62 61 60 58 55
42 38 35 31 28 30 30 27 13 8 10 11 13 11 10 21 77 56 58 34 26 22 21 21 25 30 35 35 36 42 42 46 75 71 75 78 81 70 73 76 72 64 64
38 34 31 30 31 30 24 11 9 9 10 14 13 9 14 77 55 55 38 34 25 21 17 16 16 17 19 22 25 32 38 58 71 67 72 76 90 85 68 82 84 79 53

GFSGL_500_rhum_006.txt.gz
RH
50 52 51 43 20 16 23 24 31 23 22 30 58 72 77 67 65 76 76 82 89 65 64 78 83 75 58 55 49 25 21 20 20 15 12 9 7 8 8 4 3 4 5
50 58 57 43 32 28 22 30 26 23 36 60 67 71 69 72 79 83 92 82 59 71 75 82 73 59 59 34 25 22 20 16 13 8 7 7 6 4 4 5 6 7 7
55 56 49 40 24 24 27 30 24 40 59 67 71 79 80 82 91 81 50 63 70 73 80 70 62 48 28 24 21 14 13 12 12 10 6 3 4 5 6 8 4 4 6
51 44 31 25 26 32 30 27 42 62 71 78 85 90 92 86 49 50 62 66 79 81 66 63 35 27 26 24 18 15 13 11 10 5 4 6 6 8 10 23 40 42 40
40 28 26 32 32 29 32 43 76 85 89 94 94 84 70 45 48 62 70 83 78 68 53 30 29 27 24 21 16 12 10 8 4 5 6 7 11 19 49 58 65 74 96
30 33 35 39 23 30 64 83 95 96 98 83 77 65 40 57 65 76 85 76 69 42 32 30 31 29 24 17 12 10 6 5 7 7 8 18 51 53 63 75 80 88 94
35 32 16 25 53 74 90 96 98 82 72 71 50 46 67 69 84 85 75 63 38 33 33 32 26 23 18 14 10 5 6 7 9 9 35 59 54 62 77 84 92 98 89
13 30 48 70 85 90 96 92 78 75 71 45 63 68 75 88 82 71 55 38 35 36 33 30 24 20 15 10 5 6 7 9 12 57 67 64 65 73 74 78 82 98 100
50 69 80 84 95 98 94 87 82 61 61 68 68 81 86 78 64 50 40 37 39 37 32 25 19 15 9 5 6 7 9 12 57 75 67 70 79 83 83 77 80 87 99
75 82 97 97 94 90 84 67 59 65 66 76 84 79 69 57 49 43 40 40 36 28 23 18 16 8 5 9 8 9 12 56 77 79 81 86 86 90 87 82 80 82 82
91 93 89 82 80 68 55 63 66 72 82 77 72 65 55 52 44 45 42 33 25 21 19 16 6 6 10 8 10 22 64 71 77 77 82 88 90 88 90 90 87 84 80
91 85 79 64 50 55 67 72 80 78 73 67 59 57 55 48 47 38 30 24 23 21 15 5 6 11 8 8 22 81 74 76 83 83 85 88 87 88 94 95 93 91 82
66 48 38 47 70 71 79 76 71 66 63 59 60 54 49 45 38 28 23 24 22 13 4 7 12 8 7 17 76 72 84 89 83 84 85 77 69 58 51 88 95 96 93
31 48 65 68 79 78 71 70 67 64 62 61 50 48 39 31 27 25 24 22 12 3 6 12 9 7 22 73 75 82 83 81 75 60 38 24 16 15 17 28 85 100 100
66 67 80 86 72 72 70 70 67 64 55 49 41 33 30 27 24 23 21 13 4 6 10 11 8 42 84 87 85 72 61 39 31 30 30 25 18 12 12 18 31 97 99
75 94 80 75 73 73 72 69 60 54 46 38 33 30 26 25 25 22 12 4 7 10 12 12 64 85 90 73 48 43 40 40 38 36 36 37 28 17 15 19 23 55 100
92 78 71 71 76 72 66 59 54 46 38 34 30 27 28 28 24 11 5 8 9 11 12 69 84 81 46 42 43 42 40 36 36 38 43 45 42 24 21 21 27 35 92
76 68 74 76 70 63 52 45 42 38 34 31 30 29 29 26 11 5 8 9 12 13 57 88 65 41 40 38 32 39 51 53 53 54 58 58 46 32 29 26 34 50 62
68 75 75 70 58 47 45 42 37 32 27 26 26 28 25 10 7 9 8 10 14 55 89 47 42 44 31 30 39 36 33 34 40 45 54 54 56 62 58 58 53 53 53
77 74 68 52 47 44 42 36 31 28 27 26 25 23 10 7 9 10 12 15 64 74 43 51 49 27 33 31 29 34 41 37 42 46 49 52 57 60 60 58 52 45 45
71 59 50 46 45 42 36 30 28 26 24 24 22 9 6 8 10 9 14 68 57 52 54 40 24 34 34 28 36 66 74 70 58 55 62 70 76 77 66 60 61 56 44
54 50 45 46 41 37 32 29 27 23 22 19 7 6 8 10 8 12 61 49 51 34 25 21 22 37 35 33 48 50 57 78 86 74 79 76 68 60 59 57 61 62 45
50 46 45 40 39 34 30 27 21 21 17 6 6 8 10 10 9 52 48 41 24 20 16 17 19 25 34 37 43 46 48 62 78 72 80 86 80 72 76 70 58 46 46
45 42 41 38 35 32 27 20 21 16 5 6 7 9 10 7 41 46 32 22 17 15 17 18 21 22 24 25 29 36 53 69 71 82 100 100 96 81 84 76 68 58 51
42 41 39 37 32 28 22 20 15 4 6 7 10 11 9 16 44 34 28 21 19 23 26 28 26 29 38 43 48 50 49 50 55 78 99 100 100 100 98 91 76 52 47
44 42 39 35 28 21 20 14 4 6 9 11 12 12 8 52 41 34 31 32 38 43 46 47 42 46 54 55 58 60 64 65 68 71 83 99 100 100 100 92 71 55 47

GFSGL_500_rhum_009.txt.gz
RH
44 42 40 40 41 47 48 47 33 26 36 45 37 28 26 32 35 53 72 81 82 80 50 50 59 68 81 76 70 59 38 31 25 16 13 13 11 9 8 6 3 3 4
43 44 44 48 56 65 62 53 40 32 46 40 33 34 37 46 65 81 86 83 68 43 52 65 79 81 76 68 51 36 32 29 23 18 15 12 10 6 4 4 5 6 9
47 51 54 59 63 65 59 46 31 48 43 34 40 47 68 84 82 77 76 52 42 62 68 84 79 74 61 43 37 33 30 26 22 16 12 11 4 4 5 5 13 39 52
54 61 60 61 65 59 40 32 47 45 37 42 69 89 87 82 74 71 48 51 66 76 83 77 66 52 43 38 33 30 20 16 15 15 10 3 4 6 12 37 46 59 68
63 63 62 60 50 37 38 42 38 36 57 87 94 87 74 73 73 52 61 67 81 81 73 59 48 44 38 34 25 18 16 18 14 6 3 5 6 19 56 53 58 73 84
72 64 59 50 38 47 39 27 39 83 96 95 88 83 80 72 58 65 70 81 74 65 54 50 43 39 33 24 20 18 17 8 4 4 6 5 14 55 56 58 70 78 92
66 48 38 44 44 26 32 77 93 97 93 90 84 78 61 64 66 79 79 69 62 54 52 42 36 28 23 22 18 13 5 4 7 7 5 16 54 56 56 71 82 82 86
42 43 41 23 31 71 97 96 97 92 85 82 67 60 67 72 81 72 66 60 56 50 40 34 26 24 19 17 11 3 3 8 7 8 25 66 64 66 65 67 74 84 88
25 21 36 75 95 90 91 92 86 77 74 58 64 69 79 73 68 64 59 59 45 36 32 28 23 19 17 9 3 4 8 6 14 53 65 65 66 66 64 70 76 79 82
59 81 92 95 96 95 86 78 77 59 61 68 76 76 66 66 64 60 52 40 32 29 24 23 20 18 7 3 5 8 5 18 75 75 73 75 73 73 71 68 64 76 74
89 96 97 98 94 87 78 55 59 68 74 79 71 67 67 64 57 44 38 33 29 23 21 19 17 6 4 8 8 5 26 73 76 85 92 87 84 78 65 50 42 43 75
96 99 98 88 66 45 53 69 72 80 76 69 70 71 63 50 41 36 34 30 24 20 18 15 5 5 8 8 8 51 78 82 85 88 87 78 58 38 22 16 16 17 45
88 65 39 34 48 70 70 81 82 70 68 71 69 56 44 41 39 34 28 24 20 18 12 4 6 8 9 19 74 79 86 77 57 44 35 32 29 27 25 16 10 16 22
37 40 56 70 69 80 88 75 68 70 71 62 46 40 41 37 30 25 23 18 16 10 4 6 8 10 31 76 80 60 38 35 35 34 32 29 26 28 28 24 14 15 24
51 64 67 78 88 83 72 70 74 68 54 41 41 38 33 27 24 20 15 13 8 4 6 8 11 42 85 70 42 37 36 31 28 28 32 35 34 33 33 26 18 17 20
61 74 89 88 77 69 71 71 64 47 41 40 37 30 26 24 19 15 14 6 4 6 8 15 62 72 44 42 38 31 28 30 31 33 35 41 49 49 48 34 23 17 22
88 88 83 71 67 72 69 61 46 45 41 35 30 27 25 19 15 14 5 5 6 7 24 66 48 43 46 32 29 29 31 34 32 34 41 51 58 54 43 33 30 27 29
86 80 69 70 70 65 52 46 43 39 36 35 31 26 20 17 14 5 4 7 8 27 52 42 49 49 29 31 28 37 53 50 37 40 46 48 53 55 57 59 59 57 50
75 67 69 69 60 49 46 41 36 32 31 29 26 20 16 14 5 4 6 7 25 49 39 35 25 22 33 30 34 53 60 64 65 62 69 78 81 82 77 64 59 48 42
69 71 67 53 49 44 38 34 32 31 30 25 18 15 12 4 5 6 7 18 45 31 20 19 18 23 32 30 35 48 46 48 63 72 74 81 76 64 57 55 56 58 44
74 62 52 49 44 38 37 33 30 28 23 18 15 10 4 4 6 7 13 43 27 16 16 18 20 23 26 28 32 37 40 57 78 81 89 92 92 80 67 60 54 40 44
59 53 48 44 42 40 33 28 26 21 17 14 9 4 6 7 8 11 39 23 14 16 20 28 30 29 29 29 35 45 52 60 77 91 98 95 96 100 93 69 58 44 40
53 48 47 46 42 35 29 25 21 18 14 8 4 7 9 10 9 39 25 15 18 25 27 30 35 36 42 47 51 54 60 65 72 91 99 100 100 100 85 81 67 54 42
51 51 47 44 38 31 25 22 19 16 9 4 6 8 9 10 32 28 19 26 32 36 38 36 36 43 47 53 61 73 83 81 77 88 100 99 92 84 83 74 58 50 36
53 47 43 40 31 27 23 20 16 9 4 6 7 9 9 17 35 25 34 38 41 42 43 44 43 48 55 66 76 79 85 88 78 87 88 93 94 71 71 83 78 42 29
47 43 39 32 27 25 21 16 9 4 6 7 10 9 14 40 30 32 39 41 45 48 47 52 55 61 67 72 75 77 81 84 83 83 87 83 94 73 66 72 78 57 40

GFSGL_500_rhum_012.txt.gz
RH
26 29 40 59 53 48 49 52 57 62 64 61 51 42 45 46 37 30 25 40 64 72 69 70 59 48 49 48 62 55 51 47 42 39 30 22 16 16 16 12 9 5 2
35 40 52 60 51 53 58 62 72 80 76 64 52 49 49 40 31 29 58 79 76 70 72 64 54 50 69 64 55 53 49 46 33 22 18 14 11 11 10 7 3 3 5
37 48 68 56 56 60 66 73 79 82 76 53 54 60 42 33 40 75 88 81 76 75 58 52 62 72 61 57 54 51 40 28 23 16 12 11 10 8 5 3 4 5 14
52 73 66 62 64 72 78 82 89 82 50 58 83 50 40 65 88 92 83 77 64 55 59 72 67 59 56 54 47 32 25 20 16 14 12 12 7 3 4 4 5 46 58
76 78 73 76 92 93 92 95 82 59 64 89 51 56 87 97 94 83 74 54 56 71 72 63 58 56 53 35 27 23 18 17 16 14 11 5 3 5 4 14 59 59 82
88 83 88 99 100 91 74 72 66 66 88 45 82 98 100 94 80 64 53 63 75 67 62 61 58 44 30 26 22 20 17 15 14 7 4 4 5 3 32 64 64 64 75
96 81 100 96 82 77 61 67 61 60 68 95 100 100 89 74 56 58 73 74 66 63 63 52 34 30 25 22 18 16 16 9 4 4 6 5 4 43 60 67 71 68 74
100 100 96 87 64 58 60 45 66 91 98 100 95 80 61 56 70 77 72 67 67 58 40 35 33 25 21 18 15 12 6 4 6 7 6 18 58 62 62 66 67 70 81
96 82 70 56 49 39 57 89 99 100 99 87 68 52 68 79 78 71 68 66 48 36 36 31 25 20 18 14 9 4 4 6 8 11 50 66 66 70 63 62 65 59 52
78 51 35 36 68 90 100 100 100 93 71 48 63 77 81 77 68 69 57 39 35 32 28 24 22 16 13 7 3 4 6 10 45 84 80 78 76 75 68 62 54 42 28
82 77 80 95 100 100 100 91 61 45 61 75 84 81 70 70 66 47 36 34 31 27 25 21 15 12 6 4 4 6 25 72 79 80 70 49 37 33 29 26 22 19 18
89 96 99 100 96 72 45 40 63 74 84 86 78 71 70 57 40 35 34 33 29 26 20 15 13 5 4 5 13 49 72 66 46 38 38 38 38 35 31 28 27 26 24
100 96 64 41 38 49 70 72 81 90 81 72 70 66 50 38 36 37 36 32 27 20 15 12 4 4 6 32 56 52 36 36 34 28 27 27 29 29 30 32 34 28 27
43 40 40 45 62 70 77 91 84 73 66 67 59 44 38 37 36 35 31 24 17 14 10 4 5 8 42 47 34 36 33 25 25 26 25 26 28 30 37 40 47 43 32
45 45 51 62 77 90 86 76 65 66 63 50 41 37 33 32 32 27 20 15 13 8 4 5 8 44 37 38 38 27 26 29 39 32 30 36 44 48 52 44 45 40 28
49 56 70 90 87 82 70 66 67 56 44 38 33 32 32 27 23 17 14 11 6 4 5 9 42 31 29 27 29 28 34 51 53 55 46 43 47 52 57 60 61 61 40
63 92 93 89 81 68 70 62 48 43 37 35 34 31 26 22 16 13 10 5 4 4 8 40 24 18 18 24 27 29 47 47 46 51 68 67 78 86 78 80 73 60 56
95 92 89 74 70 70 56 48 42 39 39 38 29 22 20 15 12 9 5 4 5 8 31 17 14 16 19 24 27 31 42 43 47 66 77 77 81 79 72 64 55 57 59
92 85 70 72 67 54 48 42 42 40 37 28 21 19 14 13 8 5 5 6 9 30 15 16 21 23 24 27 30 34 40 50 61 73 85 96 98 94 89 67 57 48 41
77 69 75 65 55 49 44 44 41 38 28 21 17 12 10 7 4 6 8 9 28 15 18 25 28 32 34 37 42 48 56 63 66 87 100 100 100 96 92 82 65 47 37
75 78 64 58 50 46 43 40 36 25 20 19 14 10 6 4 6 8 8 30 16 17 26 31 32 34 37 45 56 69 76 74 78 91 100 100 100 100 92 70 53 46 35
76 65 60 53 48 43 37 30 22 19 17 15 12 7 4 6 8 8 27 18 19 27 30 32 39 45 57 66 76 87 90 81 87 90 99 100 100 100 100 83 64 51 38
67 61 56 53 42 33 25 22 19 17 15 11 8 4 5 7 8 25 19 20 30 37 34 35 45 52 64 72 80 82 84 80 80 87 93 100 82 88 93 72 48 42 34
63 60 57 46 37 25 23 21 19 14 11 8 4 5 6 8 24 21 33 39 39 38 38 40 50 60 66 65 70 71 67 56 57 74 82 90 63 72 83 58 34 30 76
62 59 51 41 28 24 20 18 14 12 8 4 5 7 7 24 24 35 42 45 44 44 48 56 63 61 59 66 70 64 53 51 46 43 59 78 67 57 66 54 38 78 100
57 51 39 34 27 21 18 15 14 8 4 5 7 7 25 25 32 36 40 42 46 52 58 63 68 71 63 61 73 75 55 55 67 79 64 49 59 42 47 59 80 100 100

GFSGL_500_rhum_015.txt.gz
RH
34 32 33 36 33 39 51 72 70 61 60 61 64 76 81 79 71 57 54 51 38 33 53 81 80 70 70 57 39 54 60 51 44 44 44 35 23 17 14 11 8 7 7
42 41 39 38 38 35 65 72 66 65 68 72 81 91 94 85 59 66 68 44 43 84 90 83 75 68 42 55 65 57 51 48 47 39 26 20 16 14 12 10 9 7 3
49 46 43 43 36 54 73 75 70 73 78 81 90 96 92 58 80 98 61 61 93 94 87 77 53 48 68 64 56 51 50 39 28 22 18 15 13 10 8 6 3 3 4
48 46 42 40 51 63 82 73 76 77 81 94 100 96 69 77 100 68 83 97 96 85 65 49 69 71 63 56 52 41 30 24 21 17 14 8 7 7 4 3 3 5 5
46 44 44 48 56 81 77 75 68 87 99 100 93 89 79 100 73 94 98 94 76 53 63 76 70 61 56 44 32 26 23 20 17 11 7 8 4 3 3 5 5 8 65
51 46 98 62 89 87 84 76 98 100 93 76 81 79 89 87 100 100 89 62 55 77 78 69 61 50 36 28 25 23 21 14 9 10 8 3 3 4 5 11 49 59 64
78 89 73 64 76 80 77 98 98 84 72 59 65 84 96 100 99 79 54 71 82 76 64 58 43 32 28 27 24 18 10 13 11 4 3 3 6 28 49 59 67 71 79
60 76 73 91 73 78 99 84 74 58 56 48 90 99 100 93 57 63 81 83 70 62 52 36 30 30 27 22 11 10 14 8 3 4 10 29 52 57 54 59 62 66 76
84 75 69 95 98 79 64 70 57 41 80 98 99 97 60 57 79 86 78 63 60 46 36 31 28 24 19 13 11 11 5 3 9 37 50 52 50 44 31 22 23 21 25
100 98 82 62 68 72 56 64 86 98 99 96 56 58 76 88 84 68 62 57 42 32 27 26 23 15 10 11 9 4 3 13 46 48 39 32 30 30 28 26 26 26 26
98 70 75 84 77 84 92 98 98 77 48 58 76 83 87 75 63 61 48 37 30 27 24 18 12 10 11 8 4 4 16 43 35 30 32 28 23 22 22 22 22 21 20
83 80 82 88 96 97 76 50 49 67 78 80 87 81 64 63 54 42 34 30 28 21 15 11 10 10 7 4 4 22 40 32 34 26 24 27 27 24 23 25 30 30 33
92 95 93 80 48 45 51 67 73 76 89 87 70 63 60 45 38 34 33 28 16 9 8 9 8 5 4 5 30 31 27 26 24 26 36 41 39 36 35 39 52 52 54
94 63 48 49 51 57 65 73 90 89 76 63 62 52 44 38 36 35 25 14 9 9 8 6 4 4 7 34 21 16 19 23 27 34 38 41 48 55 59 62 65 62 58
53 48 51 52 57 68 91 92 82 65 61 58 47 42 37 38 35 26 14 11 9 8 6 4 5 11 30 16 15 16 21 27 33 37 41 46 58 67 73 72 69 61 66
52 51 52 67 89 92 88 73 64 63 53 46 39 38 39 33 19 14 13 9 9 6 4 6 13 21 15 18 20 23 27 33 38 44 54 61 77 84 87 96 85 61 48
48 65 90 91 90 82 66 68 63 52 45 40 40 37 28 15 13 10 9 8 6 4 6 15 19 18 22 24 27 32 40 49 58 61 68 81 96 100 99 96 88 75 59
91 90 88 88 73 69 73 61 54 45 42 38 30 20 15 13 11 9 6 5 4 6 14 18 20 24 28 30 36 46 59 70 70 69 76 87 91 96 99 100 96 82 69
86 87 82 69 73 72 61 55 48 44 37 26 18 15 12 10 9 7 4 4 6 12 18 21 27 29 32 41 53 61 68 74 63 70 80 94 100 96 93 84 68 53 42
87 72 69 76 68 63 56 52 46 37 24 16 14 12 11 12 9 5 5 7 12 19 19 28 32 38 47 52 57 56 49 45 52 69 88 100 98 92 93 87 76 68 46
67 77 77 68 63 57 56 51 46 30 19 17 15 14 13 8 4 4 6 12 19 22 28 31 39 46 51 54 51 39 38 36 44 68 93 100 87 99 100 97 62 53 43
85 76 71 63 59 58 52 44 29 24 22 18 16 15 10 4 4 6 15 18 22 31 31 35 42 50 56 58 46 41 44 46 45 62 81 85 77 90 87 59 40 41 59
79 72 63 56 54 52 40 31 27 25 20 18 16 11 5 5 6 21 18 26 31 32 35 41 50 53 58 62 52 47 57 69 67 48 57 51 59 76 58 40 67 98 100
72 67 57 56 54 48 38 32 29 21 19 17 11 5 5 6 24 25 33 33 35 37 42 48 54 56 56 60 66 52 57 71 79 73 47 46 44 83 88 99 100 100 100
71 61 61 57 47 37 30 26 20 18 15 10 5 5 6 21 29 39 39 39 42 48 54 58 63 67 66 68 70 71 57 62 72 86 77 42 44 92 100 99 99 100 100
67 61 48 36 30 26 24 22 17 14 10 6 4 6 11 26 36 37 36 40 44 48 58 70 79 80 76 77 76 75 72 68 69 81 90 66 38 43 77 96 99 100 100

GFSGL_500_rhum_018.txt.gz
RH
23 28 41 46 37 31 33 42 44 42 52 57 74 69 63 66 75 90 99 97 78 56 65 72 46 71 86 84 74 52 47 63 54 47 41 35 26 20 16 13 9 7 6
29 42 42 44 37 33 34 37 46 54 53 73 72 67 69 81 99 98 98 83 61 81 90 51 84 90 86 64 44 66 64 52 44 37 26 19 15 12 9 8 6 6 5
42 44 42 43 40 36 44 45 49 49 66 69 73 72 82 99 97 98 100 80 76 78 64 93 94 81 52 58 71 59 49 41 29 22 17 14 10 7 7 6 5 4 3
54 50 46 46 45 49 49 52 47 58 68 79 71 71 87 94 100 96 100 76 69 82 98 98 68 54 75 68 55 47 35 27 23 19 13 9 7 6 5 4 3 4 7
56 51 52 49 52 58 55 47 53 72 82 76 85 93 99 100 88 99 70 77 96 100 93 57 72 77 60 53 43 30 25 21 15 10 8 7 6 6 4 4 11 20 47
61 55 51 51 56 48 54 66 61 86 84 82 87 100 98 90 68 65 87 100 100 72 62 84 71 60 50 37 28 26 18 12 9 8 8 7 5 3 6 20 33 37 43
60 53 49 53 61 96 91 71 96 95 92 99 99 97 84 61 88 100 100 92 56 80 83 63 59 44 33 29 24 15 9 8 8 7 6 4 4 19 35 33 34 30 27
69 63 96 73 96 97 99 100 97 99 99 98 83 60 85 100 100 94 60 70 85 73 61 53 37 32 29 21 13 11 9 6 6 5 4 6 27 35 24 20 21 21 23
92 72 96 100 95 94 100 100 100 99 90 91 96 100 100 92 54 67 83 84 63 59 46 36 33 28 23 16 11 7 6 6 4 4 17 32 24 24 19 15 16 17 17
100 99 87 100 99 94 93 90 83 85 91 100 99 73 48 60 74 88 71 61 54 40 36 34 29 22 13 8 6 6 7 4 7 29 24 24 21 20 22 25 25 22 22
98 95 98 98 88 93 82 81 87 98 88 52 49 58 70 87 82 62 58 44 38 36 34 27 18 11 7 6 7 5 4 12 22 14 17 19 22 28 33 36 41 36 37
100 95 94 93 81 74 77 74 54 46 49 53 62 83 88 66 61 50 40 37 36 32 23 12 9 8 6 6 4 5 17 15 13 15 19 26 32 38 40 44 51 54 57
85 78 73 76 73 54 50 54 56 51 58 84 93 74 63 57 45 37 36 32 27 17 10 8 7 7 6 4 7 16 14 17 19 23 30 36 43 52 56 56 73 69 75
81 90 84 51 50 55 56 50 60 86 94 81 65 63 53 43 37 33 28 21 12 9 8 8 7 5 4 9 16 16 20 24 28 36 47 56 58 62 71 76 87 91 86
74 58 51 53 54 49 67 89 94 85 67 62 60 51 43 38 35 27 16 12 9 10 10 6 5 5 11 16 20 21 24 33 44 48 42 45 58 74 97 97 94 90 85
60 58 54 50 69 85 86 83 71 60 63 58 51 44 40 38 26 17 15 12 12 10 7 4 5 12 17 22 24 28 35 38 31 27 34 51 73 91 91 94 90 84 80
55 50 73 83 82 82 76 60 63 64 58 51 47 46 43 31 20 16 12 12 9 7 4 6 14 18 23 25 31 40 40 28 24 27 38 66 87 83 77 92 95 83 60
74 80 80 80 78 62 59 67 62 57 50 48 47 44 28 22 15 11 10 9 5 4 6 16 18 24 27 34 41 39 31 28 32 33 45 72 76 72 91 96 92 69 52
76 77 77 68 57 68 68 63 53 46 47 44 37 28 28 21 13 11 10 5 4 6 17 18 24 29 36 41 40 35 34 45 49 36 43 54 59 72 81 67 55 55 44
77 74 60 65 74 69 60 49 46 46 45 39 35 31 23 17 16 12 6 4 8 17 19 25 29 36 40 43 42 40 43 59 63 40 41 43 60 62 45 38 41 50 74
71 64 75 74 67 58 52 48 49 44 36 30 25 22 19 16 12 7 4 11 16 22 25 27 34 38 41 46 49 43 49 61 77 54 39 60 87 68 65 88 100 100 100
71 76 73 66 60 54 53 50 33 27 24 20 17 14 14 14 7 4 14 16 21 26 30 34 41 45 49 54 57 57 52 60 73 80 35 79 100 100 100 100 100 100 99
79 75 67 60 56 50 36 32 28 22 19 18 16 15 14 7 5 12 18 27 30 30 36 45 53 58 65 68 64 66 61 58 66 82 45 38 93 100 100 100 100 97 91
76 69 59 48 40 36 30 26 24 21 18 14 13 11 5 4 8 23 31 35 36 37 43 56 66 72 78 77 71 66 66 64 66 77 57 34 32 81 100 100 100 95 90
74 62 50 45 39 32 26 23 18 13 11 11 7 4 4 7 25 37 38 38 41 44 55 69 82 84 84 80 72 72 69 64 62 68 70 44 38 30 50 83 95 98 95
68 60 53 43 31 27 20 15 12 10 8 4 3 4 7 17 36 40 39 42 46 62 68 77 85 81 84 82 73 75 73 68 61 69 68 56 41 41 39 30 53 83 94

GFSGL_500_rhum_021.txt.gz
RH
25 26 16 18 33 40 39 41 45 52 60 51 57 54 60 57 68 74 69 71 73 78 82 78 81 73 59 48 70 85 85 63 47 55 54 45 38 29 21 17 15 13 11
36 39 22 18 27 37 42 49 54 51 47 58 63 52 59 66 77 72 66 72 84 89 95 95 97 67 56 88 89 79 56 71 64 50 42 33 23 20 16 14 12 11 10
62 51 29 22 27 38 44 55 52 49 57 48 53 53 60 77 77 74 82 93 99 100 100 92 75 84 100 91 65 66 74 59 48 38 27 22 19 16 14 12 10 8 7
62 81 49 31 34 36 53 54 56 55 53 64 64 69 79 82 87 94 98 100 99 97 74 62 96 99 84 62 77 69 54 44 33 26 23 18 12 7 7 8 7 6 4
70 100 57 47 44 49 58 60 59 73 80 68 64 78 94 95 93 92 100 100 97 86 98 100 98 70 75 76 59 50 38 30 28 23 14 9 8 9 9 6 4 4 15
86 97 67 38 52 54 51 63 81 92 72 52 81 100 97 91 100 100 98 97 93 100 100 80 74 83 68 56 46 34 34 29 20 13 10 10 7 5 4 4 8 20 22
75 60 49 50 47 99 71 85 92 84 63 74 100 92 100 100 98 92 91 99 100 86 70 87 80 61 52 40 36 34 24 13 10 7 8 6 5 4 6 14 15 11 14
78 60 50 61 98 77 65 76 98 91 98 99 98 98 98 91 98 97 100 80 67 84 84 66 54 45 37 37 31 21 10 8 7 7 6 4 4 11 13 11 13 15 19
95 66 69 64 58 91 99 98 98 96 99 97 86 80 92 98 88 60 66 75 88 76 58 50 39 35 33 24 13 9 8 8 6 4 4 8 13 13 15 17 23 28 34
71 92 98 97 98 98 99 100 99 97 93 91 90 76 53 52 61 70 85 87 65 54 44 38 33 26 16 11 9 8 8 7 4 5 14 15 17 20 27 33 37 40 43
73 96 90 96 99 100 99 94 86 74 58 47 51 55 56 58 73 83 71 58 52 41 37 32 22 15 14 11 9 8 6 4 8 15 19 21 29 38 44 44 49 50 58
98 96 97 96 97 88 84 66 47 52 56 56 52 53 67 81 75 62 60 48 40 37 34 23 18 15 10 9 7 4 4 12 17 19 24 30 32 31 35 50 71 78 89
85 84 79 83 80 58 49 51 53 53 47 48 68 81 74 60 62 55 48 43 40 39 26 18 12 11 9 6 4 5 15 18 19 27 27 23 24 28 45 68 87 92 99
87 88 75 53 52 51 52 53 49 49 70 82 76 63 61 58 53 48 45 43 39 25 22 15 14 10 6 4 9 16 19 22 28 23 22 30 30 41 74 88 82 77 77
75 65 59 59 56 55 50 50 73 78 74 63 59 60 57 52 45 42 40 33 27 27 23 16 9 6 4 11 17 19 26 30 25 32 40 33 37 53 68 71 75 87 84
67 64 62 59 52 62 76 74 72 62 58 62 59 54 44 38 39 39 36 32 29 22 15 10 5 4 14 19 22 30 32 29 37 47 40 29 37 42 48 63 67 64 61
65 57 54 66 73 73 73 65 56 61 61 58 50 42 41 41 35 29 26 22 17 13 11 4 6 15 19 22 32 35 34 39 45 52 35 48 58 47 35 36 41 46 51
62 72 75 75 73 69 59 62 66 63 56 46 41 40 32 26 23 20 18 18 16 11 4 8 14 19 24 32 36 39 38 44 45 56 37 73 66 41 45 58 68 82 94
78 78 76 74 66 64 70 68 61 54 46 41 32 28 28 24 22 22 20 15 10 4 11 15 22 25 31 36 39 42 44 45 46 62 35 76 85 92 97 97 99 93 92
83 82 76 69 72 74 66 57 49 42 33 29 27 23 22 22 20 16 13 7 4 14 19 23 26 32 37 42 45 45 46 48 51 67 35 63 90 92 97 98 96 96 89
83 76 73 75 72 64 54 44 36 35 32 23 17 15 14 14 14 9 4 4 16 20 25 29 35 43 52 55 55 49 47 51 56 70 46 36 85 95 96 95 97 84 82
77 74 75 71 64 55 44 41 40 26 14 11 10 8 8 8 4 3 5 17 21 29 31 40 48 56 63 69 63 57 52 54 60 72 54 34 42 90 99 99 99 95 79
76 78 73 67 62 52 49 39 21 12 8 7 6 6 4 3 3 4 16 29 33 35 35 45 59 72 76 72 68 61 58 56 58 68 65 42 42 34 70 92 94 88 78
79 75 68 67 59 52 31 23 13 8 6 5 4 3 3 4 5 16 33 37 37 40 49 61 72 77 75 75 71 62 62 62 57 62 67 50 39 36 33 48 79 92 84
77 71 69 65 48 30 22 18 10 6 4 4 4 3 4 6 16 34 37 40 41 50 54 57 62 68 74 74 73 68 63 64 60 56 59 63 47 41 36 29 33 64 82
78 77 65 44 30 24 22 13 8 5 4 5 4 4 6 16 27 35 36 40 43 51 56 67 69 71 76 77 72 72 68 66 66 60 56 59 60 46 42 33 28 28 59

GFSGL_500_rhum_024.txt.gz
RH
25 19 14 14 19 28 31 43 49 54 54 67 56 50 62 64 68 60 58 82 54 62 67 69 77 84 86 88 88 86 66 63 73 70 55 51 54 50 44 36 27 22 21
40 28 22 16 20 34 41 45 45 46 53 66 55 61 70 63 97 68 95 62 58 71 85 98 100 99 100 100 100 76 84 87 68 50 59 57 48 39 29 24 22 19 13
34 29 25 24 26 38 45 43 44 44 49 58 60 70 65 61 77 59 56 62 78 85 91 82 99 100 100 98 95 94 88 63 75 67 53 43 32 27 24 21 13 9 9
34 34 52 54 50 86 66 61 37 42 48 60 62 56 97 54 66 56 64 81 86 93 85 100 100 99 95 94 94 70 70 80 63 50 37 28 27 24 15 10 9 11 13
42 80 80 53 73 100 86 56 30 42 47 57 61 98 59 76 71 97 70 79 86 99 99 96 94 95 96 75 70 84 70 55 40 30 27 23 15 11 9 10 12 10 4
59 90 80 60 98 81 98 45 51 49 58 76 98 66 55 61 58 95 86 88 100 100 95 91 95 73 67 84 80 62 47 35 30 25 16 12 11 10 10 9 7 4 7
62 75 60 56 84 63 55 59 56 60 98 79 88 94 83 75 85 100 99 98 98 88 86 68 66 83 87 68 55 40 35 29 21 16 14 11 11 9 5 4 8 13 14
91 100 99 100 78 84 92 76 88 88 83 92 98 98 100 100 99 98 96 84 63 57 60 76 92 74 63 48 38 36 27 20 15 12 12 9 5 4 6 13 14 16 21
98 97 97 93 82 76 90 70 98 81 99 98 99 100 98 98 92 67 54 57 57 70 91 78 65 57 47 41 39 33 22 17 16 14 8 4 5 13 14 16 19 18 19
80 78 86 94 84 97 98 92 93 89 98 99 98 98 82 52 51 55 55 64 83 79 66 58 53 46 44 42 32 25 25 20 12 6 4 11 16 19 21 19 20 26 28
97 99 97 96 90 95 98 97 98 98 95 67 52 52 54 50 51 71 78 72 63 60 58 53 50 48 41 30 28 26 16 10 4 6 17 19 25 23 24 32 32 30 33
75 97 99 98 98 97 98 90 81 59 52 52 52 47 49 62 62 59 54 54 56 56 53 50 42 36 34 29 20 14 9 4 11 17 21 24 25 37 37 31 34 39 47
92 82 78 75 76 81 63 51 51 52 52 49 52 58 57 55 50 52 56 54 48 43 40 37 32 27 20 18 16 7 4 13 16 23 25 32 40 38 37 50 42 38 54
78 76 75 63 56 56 55 54 53 48 45 49 50 48 47 51 56 54 47 42 39 34 27 25 23 21 20 14 6 6 14 17 24 28 36 44 42 41 63 25 24 32 39
72 69 66 64 61 58 55 48 48 47 47 48 50 53 56 53 46 40 36 32 28 27 28 27 26 21 12 6 9 14 17 24 28 35 40 46 38 70 50 32 34 36 35
69 63 60 57 53 51 52 52 51 53 52 55 58 53 45 37 33 30 29 28 25 24 25 21 15 9 5 12 16 19 25 30 35 41 46 45 46 74 80 84 84 85 86
61 56 56 58 58 58 58 58 56 59 64 56 44 34 32 32 30 26 23 23 21 18 14 9 5 7 15 19 25 29 32 36 42 45 53 42 49 77 80 84 85 85 91
66 68 68 69 68 64 62 62 64 58 48 37 34 34 30 19 14 13 11 9 10 8 4 4 11 16 23 27 31 35 39 40 44 46 57 42 42 76 82 86 81 78 80
76 76 75 69 65 63 62 62 56 48 40 38 35 21 12 9 7 6 6 6 4 3 4 15 23 26 31 35 42 48 49 46 49 50 59 41 33 68 84 84 86 67 64
78 75 70 68 65 65 65 60 54 46 42 31 18 10 8 5 4 5 5 4 3 5 18 28 29 34 41 49 58 58 53 50 48 50 58 44 34 44 76 86 87 88 79
77 74 69 68 70 69 65 62 52 46 24 17 12 7 5 4 4 4 4 4 7 19 28 31 40 48 55 66 72 63 56 55 51 52 60 57 38 32 45 68 88 94 93
80 71 70 73 74 69 64 56 42 24 16 12 7 4 3 6 4 3 4 11 20 29 32 36 43 56 67 77 70 68 62 60 56 53 55 62 46 36 35 34 50 86 80
72 73 76 75 72 67 60 37 24 17 12 7 5 3 6 7 5 5 14 22 28 30 39 49 53 56 64 70 70 69 68 63 62 58 55 56 59 43 37 31 30 49 74
74 77 78 77 72 64 42 29 25 16 11 5 4 6 10 8 8 11 19 25 27 33 45 51 60 62 66 69 70 68 67 69 63 58 53 52 50 45 34 29 26 28 42
82 82 82 76 72 54 38 33 30 15 7 5 4 12 11 7 9 14 21 25 28 39 52 63 68 68 68 67 71 74 72 71 65 55 52 47 45 46 39 30 26 21 28
88 86 84 80 71 56 44 38 25 14 7 5 9 15 8 10 12 16 20 26 33 53 63 70 73 71 71 69 67 77 79 73 70 59 48 48 42 44 43 36 29 23 19

GFSGL_500_rhum_027.txt.gz
RH
68 63 53 46 32 24 19 16 16 21 28 32 46 56 61 62 70 70 60 59 60 98 96 71 90 72 76 77 78 85 74 60 69 72 78 75 69 57 64 65 57 44 36
85 92 82 60 39 32 24 20 16 24 40 41 49 61 55 56 58 65 57 57 59 77 92 91 94 76 82 80 90 72 72 72 75 71 72 60 65 74 61 48 37 29 27
100 99 87 73 44 47 38 20 19 27 52 60 57 47 50 54 52 56 54 96 72 67 66 82 72 79 79 78 70 88 92 88 88 68 63 77 67 52 39 32 30 26 21
100 100 92 85 57 44 44 32 23 26 48 76 68 63 50 46 47 51 81 92 70 98 87 85 85 84 77 82 92 92 86 78 68 78 75 56 44 36 34 31 24 18 16
65 65 54 47 60 67 55 26 24 27 60 82 68 62 49 45 51 48 82 96 84 100 93 99 94 91 97 99 82 76 66 79 83 62 51 41 37 35 30 23 20 12 9
34 39 52 38 28 31 48 33 35 34 57 97 65 58 42 48 63 92 98 100 98 63 74 96 100 100 98 74 64 73 82 65 53 48 43 39 36 27 25 14 10 8 5
51 35 34 32 35 45 38 38 40 47 63 76 58 47 48 76 92 96 79 81 99 76 90 98 92 66 63 65 81 67 58 54 47 44 41 33 27 18 14 10 6 5 12
37 55 80 89 85 97 92 88 61 73 85 81 87 83 97 98 99 99 98 99 98 98 89 67 62 72 80 67 58 57 52 49 48 41 33 23 18 15 8 5 10 12 17
87 99 97 97 96 99 92 98 89 94 98 84 96 99 100 85 100 99 99 97 92 62 59 67 80 63 57 58 52 44 44 43 40 30 21 20 15 6 8 11 14 17 20
99 100 100 100 94 99 99 54 79 92 99 98 97 99 98 98 96 92 84 74 57 66 66 56 52 53 51 42 40 40 38 32 28 25 22 10 6 12 14 17 18 21 23
95 84 90 96 100 86 91 99 97 98 95 99 98 96 74 58 56 53 53 55 51 50 52 53 47 38 39 38 34 30 30 29 24 17 6 9 15 21 22 24 25 27 19
99 99 99 99 99 100 100 99 100 92 76 65 57 57 54 49 47 49 47 48 50 52 42 39 39 36 34 31 30 28 23 18 10 6 14 17 22 27 27 27 42 42 31
88 85 85 86 94 86 70 54 54 54 56 56 50 46 50 50 46 46 47 40 31 29 30 31 29 29 26 24 23 20 11 5 7 16 19 24 26 28 28 41 62 68 74
74 71 68 62 61 60 61 60 58 55 50 48 48 45 43 46 46 35 30 29 29 25 22 16 12 11 12 13 9 6 4 12 18 21 26 30 31 33 30 56 68 72 80
75 72 70 66 62 58 55 54 54 53 50 47 48 50 47 37 32 30 27 21 15 12 9 6 6 7 6 4 3 6 18 20 24 24 30 32 35 38 33 63 69 73 72
67 62 62 64 65 63 60 57 52 49 50 49 47 42 35 32 28 22 15 12 9 6 4 4 5 5 4 4 13 20 24 26 28 33 33 35 41 37 33 66 76 79 74
66 68 68 66 63 62 58 53 52 51 49 45 39 38 36 24 17 11 9 7 5 4 5 4 3 4 9 20 27 29 30 36 40 40 41 43 45 36 30 55 78 88 93
71 71 70 68 65 61 56 53 53 50 47 43 40 33 23 14 11 8 6 4 4 6 4 3 4 17 24 30 35 42 49 51 48 48 46 44 47 41 31 35 60 79 85
77 75 72 69 63 58 56 56 52 48 45 42 32 23 15 10 7 7 4 5 7 5 3 7 20 25 30 39 50 57 63 56 54 52 48 47 50 48 39 34 35 53 75
79 76 71 66 60 56 54 52 48 47 44 34 21 16 10 6 6 4 6 8 6 5 12 16 23 32 42 50 59 66 62 60 56 55 52 48 50 51 45 38 34 31 39
77 73 66 60 58 56 55 52 51 49 40 30 25 13 7 6 4 6 9 7 7 10 16 23 31 40 45 50 56 63 62 62 61 56 56 53 49 52 53 42 34 29 28
74 66 60 61 59 58 57 55 53 49 42 35 27 8 6 5 5 9 8 8 9 16 20 30 38 46 53 56 59 64 65 63 61 59 58 57 54 52 54 51 37 26 23
65 60 61 63 62 63 65 62 56 52 43 36 14 7 6 5 10 9 9 11 17 20 23 37 45 52 60 64 67 68 68 68 65 61 62 58 58 56 57 49 35 26 22
61 64 66 66 67 71 72 64 58 48 32 20 10 6 6 7 13 9 12 15 19 21 35 47 53 58 60 65 68 63 62 70 71 64 60 57 56 53 46 43 38 29 18
65 69 72 73 73 75 73 61 50 29 27 17 6 6 6 13 12 12 14 16 20 34 40 44 51 57 64 72 72 72 69 57 60 64 62 55 50 49 45 42 38 28 19
73 80 77 77 79 81 72 54 38 35 27 14 6 6 7 17 13 13 16 20 30 40 44 57 67 76 80 77 75 74 74 68 66 63 55 51 50 47 44 40 38 29 19

GFSGL_500_rhum_030.txt.gz
RH
23 30 40 60 69 63 51 36 27 25 24 29 46 54 68 67 66 62 57 57 65 57 57 66 61 64 75 89 85 89 96 74 66 78 74 74 75 79 71 62 58 67 67
26 37 34 36 58 89 86 69 55 36 28 26 31 31 46 61 60 54 59 56 57 72 56 62 74 97 81 96 85 86 100 68 77 78 86 90 72 69 57 67 73 55 47
30 42 35 85 97 84 62 88 79 60 47 30 28 34 40 38 44 53 57 69 64 59 95 61 96 95 97 97 96 92 82 88 90 87 87 67 56 67 76 58 50 47 40
40 83 54 100 100 100 97 88 96 82 56 50 38 39 52 41 41 51 53 64 92 61 58 95 92 98 93 98 99 98 100 100 100 98 64 58 74 63 52 48 40 32 28
76 78 100 100 96 87 84 100 100 88 68 47 45 33 39 50 51 64 68 72 59 49 63 89 98 96 97 97 75 86 92 99 89 61 69 69 57 52 42 33 30 24 21
100 88 100 100 81 81 93 98 99 99 77 53 51 37 40 46 62 69 68 68 66 77 87 99 99 98 98 99 97 100 93 69 67 73 56 54 44 33 31 29 24 20 13
30 71 48 43 47 59 49 57 99 98 87 60 52 47 42 40 62 61 82 93 73 96 100 90 99 100 99 99 93 65 72 68 56 51 45 37 31 31 27 21 16 10 6
56 41 32 31 30 40 34 29 23 60 82 56 44 38 33 43 94 94 91 67 98 99 98 99 99 98 96 82 72 61 54 52 44 41 35 33 30 27 20 14 7 6 10
99 92 84 75 74 68 55 74 62 82 66 55 79 40 34 79 99 66 78 99 99 94 98 95 77 85 76 51 47 44 38 36 35 36 32 27 23 20 11 5 8 11 14
79 83 94 99 99 98 100 100 98 94 78 86 98 100 100 84 97 96 100 94 76 61 65 70 55 49 45 36 27 26 25 24 26 24 19 18 14 7 6 12 13 16 14
88 92 97 99 100 99 99 98 95 94 100 100 96 99 99 99 97 86 62 62 65 57 50 45 35 25 24 23 18 13 10 8 7 8 8 7 6 8 17 20 21 19 15
97 99 100 100 99 100 98 99 99 99 97 93 84 71 65 62 62 61 56 51 48 41 29 26 23 17 12 10 7 5 4 5 5 5 5 5 15 22 24 27 26 22 24
81 80 78 73 67 62 61 61 60 60 60 61 59 57 56 53 49 46 44 37 29 27 21 14 11 8 6 4 4 5 5 4 4 5 13 22 26 28 30 33 34 24 43
74 72 71 69 66 63 60 58 59 61 60 56 52 51 50 49 46 38 33 29 22 16 12 10 7 4 4 6 6 4 3 5 16 25 28 29 31 34 36 36 34 27 56
68 65 63 62 62 62 62 61 60 57 54 53 53 52 47 40 36 31 26 20 17 14 12 6 4 4 6 6 3 4 13 22 30 33 36 40 40 42 40 39 32 27 45
70 68 67 64 63 64 63 60 56 53 52 52 49 44 41 37 31 25 19 16 14 9 5 4 5 6 5 3 8 17 25 30 39 44 44 45 45 44 47 43 36 29 31
71 72 71 68 67 67 64 57 54 52 51 47 44 41 37 32 24 20 17 12 8 5 4 6 7 6 7 12 17 24 33 43 48 49 47 46 47 45 45 45 44 36 33
78 77 74 69 66 64 59 55 54 52 47 44 43 41 36 28 27 17 10 10 5 4 6 8 7 9 12 18 27 36 44 46 46 49 52 50 52 50 47 46 47 40 32
78 76 74 70 68 62 58 56 53 50 47 46 45 42 37 29 16 9 11 8 5 6 8 8 8 13 20 27 32 37 42 48 53 54 56 56 55 53 49 45 48 46 30
83 81 78 72 63 60 59 58 57 54 51 47 44 41 31 20 10 9 10 6 6 8 9 10 15 24 30 35 40 45 48 53 57 58 57 59 56 51 49 45 46 46 42
84 80 73 64 61 61 61 59 58 58 54 49 44 30 21 13 6 12 6 4 9 9 12 16 18 31 38 45 49 51 56 59 59 65 64 61 58 53 47 46 46 47 45
84 77 66 62 63 64 64 61 60 58 53 47 35 27 26 7 11 8 4 8 10 12 16 18 29 33 37 45 50 55 59 61 58 58 65 66 61 57 49 44 47 53 46
82 74 64 65 66 70 68 63 60 58 52 43 36 38 22 10 8 6 6 12 12 15 18 26 33 41 51 57 60 61 63 66 69 67 57 59 60 57 54 49 48 44 40
82 74 66 68 74 76 71 65 64 64 58 52 49 32 17 10 7 6 10 15 16 19 21 34 39 50 59 68 72 67 67 68 68 70 68 65 60 56 54 47 42 41 37
89 78 73 79 82 78 71 69 70 70 66 61 48 34 10 7 9 8 18 18 20 24 26 35 46 50 60 68 78 78 76 69 68 68 70 64 59 55 49 43 37 38 38
93 84 84 85 84 78 74 71 72 71 64 53 52 29 12 13 10 15 21 20 25 28 30 34 54 60 64 76 83 83 86 82 70 68 70 65 62 56 47 39 34 35 36

GFSGL_500_rhum_033.txt.gz
RH
13 14 20 25 28 32 30 29 44 66 60 41 30 30 30 73 84 74 72 82 87 98 97 78 64 56 62 69 74 94 81 87 97 99 100 99 100 97 84 90 88 86 86
17 21 32 52 50 52 47 39 67 100 90 77 61 41 33 33 35 54 81 81 80 88 75 65 62 97 56 78 98 89 85 100 99 98 98 98 99 90 98 98 96 79 65
21 24 30 39 91 95 41 36 49 76 94 100 93 77 62 45 47 39 39 41 50 70 69 69 75 68 67 77 95 98 98 98 99 96 96 98 99 99 98 99 69 73 62
23 22 39 41 100 99 67 57 68 100 96 84 99 100 91 72 57 49 45 51 54 56 56 53 57 54 87 86 85 89 100 99 98 98 99 100 100 100 84 60 68 55 50
25 37 46 82 97 75 41 100 96 100 100 93 71 92 100 82 67 55 41 39 56 61 60 47 60 79 100 97 85 74 97 100 99 100 99 100 87 75 73 55 48 34 34
33 34 31 63 75 84 83 90 100 100 100 100 99 100 99 88 70 59 50 49 57 51 43 61 70 92 85 78 98 99 100 98 99 99 94 91 80 61 44 31 27 29 25
37 39 41 20 42 46 46 61 86 100 100 100 88 87 90 76 69 60 58 89 69 99 77 64 100 99 92 98 98 99 100 99 91 76 75 63 38 27 22 22 19 14 12
56 49 60 38 19 28 34 44 59 80 92 100 100 84 68 74 77 93 48 42 96 73 78 100 99 98 95 99 99 98 75 54 41 30 24 20 15 12 9 8 7 7 8
62 66 62 82 93 67 82 59 27 41 47 96 100 98 99 74 47 43 40 47 100 98 99 95 99 96 82 64 49 36 26 22 16 10 8 6 5 5 5 5 6 5 5
60 68 70 74 88 97 100 100 89 96 100 88 73 99 98 99 100 69 60 87 99 100 100 90 64 51 41 28 23 18 13 10 6 4 4 4 5 6 5 4 5 10 16
66 73 81 92 92 91 98 100 98 99 99 100 100 100 100 100 100 100 99 98 92 72 53 45 35 27 22 16 13 11 8 4 4 4 6 6 4 3 4 11 16 16 22
56 59 67 70 65 67 77 94 100 99 99 97 96 94 92 78 68 64 59 51 46 41 33 27 20 17 16 10 5 4 4 4 6 6 3 3 5 12 18 22 24 28 30
66 64 63 64 64 62 61 61 61 60 59 59 59 57 53 50 50 49 46 39 35 28 24 19 16 10 6 4 4 4 6 6 5 4 6 13 18 23 27 34 34 38 39
66 62 60 60 59 58 59 60 60 59 56 52 50 51 52 51 46 40 37 34 28 21 19 15 10 8 6 4 5 7 6 6 9 13 17 24 29 33 34 39 43 42 45
70 66 65 64 62 63 64 62 57 52 50 51 52 51 47 44 42 38 32 30 26 21 18 12 10 5 4 7 8 7 8 10 16 22 30 35 40 43 43 45 43 44 42
75 74 75 72 70 66 64 60 55 53 54 54 51 48 46 43 38 36 32 29 22 20 14 10 5 5 9 9 9 11 15 19 25 30 35 42 48 50 50 47 44 43 43
81 81 77 75 72 68 61 56 54 53 52 50 48 46 44 40 39 36 31 22 18 15 11 6 5 7 10 11 16 21 26 31 34 38 41 45 48 50 51 52 50 46 47
84 80 78 74 68 62 56 55 53 52 51 51 50 47 44 42 40 32 25 20 13 13 8 5 6 10 12 17 24 30 36 42 45 48 46 48 51 52 53 54 50 44 43
82 78 76 72 67 59 56 57 57 54 54 54 53 50 46 42 32 28 32 13 15 10 7 6 10 13 17 25 29 33 42 46 49 54 54 50 52 59 59 54 50 43 37
80 76 76 71 62 57 58 60 60 57 55 53 53 51 47 38 34 35 24 13 9 8 6 12 13 17 23 27 32 36 42 48 52 54 56 58 53 52 59 57 51 45 39
80 76 74 70 64 61 63 65 66 62 60 58 57 55 49 42 42 32 18 9 8 6 11 14 17 19 29 33 39 47 53 52 51 54 57 60 62 55 53 50 46 44 37
87 81 78 74 69 65 67 72 73 69 66 64 63 60 55 47 39 38 14 9 7 9 16 18 21 23 32 39 47 56 63 67 65 60 55 60 64 60 59 55 48 41 37
96 93 87 83 76 71 74 77 76 73 70 68 65 60 48 44 40 33 19 10 7 14 20 23 26 28 30 42 48 57 65 72 72 68 71 62 62 65 63 60 50 42 41
98 97 98 90 82 80 83 81 80 76 72 68 64 55 45 46 44 23 11 9 10 21 22 25 30 32 33 35 53 65 72 76 72 71 70 68 62 62 62 62 55 42 37
99 100 100 96 92 90 86 82 81 76 72 72 66 58 53 53 29 15 14 11 19 28 24 24 29 33 35 39 57 74 83 78 71 73 76 72 68 60 58 56 50 37 34
100 99 100 100 94 88 82 82 80 76 74 74 64 57 58 36 19 16 12 14 25 34 33 29 31 38 42 48 62 82 85 76 77 85 82 75 68 59 53 52 38 31 25

GFSGL_500_rhum_036.txt.gz
RH
16 18 18 14 14 16 18 21 36 40 39 32 34 32 37 64 54 43 43 45 63 76 89 93 98 87 96 91 96 93 72 79 61 91 98 99 91 95 99 98 97 97 99
19 16 16 17 21 32 43 49 57 77 77 62 44 41 44 45 63 81 57 57 56 71 79 85 86 75 68 80 80 67 62 71 84 67 99 95 98 97 98 98 98 99 98
24 22 19 19 27 26 21 17 63 100 97 52 49 57 55 42 58 91 92 68 62 47 63 58 71 61 59 99 63 64 55 77 90 99 98 99 88 88 96 98 99 99 99
33 31 28 22 17 21 12 44 91 100 100 100 99 80 57 48 71 84 100 96 72 56 51 51 58 65 58 58 56 50 48 59 68 81 88 94 89 99 99 99 99 100 98
32 26 22 19 26 24 15 25 37 50 72 95 64 73 97 98 100 100 100 100 93 84 67 60 70 64 51 49 77 77 60 96 99 100 100 99 96 98 100 100 98 85 50
23 29 26 28 32 31 27 25 48 52 58 82 97 100 100 100 100 100 100 97 94 84 75 60 51 46 45 77 93 54 76 100 100 95 92 100 100 98 88 58 31 16 10
25 29 30 33 39 40 50 34 30 78 90 86 80 82 86 91 98 100 99 96 87 71 85 92 99 77 100 100 100 80 94 100 97 98 90 56 37 20 16 12 8 6 5
28 36 39 39 41 51 62 57 37 26 72 90 89 84 96 100 98 86 81 77 78 91 95 83 66 91 90 100 99 99 94 82 52 31 23 18 14 11 7 5 4 4 5
38 40 46 44 53 54 66 73 70 68 47 82 97 96 94 96 98 91 100 100 96 80 52 51 74 100 99 99 86 62 38 25 21 17 11 6 4 4 4 4 5 6 5
51 42 49 53 54 59 62 69 71 90 98 85 92 100 100 100 100 100 82 88 100 96 78 93 100 98 84 55 32 21 17 12 8 8 6 5 4 4 5 6 5 3 6
47 44 47 47 48 49 58 71 75 91 95 97 98 100 100 100 100 100 100 100 99 96 89 79 55 36 28 22 18 14 11 10 7 5 4 4 6 6 5 5 9 14 18
56 50 45 42 44 49 51 53 56 64 70 74 68 76 72 73 70 62 57 54 49 46 38 34 30 24 20 18 15 13 10 5 4 4 7 7 7 7 11 13 16 22 25
62 53 48 46 48 52 54 57 59 59 57 55 53 53 53 52 50 48 43 39 36 36 30 28 26 22 19 17 15 8 6 5 7 9 9 9 10 13 16 20 25 29 33
67 59 58 58 56 54 53 54 54 53 52 50 50 50 49 47 44 42 41 39 35 32 30 30 23 21 18 16 8 5 5 9 11 13 18 22 25 26 28 32 36 38 44
72 70 70 67 64 62 58 56 52 50 48 47 46 44 43 42 41 40 39 39 36 35 31 25 23 20 15 7 5 5 11 13 18 23 29 33 33 33 36 41 46 50 52
80 79 73 69 65 63 61 58 53 49 47 47 46 46 46 44 41 39 37 36 34 31 26 28 20 17 7 6 7 10 15 22 26 30 36 39 42 44 45 47 49 50 53
84 83 77 74 69 66 61 55 52 49 48 47 47 47 46 46 46 44 41 39 33 31 32 21 18 10 9 7 10 15 24 26 28 32 38 42 48 52 52 52 55 56 55
88 85 80 77 72 67 62 57 54 54 55 54 53 51 50 49 48 46 44 39 37 37 28 18 12 12 8 11 16 22 28 31 33 36 40 45 51 55 57 56 52 52 55
94 91 86 81 75 71 63 59 59 60 62 62 59 56 53 54 53 53 49 46 42 37 32 17 12 8 11 16 19 26 32 39 44 48 52 53 50 54 57 57 58 57 51
97 96 91 84 79 75 68 61 61 64 68 68 66 63 60 58 58 57 54 49 39 32 22 13 9 9 17 20 23 28 39 47 55 56 58 64 62 62 59 60 60 59 57
100 98 96 90 84 80 75 68 68 70 72 71 70 68 64 61 58 56 47 42 39 22 14 10 9 17 22 27 30 32 42 49 54 59 62 70 60 62 64 63 59 59 57
100 99 99 99 93 86 82 78 76 78 74 71 70 67 64 65 63 57 49 47 28 17 12 9 18 24 27 32 36 38 40 45 59 69 76 78 66 61 67 69 66 60 58
99 99 100 99 97 96 94 85 84 81 74 73 70 67 66 71 63 55 51 36 26 16 10 15 27 28 28 34 41 45 48 48 60 77 85 86 74 68 76 77 72 64 57
100 100 100 99 98 98 96 89 84 79 75 74 70 66 72 71 61 53 46 34 24 11 12 24 31 36 36 34 34 40 45 54 70 80 78 81 74 77 83 77 67 58 49
100 100 100 100 100 100 94 87 84 78 75 71 65 67 74 70 63 48 38 31 14 9 14 21 39 55 58 57 57 58 62 68 76 90 90 87 88 88 79 65 44 42 43
100 100 100 100 100 96 86 84 82 78 74 66 63 66 68 64 52 41 38 17 8 12 14 14 15 24 56 93 100 100 100 100 100 100 96 87 80 70 50 29 35 36 33

GFSGL_500_rhum_039.txt.gz
RH
8 8 10 13 13 16 15 14 14 14 18 33 32 37 48 46 63 82 70 69 82 82 66 59 61 69 83 97 98 93 96 97 98 93 98 97 82 70 98 92 78 83 96
12 15 16 16 15 13 14 19 24 28 26 17 14 20 59 99 98 100 100 70 72 91 92 80 74 72 73 84 79 95 87 98 88 81 100 88 58 80 91 80 70 100 82
16 17 15 18 24 23 24 24 22 14 12 20 24 31 83 98 100 100 100 100 93 77 94 94 93 77 74 69 73 85 85 69 64 73 99 83 86 54 52 70 89 92 88
18 22 23 21 25 21 17 16 16 16 16 29 43 35 68 100 100 100 97 99 98 75 80 83 96 91 77 70 59 50 54 59 72 56 69 59 99 81 62 84 99 99 97
24 23 22 23 22 15 17 18 18 24 24 36 54 60 63 79 53 79 93 91 89 88 97 91 96 96 79 67 88 59 54 73 61 50 93 97 97 62 70 96 100 100 94
27 25 24 20 24 18 19 24 23 28 33 53 67 68 55 60 80 100 96 100 94 98 100 98 96 85 96 100 78 67 76 81 96 52 76 96 100 100 100 96 77 30 17
31 33 27 29 32 27 28 28 34 32 37 45 69 65 55 48 67 90 92 96 100 100 100 100 99 86 96 82 74 83 100 98 98 95 100 96 85 64 35 19 11 8 7
36 42 34 37 38 33 37 37 40 41 36 50 53 55 50 65 91 97 100 100 100 99 98 100 97 99 100 100 100 97 95 100 98 76 46 26 18 14 10 9 7 5 4
38 50 51 40 43 40 32 42 49 49 45 56 68 74 74 90 98 91 98 100 100 99 99 100 100 96 61 56 56 72 100 90 56 28 20 15 13 10 7 5 4 4 5
54 61 44 37 38 33 33 35 53 57 59 65 65 69 79 86 93 100 100 100 94 100 100 100 100 100 100 99 63 33 27 25 21 18 16 14 9 6 5 5 7 8 8
67 52 45 40 36 35 35 35 39 44 46 49 53 65 80 85 92 95 96 99 98 95 88 71 53 44 36 31 29 26 22 20 19 17 10 8 5 4 7 10 10 10 12
61 58 46 41 41 39 38 38 40 44 44 44 43 43 44 47 50 52 51 48 46 43 39 36 35 32 30 28 28 23 21 20 16 9 7 5 7 11 14 17 20 22 23
70 62 53 50 50 49 47 48 46 46 46 45 44 44 45 45 43 41 40 39 38 38 36 34 32 32 31 28 25 24 21 16 10 8 6 9 14 19 22 26 27 28 30
75 71 64 60 60 54 49 50 48 44 41 39 37 37 37 36 36 36 35 35 35 34 35 34 33 31 29 29 30 21 19 13 10 7 10 17 22 22 24 29 33 34 36
77 75 73 71 64 58 56 53 49 43 39 38 37 36 37 38 38 38 38 38 38 38 37 36 36 33 35 29 22 20 14 12 8 10 17 24 24 26 30 33 37 41 43
79 86 81 75 68 64 61 57 52 47 46 46 45 46 45 44 44 43 42 43 43 43 43 42 42 38 33 30 25 17 13 9 12 16 26 28 31 34 37 38 41 44 47
85 89 88 80 74 72 70 61 55 53 52 54 55 55 54 53 52 51 50 50 49 49 50 48 41 33 26 17 14 13 10 15 18 25 31 36 42 46 48 49 49 48 48
77 90 95 87 81 78 76 68 62 57 58 59 59 59 60 61 60 57 54 52 52 52 47 42 40 31 22 17 12 9 17 20 23 30 36 43 52 54 54 55 53 51 53
80 85 99 95 89 84 78 71 67 64 61 62 64 64 61 63 63 60 56 55 53 50 47 44 37 27 21 11 9 19 22 26 28 33 43 48 52 55 56 62 66 54 55
80 93 100 100 96 90 83 79 73 72 71 69 70 67 62 61 58 56 55 56 54 48 43 38 29 18 10 10 21 25 27 33 36 39 42 48 55 62 66 74 78 64 61
91 98 98 100 100 95 94 94 91 89 84 78 72 67 63 61 58 54 53 56 54 47 35 30 18 9 10 14 26 32 31 37 43 47 49 50 54 63 73 76 78 74 61
100 100 99 97 98 99 98 98 95 94 90 82 72 67 63 61 56 52 53 56 54 40 34 23 9 8 12 14 23 40 42 39 41 50 58 59 62 69 80 80 79 78 73
100 94 96 100 100 100 100 98 96 94 90 79 72 67 63 58 52 49 50 47 40 37 32 13 8 10 12 13 14 24 59 78 74 69 67 74 87 90 81 84 91 85 85
99 96 98 100 100 100 100 98 97 93 83 76 70 65 61 54 47 46 45 41 40 42 31 11 8 12 13 13 14 16 19 31 73 100 100 100 100 100 97 94 90 80 71
98 100 100 100 100 100 99 96 93 85 80 79 72 66 62 52 44 42 43 42 46 47 32 11 9 14 14 14 14 17 21 25 30 38 46 68 90 98 95 90 80 62 42
100 100 100 100 100 100 99 94 82 77 80 83 80 75 66 51 44 42 44 48 53 53 30 11 11 15 15 15 16 17 22 28 32 38 45 48 51 54 49 45 41 34 33

GFSGL_500_rhum_042.txt.gz
RH
11 10 10 7 6 8 14 11 10 10 12 15 14 12 17 13 12 18 31 43 54 84 100 100 99 99 100 100 99 81 64 69 78 98 98 97 98 97 97 96 90 84 89
10 7 5 8 13 13 11 12 13 8 10 10 13 14 15 15 23 39 41 43 68 70 71 100 100 100 100 100 98 97 79 64 73 87 91 98 98 98 84 99 100 95 88
6 9 15 16 14 13 12 13 12 11 13 15 15 16 19 26 28 42 42 46 100 99 100 100 100 100 100 100 100 100 99 92 84 84 90 82 76 96 88 100 73 62 72
18 18 18 18 18 19 17 21 14 13 15 19 17 22 18 16 12 18 31 47 64 97 97 96 96 97 100 100 99 100 100 96 83 79 75 66 54 45 87 78 65 63 67
23 22 23 24 19 20 20 24 21 21 20 21 22 25 20 20 20 21 28 45 66 78 98 90 82 86 88 91 97 100 100 98 86 82 83 91 68 92 99 97 100 98 96
27 25 25 26 25 26 27 27 26 28 28 29 28 26 28 31 32 34 54 66 73 84 81 93 100 88 97 98 88 88 79 96 100 86 100 80 68 100 100 99 90 64 44
24 25 25 27 34 34 32 31 32 30 34 34 33 32 34 39 42 43 49 66 85 94 86 84 98 96 94 100 100 100 96 99 96 97 97 97 100 97 65 34 30 19 16
16 23 38 42 42 45 36 28 27 26 36 43 43 48 46 44 53 58 69 77 77 98 96 99 99 100 99 100 100 99 96 91 91 92 93 78 52 45 30 21 18 12 9
20 33 46 48 50 43 36 30 28 29 29 29 34 41 50 54 61 64 71 79 87 89 88 98 100 97 98 100 100 92 96 100 79 37 21 19 19 19 20 18 12 8 5
23 37 64 61 48 41 34 33 31 30 30 32 35 38 38 39 41 44 55 67 73 84 98 97 92 95 91 86 68 42 32 28 28 26 20 19 20 21 18 11 6 5 7
29 49 63 61 52 42 40 37 34 34 34 37 38 36 36 37 37 36 35 35 36 36 38 40 38 37 36 33 31 31 31 30 28 26 26 23 21 15 10 7 6 10 16
41 54 64 62 52 49 47 44 40 37 37 36 35 35 35 34 32 32 33 34 35 36 36 36 36 35 34 34 33 32 31 31 32 27 22 20 18 15 9 8 13 20 22
52 59 69 70 60 57 54 49 44 41 38 36 31 31 32 32 32 32 33 33 34 34 35 35 35 36 37 38 38 38 37 35 31 28 24 19 14 10 10 16 22 23 27
62 62 70 74 70 65 59 53 50 47 42 36 34 34 35 35 35 36 38 39 39 40 40 41 41 42 43 44 44 39 32 27 22 19 17 11 9 12 17 25 25 28 32
66 68 69 74 74 72 65 59 57 52 48 43 40 40 43 44 45 47 47 48 48 48 47 46 46 45 43 41 38 35 28 24 22 19 9 11 17 18 27 31 31 33 37
69 70 74 73 77 80 73 65 63 56 51 49 47 48 50 51 51 50 50 51 51 49 46 45 44 43 42 38 32 22 10 9 11 9 15 19 22 25 32 38 43 46 47
67 72 69 74 81 86 85 74 69 64 57 54 55 54 55 56 54 51 50 53 52 48 44 44 42 40 36 28 24 10 9 7 8 12 20 23 27 30 38 46 52 55 55
69 68 67 71 78 85 93 90 78 72 65 63 64 66 65 65 62 58 54 54 50 46 42 40 37 36 29 26 19 13 7 8 10 17 25 28 33 36 43 48 55 59 62
69 75 76 79 79 88 100 100 95 85 84 82 81 83 79 70 63 57 54 52 47 42 38 36 34 31 30 25 15 8 8 10 11 16 30 34 39 45 48 49 51 57 60
78 89 84 84 83 98 100 100 100 98 97 92 88 87 83 73 65 58 55 51 44 38 35 32 32 33 34 24 14 9 10 11 12 16 29 43 45 54 63 64 64 63 71
93 97 95 91 93 99 96 97 100 100 98 92 88 84 82 73 63 58 53 48 40 35 33 34 36 37 39 26 14 10 12 13 13 14 18 28 76 85 78 75 76 78 72
100 100 100 100 96 94 98 100 100 100 100 96 90 84 77 69 64 59 55 48 40 36 36 38 40 42 41 25 15 12 14 13 14 17 22 26 34 84 100 100 100 100 95
100 100 100 100 100 98 98 100 100 100 100 99 90 78 71 71 70 66 60 50 42 43 44 45 48 50 40 23 13 13 15 15 16 19 25 30 37 43 48 58 76 86 87
100 100 100 100 98 96 100 100 100 100 100 96 80 70 72 72 72 70 66 57 55 56 53 56 59 56 38 16 12 14 16 16 18 22 28 30 32 36 38 40 41 40 38
100 100 100 100 98 98 100 100 100 100 98 90 82 79 75 74 76 76 72 68 64 56 58 65 65 55 31 12 12 14 16 17 19 23 28 36 46 54 60 66 70 69 65
100 100 100 98 99 100 100 100 100 100 93 88 88 86 81 81 82 78 73 65 62 63 70 76 64 51 20 13 14 14 16 18 21 25 24 22 23 25 24 25 26 26 25

GFSGL_500_rhum_045.txt.gz
RH
17 20 20 13 10 12 10 6 8 11 11 11 14 11 10 11 13 12 10 9 9 13 14 30 38 49 62 82 87 100 100 99 88 72 69 71 74 66 98 98 96 100 99
20 13 12 12 8 6 8 10 13 11 14 15 11 11 11 14 14 14 13 9 10 16 23 26 37 50 92 81 71 86 100 100 100 84 89 91 87 76 79 100 100 100 93
11 13 9 6 7 11 13 15 14 14 15 16 15 16 17 17 20 17 14 13 13 21 36 47 64 70 82 94 96 96 100 100 97 94 85 94 99 100 100 95 90 97 92
10 8 10 12 16 18 18 19 18 19 18 19 19 23 24 25 23 18 19 19 18 26 46 64 63 83 94 74 86 89 71 87 99 98 89 100 97 94 91 92 99 88 95
9 11 17 23 24 22 22 22 21 20 22 24 24 25 26 28 25 24 27 25 26 33 38 54 53 58 93 90 77 79 96 86 79 96 100 99 81 66 76 99 100 98 100
16 18 23 26 26 26 24 22 29 31 28 25 22 18 24 33 33 32 32 36 37 36 37 45 56 73 91 89 93 94 72 87 95 93 93 94 77 79 87 89 100 99 35
15 14 15 16 18 23 35 41 42 40 30 25 20 21 26 29 30 34 38 39 43 50 51 56 59 66 82 88 97 100 100 100 98 96 99 100 100 99 100 96 76 53 38
17 16 15 16 27 41 48 54 52 36 31 24 24 25 25 27 27 28 32 38 47 53 55 63 74 82 87 97 97 98 98 96 93 94 92 94 92 80 58 33 24 19 20
16 18 21 26 40 59 54 44 38 32 30 28 28 26 28 29 28 28 28 28 26 34 40 43 49 53 57 57 46 41 36 31 29 29 28 28 28 28 27 24 21 20 20
22 29 30 28 38 56 56 46 41 39 36 32 28 26 28 27 26 24 23 22 21 22 22 22 22 23 25 27 29 31 32 33 35 35 33 31 30 30 31 26 21 20 21
31 37 32 32 45 60 58 50 50 46 43 35 30 27 24 22 22 22 22 22 23 25 26 28 30 31 33 35 37 38 38 38 38 39 38 36 34 29 24 20 18 17 12
36 36 39 43 52 69 65 59 57 52 44 38 34 27 26 26 26 26 28 31 33 34 36 37 39 39 39 39 40 39 40 39 40 37 34 30 24 19 18 17 14 11 12
39 39 44 51 58 72 75 70 64 55 48 42 38 33 32 33 33 34 36 40 42 42 43 43 42 42 41 41 40 39 38 38 34 26 15 8 7 6 7 9 12 16 18
45 44 47 57 60 67 73 74 69 62 59 53 47 42 39 39 40 40 41 42 41 40 40 41 40 39 37 36 34 32 32 29 22 20 12 9 8 7 8 13 18 21 28
46 48 52 57 64 67 69 75 77 74 69 65 58 53 50 48 47 48 50 49 47 44 42 42 40 37 34 31 27 27 27 25 22 17 13 8 8 9 11 16 21 26 33
48 54 56 58 61 66 69 76 84 87 83 76 67 60 57 55 57 59 59 57 53 48 44 42 39 36 31 23 21 24 26 26 21 16 11 8 9 10 14 20 26 30 35
49 51 58 60 60 65 69 76 79 86 95 91 82 75 70 69 72 73 68 63 57 49 45 43 40 34 26 23 25 28 27 31 25 20 11 10 12 13 16 23 31 39 45
59 58 58 64 69 73 80 80 78 90 100 100 96 91 89 85 80 73 72 66 57 50 48 44 38 31 27 28 32 33 34 35 27 16 11 13 13 15 17 24 34 45 56
64 66 68 73 80 90 88 86 81 94 100 100 100 100 97 88 80 75 72 64 57 53 50 46 40 34 33 34 37 39 41 35 21 12 13 15 14 16 18 22 33 57 71
76 75 76 82 99 100 97 92 93 96 100 100 98 100 100 95 86 76 68 62 58 57 55 50 43 42 42 40 46 46 47 32 16 12 15 16 16 17 21 28 34 38 70
77 81 87 97 100 100 100 100 98 97 96 95 94 100 100 98 90 70 61 60 59 61 58 55 48 48 44 44 52 54 49 25 14 13 17 17 18 20 26 28 30 36 39
82 95 98 100 100 100 100 100 98 96 93 99 100 100 100 98 80 68 68 64 64 64 62 59 53 50 51 53 63 60 47 22 13 14 16 17 20 21 28 36 38 42 43
83 100 100 100 100 100 100 100 100 100 99 100 100 100 100 92 80 75 72 68 67 66 64 55 52 59 59 65 71 60 41 16 14 14 15 18 23 22 21 23 28 37 48
97 100 100 100 100 100 100 100 100 100 100 100 100 100 99 91 85 83 77 77 75 72 65 58 63 69 67 74 74 56 29 14 14 14 14 18 25 27 28 32 34 33 30
100 100 100 100 100 100 100 100 99 100 100 100 100 100 98 97 93 93 86 77 72 68 66 72 78 79 75 76 66 43 19 13 14 14 16 18 26 31 32 36 40 40 39
100 100 100 100 100 100 100 100 99 97 97 100 100 100 100 99 96 96 85 74 69 70 78 84 72 71 77 73 56 27 13 13 14 14 16 19 24 32 36 39 34 23 23

GFSGL_500_rhum_048.txt.gz
RH
12 10 9 9 12 16 19 19 12 11 10 6 8 12 13 13 12 12 12 13 14 16 14 11 12 13 18 19 33 51 71 76 84 60 67 96 84 97 87 91 98 100 98
11 12 13 16 20 17 12 12 9 6 10 14 14 15 15 16 14 15 19 20 21 19 16 15 17 16 20 24 31 55 65 67 79 86 64 100 100 97 100 96 99 99 100
15 17 20 18 14 14 10 8 10 14 17 17 19 19 18 18 19 20 19 19 24 21 21 20 21 23 21 22 38 54 58 66 98 100 100 89 100 100 100 100 100 100 97
20 18 15 14 12 8 11 14 18 21 21 20 17 18 20 22 20 19 15 22 25 25 26 28 28 31 28 27 37 52 77 78 89 96 85 88 82 97 99 99 100 95 97
15 14 12 9 8 11 19 23 23 23 24 22 26 29 26 24 18 15 19 28 33 28 30 33 33 37 41 34 37 58 76 89 73 82 64 69 65 71 87 94 99 94 72
13 10 9 11 17 19 19 19 20 22 25 35 37 36 30 26 18 18 22 24 22 22 24 36 41 41 44 53 59 62 67 69 73 67 70 73 66 78 85 92 91 92 90
13 16 16 13 12 12 12 12 14 24 34 46 50 34 29 23 23 22 22 24 23 23 21 32 45 40 33 39 54 59 62 75 84 81 82 82 77 78 78 80 96 90 75
15 15 16 13 13 13 15 16 21 34 50 46 35 32 29 26 23 22 25 26 24 21 20 18 16 15 16 16 17 19 21 22 23 24 25 25 27 30 31 28 27 28 28
20 19 15 15 16 17 18 23 42 55 46 39 37 36 34 29 27 28 25 22 20 18 16 16 17 19 22 25 27 30 32 33 34 34 34 34 35 35 35 34 33 34 34
23 22 20 18 19 19 22 32 54 58 49 46 46 43 36 32 29 26 22 19 19 20 23 25 27 29 30 33 34 35 35 34 35 35 35 33 34 34 33 31 28 21 13
24 26 24 22 20 23 35 53 63 61 57 57 52 44 38 34 28 26 25 26 28 29 32 33 33 32 33 34 34 33 32 32 29 29 29 30 30 25 19 14 10 8 8
28 32 29 25 25 37 46 48 65 67 67 60 54 48 44 38 34 33 34 35 35 37 36 34 34 34 34 35 34 31 29 29 24 20 22 25 24 22 16 14 13 9 9
31 35 37 32 31 45 48 47 60 62 64 63 61 58 52 47 44 40 42 42 41 41 44 43 42 40 38 36 34 32 29 22 16 17 19 22 22 23 16 14 11 9 9
37 40 40 40 40 40 43 51 57 55 62 68 71 69 66 57 53 51 49 49 52 54 55 52 48 43 40 37 34 32 25 18 20 21 24 25 26 24 21 16 10 9 12
44 42 46 47 42 42 47 52 59 61 64 71 80 82 79 74 63 60 62 66 69 67 62 57 50 44 40 38 36 31 25 24 24 26 29 30 31 26 21 13 11 13 14
50 48 50 50 48 47 49 56 66 66 66 71 76 86 97 93 83 84 87 85 75 67 63 56 49 45 42 42 38 34 29 27 30 31 39 43 34 25 14 12 14 15 16
48 53 53 52 53 53 58 62 72 77 79 78 73 81 100 100 100 98 94 82 72 66 59 54 51 48 47 47 44 36 33 34 38 42 49 47 32 20 12 15 16 16 18
59 60 63 63 63 62 65 69 78 89 85 81 77 83 99 100 99 99 95 88 77 65 58 54 53 53 51 51 45 40 39 45 48 55 56 44 27 14 14 17 17 20 21
74 70 71 72 72 73 74 75 85 98 94 89 87 89 92 90 91 93 97 92 84 66 58 58 56 56 54 53 47 44 48 54 55 62 58 39 17 14 15 17 20 20 21
94 92 90 87 88 84 84 86 96 100 97 97 95 89 89 95 96 96 99 96 84 66 62 58 60 61 60 56 49 50 63 62 58 67 54 27 13 13 14 17 22 21 20
100 100 95 100 98 87 88 95 100 100 100 99 99 91 94 91 91 94 97 98 79 72 70 66 68 68 66 62 59 63 77 72 64 66 47 18 12 13 13 16 23 25 26
99 99 99 96 84 78 96 99 99 98 100 99 98 94 98 97 97 97 100 98 85 83 83 80 73 67 64 62 66 81 72 62 68 60 34 12 13 14 14 16 23 28 31
60 63 68 75 81 88 100 100 100 100 100 100 99 99 96 96 100 100 100 100 92 88 92 90 77 70 66 67 73 73 59 69 68 50 18 13 15 15 15 18 23 30 33
54 63 74 86 97 100 100 100 100 100 100 100 100 100 96 92 94 99 100 100 96 95 98 88 82 81 77 68 55 44 66 74 64 31 14 16 20 21 19 20 26 33 36
64 69 82 100 100 100 100 100 100 100 100 100 100 100 100 96 98 100 100 100 100 99 95 94 90 84 59 41 34 64 82 77 46 16 15 18 22 24 24 24 27 32 38
99 100 100 100 100 100 100 100 99 98 98 100 100 100 100 100 100 100 100 100 100 100 100 97 89 46 28 29 66 86 86 61 19 15 14 17 21 25 28 28 33 38 42

GFSGL_500_rhum_051.txt.gz
RH
48 50 48 46 40 39 28 12 9 12 15 18 16 12 10 6 10 14 14 15 12 14 18 19 18 21 21 20 22 23 15 15 16 25 47 58 76 92 59 74 96 98 99
63 56 51 40 26 13 11 11 14 18 17 14 10 6 8 13 15 17 17 15 17 18 17 14 16 23 24 26 27 25 16 19 21 24 31 40 89 84 74 98 100 100 92
21 18 15 13 12 12 15 18 18 15 11 7 9 13 16 17 17 19 20 23 21 20 14 13 21 29 28 31 31 30 19 24 30 29 32 57 70 73 60 51 73 100 96
16 15 15 15 17 19 18 16 13 9 9 13 18 19 22 22 22 26 27 25 21 16 15 17 23 23 25 32 36 33 32 34 41 41 46 43 44 43 56 66 85 82 89
21 21 20 19 18 16 13 10 10 14 18 21 22 24 24 25 31 33 31 29 20 19 20 22 23 22 22 36 36 28 22 18 23 28 45 51 58 59 55 46 58 67 79
22 20 19 16 13 11 10 13 17 17 15 12 12 19 27 37 42 40 31 25 23 22 23 22 21 20 20 24 12 12 13 15 17 19 19 20 23 36 67 77 80 83 85
27 20 14 14 18 20 16 13 12 11 11 13 18 28 44 49 37 33 30 27 24 23 24 22 18 16 14 13 14 17 21 22 24 24 24 24 25 26 28 28 28 28 29
23 20 19 18 16 14 13 11 10 12 14 16 29 46 45 39 37 36 34 27 24 25 23 21 18 16 17 19 22 24 25 24 24 24 23 23 24 24 24 24 22 25 27
28 24 20 18 17 14 13 13 13 15 16 20 38 54 47 45 44 42 34 28 26 25 23 21 22 24 25 27 28 28 29 28 27 25 24 24 22 19 18 19 18 19 20
36 29 25 19 18 18 17 16 16 18 19 32 53 55 56 53 47 39 34 29 27 26 26 28 30 31 31 31 31 31 31 30 28 27 27 24 18 16 16 16 17 18 20
40 35 25 22 24 23 19 20 19 21 24 40 62 64 57 52 48 42 38 33 32 33 35 36 34 35 38 40 40 36 35 33 30 29 27 21 17 19 19 20 21 23 23
42 39 31 27 30 26 25 25 24 25 31 45 61 62 56 57 56 53 46 42 39 40 44 43 46 49 50 48 45 41 38 34 33 31 27 21 21 22 24 25 27 30 28
47 43 38 33 35 31 33 32 30 28 34 46 48 56 58 64 67 64 57 51 49 48 50 56 61 61 57 53 48 42 38 36 36 33 30 26 25 29 29 32 38 39 30
50 45 40 39 40 37 36 37 37 36 41 46 46 51 58 60 67 74 74 70 63 63 67 72 70 62 58 53 47 44 42 41 40 38 32 29 33 38 39 40 42 32 28
55 49 43 42 45 43 40 42 42 44 50 52 55 56 61 66 68 68 80 89 81 82 82 76 66 62 56 52 48 46 44 43 42 37 33 38 46 49 41 47 40 28 14
47 50 50 50 49 48 48 47 50 53 58 58 59 63 72 74 68 61 89 100 99 93 91 83 76 67 58 52 50 48 47 44 43 39 42 47 58 49 46 47 34 16 12
57 50 46 49 54 55 54 55 55 58 63 66 67 72 79 78 77 72 79 85 89 93 94 94 89 74 59 56 51 50 51 50 49 48 51 58 70 49 52 45 30 12 12
64 59 63 62 61 61 64 66 69 71 72 74 75 83 89 85 84 88 90 92 93 94 95 98 96 74 63 58 56 58 57 57 56 56 60 69 56 44 52 42 25 12 12
100 99 90 82 78 78 77 80 82 84 84 82 82 90 92 88 90 91 87 85 84 90 95 99 96 77 70 70 72 67 62 60 59 61 64 62 40 52 51 40 19 13 14
100 100 100 100 100 96 91 93 95 95 93 83 84 94 94 92 97 98 96 91 89 93 99 100 100 86 81 84 84 74 67 64 64 60 49 35 46 61 54 30 15 14 16
99 100 100 100 100 100 100 99 98 99 90 81 87 94 95 96 98 94 89 92 95 98 100 100 100 97 95 93 91 81 79 81 70 37 29 40 68 68 48 18 13 14 18
66 81 94 100 100 100 100 98 89 79 80 89 95 98 100 100 99 96 94 93 95 98 100 100 100 100 99 97 94 91 92 86 35 26 47 71 76 65 20 13 13 14 20
51 54 57 62 68 78 75 77 83 91 98 100 100 100 100 100 100 100 100 100 99 100 100 100 100 100 100 97 94 94 93 36 27 42 55 79 76 21 14 13 15 18 23
50 54 55 55 57 62 64 79 99 100 100 100 100 100 100 100 100 99 100 100 100 100 100 100 100 100 100 100 99 81 34 33 38 47 69 84 21 15 14 14 15 18 34
41 43 45 49 52 60 72 87 100 100 100 100 100 100 100 100 100 100 100 100 97 97 100 100 100 100 100 95 53 35 34 31 36 57 87 36 16 14 15 16 15 21 40
79 73 69 69 79 95 100 100 100 100 100 98 100 100 100 100 100 100 99 93 91 100 100 100 98 86 50 34 35 31 26 29 55 91 65 21 15 14 15 14 17 29 42

GFSGL_500_rhum_054.txt.gz
RH
70 55 43 38 37 33 38 44 44 41 40 37 21 11 14 17 14 10 8 10 15 16 18 18 19 20 20 15 16 23 27 26 29 28 22 23 21 28 20 30 37 48 86
78 69 54 52 49 49 48 48 49 47 29 13 13 17 16 12 8 9 13 14 17 19 22 22 24 22 16 15 20 25 21 26 33 29 27 14 14 26 35 33 39 54 60
86 72 67 64 64 63 57 43 25 15 12 15 18 16 10 10 13 17 18 20 20 21 25 26 26 20 18 20 24 23 21 32 31 21 10 11 12 13 18 35 46 40 50
62 78 75 69 48 25 18 15 13 15 18 17 14 10 14 15 18 20 24 24 26 30 32 31 26 21 20 20 22 22 26 32 14 12 13 13 13 14 15 16 26 53 61
52 35 26 22 19 18 18 18 18 18 16 12 12 14 16 18 15 15 18 30 39 46 34 29 25 22 21 22 20 18 23 12 13 16 16 16 16 16 16 18 23 24 29
80 76 34 32 26 21 20 19 17 13 14 17 18 14 11 12 12 16 32 45 43 33 30 28 25 23 23 20 18 15 14 14 19 21 21 20 20 19 18 18 16 16 18
75 77 76 29 22 23 20 15 15 18 18 14 12 10 12 13 19 35 44 41 38 36 34 29 25 24 20 18 17 18 20 22 24 24 24 23 21 20 21 19 16 16 15
42 38 34 28 23 19 20 20 17 16 13 12 13 14 13 18 34 45 47 46 44 41 34 29 26 22 20 21 25 27 27 26 26 26 26 26 26 25 24 20 18 18 18
70 43 37 25 24 23 21 19 17 15 15 16 15 14 17 27 42 48 49 48 42 36 31 28 26 26 28 30 31 29 30 33 34 33 32 31 29 26 25 22 19 20 20
68 48 40 33 29 30 24 24 21 19 18 17 18 19 25 34 43 47 47 44 41 37 34 32 32 33 36 37 35 40 42 44 42 39 37 34 32 29 27 25 23 23 25
66 56 47 43 40 31 28 27 23 20 20 22 22 23 26 34 40 41 46 53 54 48 42 38 38 40 42 44 50 55 54 51 47 42 38 37 35 33 31 28 26 29 32
78 62 52 60 43 36 34 28 24 25 27 27 29 30 32 35 36 44 47 57 63 65 59 51 50 50 52 57 64 61 56 53 48 45 43 40 37 36 33 30 34 39 42
83 66 54 56 49 44 40 33 31 30 31 33 37 37 40 36 41 48 51 53 58 64 77 77 66 66 70 74 70 62 58 53 50 48 45 42 41 39 36 40 43 43 44
92 80 60 60 54 47 47 41 36 37 38 42 44 48 47 49 53 60 62 66 66 59 71 100 97 92 88 81 73 69 64 56 52 46 45 47 47 46 45 47 47 47 40
80 70 57 64 62 58 50 45 45 46 48 48 51 53 54 56 61 67 73 74 68 57 60 88 97 100 99 94 90 85 71 60 53 48 49 51 53 53 53 49 46 41 28
92 81 61 55 60 62 56 54 53 55 55 56 59 58 60 66 70 74 82 80 74 73 78 83 85 90 98 100 99 96 78 64 58 62 59 56 57 56 55 55 40 24 35
96 84 69 60 56 50 52 59 60 61 60 62 65 68 73 76 78 80 88 86 82 80 79 80 82 87 96 100 100 99 86 72 74 74 75 66 63 64 68 55 26 25 53
90 96 96 83 74 66 66 68 68 68 71 75 77 81 84 84 84 87 92 89 86 86 92 88 88 92 97 100 100 100 97 88 84 83 79 74 73 77 66 31 26 44 58
100 100 100 95 98 100 99 93 86 89 96 96 93 92 96 95 91 87 92 94 91 90 96 91 92 96 98 100 100 100 100 99 97 89 83 80 79 77 33 29 42 54 64
54 67 83 98 99 100 99 100 100 100 100 100 100 99 100 98 82 86 100 100 99 100 99 97 97 100 100 100 96 97 99 98 95 94 95 90 80 34 35 43 57 74 56
48 47 52 77 96 100 100 100 99 97 100 100 100 98 85 84 87 98 100 100 100 100 100 100 100 99 97 96 99 100 100 98 99 100 99 81 35 35 37 54 70 63 19
49 48 45 44 51 71 85 95 97 100 100 100 100 97 94 100 100 99 99 100 100 100 100 100 91 88 90 92 96 100 100 100 99 92 58 34 30 30 37 64 70 22 16
24 36 48 52 50 47 50 60 70 76 80 93 100 100 100 100 100 100 100 100 100 100 100 91 94 92 89 97 100 98 99 93 57 35 34 30 31 40 62 81 34 17 16
23 25 25 30 44 53 55 56 58 61 72 87 94 100 100 100 100 100 100 100 100 100 98 100 100 99 98 71 54 51 38 35 36 34 28 28 33 64 88 54 19 17 16
37 43 42 37 38 45 51 54 59 68 79 98 100 100 100 100 100 100 100 100 100 99 100 94 65 26 23 27 28 30 29 28 27 27 28 30 53 90 78 25 18 17 16
85 87 88 86 82 80 87 86 94 99 100 100 100 100 100 100 100 100 98 90 94 88 46 17 13 14 17 23 26 27 32 29 26 26 28 34 75 89 37 18 16 15 15

GFSGL_500_rhum_057.txt.gz
RH
49 54 53 55 56 57 58 56 49 38 29 27 31 33 40 44 34 14 16 17 11 9 14 16 17 17 20 21 24 24 19 16 16 19 20 28 30 22 9 8 8 9 12
52 55 55 53 53 56 57 52 44 41 43 43 46 47 49 23 13 16 17 10 12 18 19 20 20 22 25 28 27 26 19 17 18 20 23 32 23 11 10 10 10 10 10
61 58 59 64 67 67 67 61 56 54 53 55 52 26 15 15 17 17 12 16 19 22 22 24 26 32 35 33 33 24 20 18 19 20 31 16 12 13 12 12 14 13 12
71 71 80 82 82 87 82 73 68 65 58 29 17 15 17 18 17 14 19 20 18 16 19 30 39 47 42 34 26 22 20 20 18 21 15 13 16 15 14 17 16 15 14
61 61 65 68 69 71 71 67 58 36 20 19 19 19 20 16 17 21 18 13 13 17 31 38 39 35 33 30 25 23 22 18 15 14 15 18 20 20 19 20 19 20 18
76 77 71 56 68 47 33 28 24 23 23 23 21 18 17 19 20 14 13 13 17 30 42 45 44 41 36 30 25 23 20 17 17 20 22 24 24 23 23 23 23 23 20
90 88 75 84 79 81 78 82 78 73 44 21 18 19 20 15 14 15 14 12 17 32 40 43 43 38 32 27 24 21 20 22 24 26 27 27 27 27 26 26 25 22 21
86 76 76 76 78 84 75 75 33 25 22 24 20 18 17 16 15 13 14 21 31 38 40 38 34 32 28 26 25 25 27 30 33 32 33 36 38 35 33 31 29 26 24
95 91 82 48 54 56 81 40 26 24 22 20 19 18 17 17 15 16 23 32 35 33 36 39 39 37 33 31 32 33 35 36 38 42 47 48 46 42 38 36 34 30 27
98 99 96 89 96 70 58 36 28 24 23 23 22 20 19 18 18 23 30 33 32 35 39 43 47 49 44 41 38 39 41 43 48 56 55 51 48 44 43 40 35 32 30
100 100 100 100 77 58 48 43 40 32 26 26 26 24 21 21 26 29 32 33 33 37 41 43 49 51 58 59 51 50 52 56 63 63 56 53 49 47 43 37 34 34 34
100 100 99 99 99 90 57 50 88 47 38 33 31 27 26 27 32 33 37 41 48 50 54 56 60 55 53 70 79 72 75 82 79 70 66 61 55 50 41 39 38 39 40
99 99 100 98 86 67 74 85 54 48 48 44 38 37 36 34 38 41 46 54 58 59 63 63 61 56 47 64 91 92 92 93 95 91 87 77 64 51 49 47 46 49 49
99 100 100 99 98 94 75 66 60 59 55 50 45 44 42 46 47 52 58 62 67 69 72 73 69 66 66 69 83 85 85 92 98 99 100 94 79 68 67 63 62 61 62
100 100 100 100 100 80 72 71 73 72 68 64 57 51 52 53 56 62 65 70 72 74 76 81 79 77 76 78 80 82 87 90 95 98 96 95 94 87 79 73 68 65 68
100 100 100 99 99 88 76 81 79 80 79 70 64 60 58 60 64 74 76 78 79 78 83 87 85 86 89 89 86 85 89 90 94 99 97 99 100 98 97 86 76 75 78
100 100 100 100 97 97 88 72 68 69 71 68 64 65 66 71 82 92 92 89 88 84 85 92 98 97 100 96 89 86 88 93 99 99 100 100 100 97 94 94 90 89 72
100 100 100 100 100 100 100 97 86 74 72 70 71 75 79 93 98 98 96 95 91 86 89 96 98 100 100 99 95 92 88 88 95 99 100 100 99 100 98 91 90 70 35
72 80 84 97 100 100 100 100 100 100 100 100 100 100 100 100 100 100 98 98 92 84 92 98 100 100 100 100 96 90 84 84 87 91 99 100 100 97 92 83 49 33 32
49 49 49 48 51 63 81 95 100 100 100 100 100 100 100 100 100 100 99 96 91 94 100 100 100 100 100 100 100 90 82 81 87 99 100 100 85 74 46 35 35 31 30
46 47 47 48 48 49 51 63 82 96 100 100 100 98 100 100 100 100 100 100 100 100 100 100 100 100 100 100 93 91 97 98 100 92 53 32 32 31 32 29 27 28 32
35 40 42 47 48 50 49 48 51 61 75 90 97 99 99 100 100 100 100 100 100 100 100 100 100 98 96 100 97 100 99 63 24 20 24 26 28 28 26 26 27 30 51
16 16 17 18 20 24 34 51 58 59 61 64 67 71 80 92 100 100 100 100 100 100 100 100 100 97 95 98 99 49 17 16 18 24 26 28 30 31 25 25 28 38 82
22 21 20 20 20 19 23 26 30 43 59 64 69 74 79 84 100 100 100 100 100 100 100 98 99 100 100 58 14 13 14 17 20 23 23 34 38 36 22 23 31 75 88
23 23 26 35 41 43 43 46 49 45 45 54 61 66 78 93 100 100 100 100 100 100 100 100 98 50 15 14 16 19 19 18 20 22 24 36 33 21 20 23 53 83 45
48 50 56 64 71 74 75 81 92 97 94 98 99 92 99 100 100 100 100 100 100 100 100 62 16 18 23 32 33 30 34 34 29 27 28 29 22 24 23 44 86 46 16

GFSGL_500_rhum_060.txt.gz
RH
66 59 62 65 64 56 55 58 63 67 65 64 61 51 37 31 32 38 38 42 45 15 15 17 11 12 16 18 20 21 23 27 29 28 27 20 18 20 26 30 12 11 10
86 76 66 64 64 64 56 51 53 59 64 64 58 46 40 44 46 50 52 25 14 16 18 12 15 19 20 21 22 28 34 38 36 34 23 19 20 23 31 16 13 12 12
82 87 88 71 68 65 58 57 55 55 57 65 65 59 56 56 59 47 20 16 18 19 14 18 18 18 14 18 28 36 40 36 29 24 21 20 19 28 13 14 17 15 16
55 60 63 69 70 66 61 60 58 61 66 75 76 74 68 68 43 19 18 19 20 15 17 17 12 12 21 32 37 39 39 33 26 23 21 18 16 14 15 19 20 19 19
64 65 70 75 70 66 63 65 66 67 70 66 71 72 67 40 21 20 20 19 15 20 15 13 16 26 31 31 40 39 36 28 23 21 18 17 18 21 23 24 23 22 23
67 70 76 76 73 68 62 64 66 54 44 38 32 28 25 24 27 28 27 22 22 16 16 17 18 21 27 32 33 31 28 24 22 20 21 24 28 28 27 27 29 29 30
73 74 74 91 88 71 68 75 65 54 68 58 58 46 59 54 57 28 25 21 19 17 15 22 23 29 30 30 29 27 25 24 24 25 28 31 32 32 36 39 40 39 36
93 82 83 84 85 98 92 87 83 86 88 82 84 82 67 45 32 27 27 21 18 17 24 26 27 29 30 35 37 36 31 29 30 30 34 35 39 44 49 50 47 45 41
100 98 89 94 95 95 86 78 89 85 87 82 41 35 37 33 31 31 24 20 18 27 28 28 28 26 28 31 36 39 43 42 39 38 39 42 49 56 58 52 48 45 44
100 98 99 100 97 97 94 75 69 75 66 65 53 41 40 42 37 28 24 24 31 31 30 31 35 40 42 45 49 43 39 46 58 53 52 54 63 69 63 58 56 53 48
91 73 72 95 100 100 100 97 98 96 82 62 56 56 53 39 34 33 33 35 32 31 34 42 47 50 53 55 52 45 39 36 73 80 77 78 80 80 80 78 77 74 54
96 70 69 92 100 100 100 100 100 88 76 74 76 77 56 47 45 42 41 39 36 34 44 51 56 59 62 65 60 55 50 45 53 73 80 81 84 88 90 90 88 81 69
99 100 100 98 100 100 100 100 100 100 92 99 98 69 60 58 54 50 46 44 43 44 51 55 61 65 68 68 66 62 64 67 68 70 75 80 84 91 96 97 94 89 84
99 85 99 99 100 100 99 98 100 100 100 100 86 77 71 66 60 58 53 51 50 52 56 63 68 68 68 70 70 70 76 81 80 77 76 78 83 87 93 96 95 93 94
92 98 100 100 100 100 100 100 100 100 100 98 89 82 82 75 69 68 63 61 62 61 70 78 75 76 74 73 71 74 79 80 82 78 74 79 83 88 94 93 91 92 92
99 100 100 100 100 100 99 99 98 98 97 98 94 88 87 89 82 73 70 69 71 76 88 90 82 82 81 79 75 78 86 85 84 83 85 85 85 88 90 90 95 98 100
94 91 100 100 100 100 100 100 100 96 85 80 82 91 94 94 82 74 73 76 82 94 96 92 91 92 88 80 83 87 90 94 96 94 86 75 73 85 90 92 97 99 84
99 98 100 100 100 96 95 100 100 100 100 97 94 90 89 88 89 92 96 100 100 100 100 99 96 91 87 92 93 95 98 100 98 92 92 87 83 90 97 95 77 33 24
54 69 89 100 100 95 93 100 100 100 100 100 100 100 100 100 100 100 100 100 100 100 99 96 94 95 99 98 98 99 100 93 87 94 91 94 97 82 49 22 21 22 24
53 52 52 52 53 53 55 61 68 81 90 95 100 100 100 100 100 100 100 100 100 100 98 100 99 100 99 98 96 96 90 89 92 96 99 72 22 15 18 23 23 27 32
48 50 51 51 50 50 50 51 51 51 55 65 81 98 100 100 100 100 100 100 100 100 100 100 100 100 99 98 98 96 99 99 98 98 40 12 13 19 21 20 21 27 36
36 36 36 37 35 37 39 42 46 50 52 53 56 56 58 77 98 100 100 100 100 100 100 100 100 99 100 99 97 100 100 100 82 19 13 17 21 22 26 26 25 25 30
27 23 18 17 16 16 17 18 17 17 20 23 29 43 55 60 69 73 81 90 100 100 100 100 100 100 100 99 100 100 93 38 14 20 25 30 35 36 34 29 28 28 26
19 20 21 22 22 25 24 20 18 18 19 23 28 32 32 34 49 64 72 79 94 100 100 100 100 100 100 100 100 68 17 23 32 33 30 27 28 32 30 30 28 24 23
24 26 28 28 25 26 29 36 42 48 55 60 67 74 74 65 64 70 72 78 96 100 100 100 100 100 100 99 30 23 29 29 25 18 18 23 29 31 30 27 23 22 23
39 36 36 36 38 43 46 50 59 48 42 33 35 59 94 100 100 100 100 100 100 100 100 100 100 100 72 26 25 24 21 18 18 21 28 34 34 30 24 20 22 24 27

GFSGL_500_rhum_063.txt.gz
RH
96 98 94 96 97 93 89 84 81 75 68 61 63 63 64 66 68 67 57 46 41 40 42 47 48 22 14 17 14 15 19 18 18 20 31 37 38 34 25 21 20 24 29
89 87 82 89 95 86 81 80 80 79 76 69 63 63 63 68 69 68 58 47 45 50 52 52 24 16 18 16 18 16 15 12 16 30 36 36 32 26 21 20 24 21 13
84 98 100 100 100 96 94 91 92 84 77 70 64 62 64 65 69 73 67 61 61 64 52 21 18 19 18 18 16 11 14 21 31 39 40 35 26 20 18 17 16 13 16
48 57 61 63 67 75 74 70 70 69 70 66 63 60 56 54 58 59 72 71 70 66 27 20 21 21 26 16 12 15 17 26 29 34 32 27 20 18 16 15 16 19 21
27 27 32 42 55 59 61 64 69 69 64 62 61 62 59 56 63 67 71 73 56 26 21 23 27 30 16 16 13 21 27 28 28 26 23 21 19 18 20 22 24 26 27
41 43 45 46 54 59 62 57 61 70 70 69 72 61 60 52 49 44 37 29 27 26 28 34 30 21 24 19 25 28 26 27 25 24 23 24 24 24 26 28 29 31 37
68 67 66 67 67 67 66 68 76 76 75 64 67 70 86 73 58 40 40 41 43 44 38 39 24 27 24 30 27 27 29 30 32 32 30 30 32 30 30 32 35 41 48
72 72 74 74 83 83 79 75 84 78 71 78 72 81 89 86 83 84 90 87 85 65 46 34 26 30 33 28 26 28 30 34 36 33 37 43 41 38 38 41 47 53 58
94 90 91 92 93 95 99 93 88 89 90 86 82 86 82 86 83 79 51 46 46 58 45 32 34 41 32 30 34 40 43 45 42 37 34 38 49 53 52 53 60 68 69
100 100 100 95 89 90 94 99 94 95 98 83 82 96 93 98 89 75 74 78 58 48 43 44 46 40 33 38 48 48 51 46 43 40 40 36 43 62 73 76 78 81 85
97 97 94 92 92 81 77 98 100 96 98 99 97 93 89 97 91 81 72 64 56 50 50 48 45 38 42 52 54 54 55 52 50 45 44 48 50 57 65 71 75 78 85
82 88 92 97 92 83 81 98 100 100 100 99 100 99 96 83 80 80 90 82 57 53 54 49 42 41 50 53 57 56 54 56 53 46 49 55 60 62 64 66 68 70 76
80 76 91 96 100 81 95 100 100 100 99 98 100 100 100 100 100 98 85 70 63 61 57 55 51 52 55 61 63 60 61 59 59 55 51 55 66 71 73 71 68 72 76
67 70 94 100 90 98 100 100 100 100 100 100 100 99 100 99 97 100 89 81 71 67 64 60 58 59 62 77 85 71 69 68 67 64 59 67 76 76 75 76 77 78 79
76 66 76 93 98 98 100 100 100 100 100 98 99 100 100 100 99 99 95 84 76 74 72 69 63 61 72 83 85 79 80 79 76 66 73 82 85 86 82 78 74 68 71
98 100 89 85 100 100 100 100 100 100 100 100 100 100 100 100 100 100 98 97 94 87 77 71 70 75 85 94 90 89 89 84 72 77 86 91 91 86 87 87 81 80 82
100 100 92 98 100 100 98 99 100 100 100 100 100 100 100 100 100 100 100 100 100 96 91 86 95 100 99 99 99 92 87 82 86 86 93 90 87 86 88 87 86 86 61
80 76 98 100 100 96 100 100 100 97 100 100 100 100 100 100 100 100 100 100 100 100 100 100 100 100 100 100 96 92 91 90 88 92 92 86 88 93 96 94 83 22 14
62 62 61 72 92 100 100 100 100 99 99 100 100 100 100 100 100 100 99 99 99 100 100 100 100 99 99 100 99 97 98 96 92 91 93 97 98 100 100 81 14 17 24
59 54 53 54 56 73 94 90 76 73 82 94 100 100 100 100 100 100 100 100 100 100 100 100 100 100 100 100 100 100 100 100 94 92 95 94 97 100 68 14 20 28 29
45 50 54 56 57 56 55 55 54 53 54 55 56 56 54 57 65 74 87 100 100 100 100 100 100 100 100 100 100 100 100 98 95 100 99 95 95 29 18 31 32 32 32
40 38 37 40 41 43 43 43 43 43 43 40 37 36 33 36 41 51 60 68 70 73 80 90 96 99 100 100 100 100 100 99 100 100 100 67 19 31 33 30 25 19 21
31 36 40 41 40 36 33 27 20 17 19 20 21 20 19 18 19 21 27 31 34 43 60 72 75 87 96 100 100 100 100 100 100 99 34 24 28 27 22 19 20 26 34
36 40 36 30 25 20 19 19 21 24 25 22 23 28 34 39 46 52 61 73 78 71 65 70 80 96 99 100 100 100 100 100 92 34 25 24 21 18 19 30 42 43 38
36 33 29 23 22 24 24 27 27 26 27 32 43 45 44 44 37 35 40 73 93 100 100 100 100 100 100 100 100 100 100 93 41 24 18 17 26 50 62 58 50 37 22
41 38 35 31 32 35 35 34 34 36 41 44 46 43 45 52 52 51 40 39 42 84 100 100 100 100 100 100 100 100 78 30 16 17 30 55 70 70 62 54 40 20 16

GFSGL_500_rhum_066.txt.gz
RH
96 95 97 93 98 96 96 95 99 99 98 96 93 86 83 77 72 63 64 64 69 71 70 65 52 48 48 54 54 23 17 17 16 16 13 15 14 24 32 33 31 21 18
72 70 65 91 91 96 98 100 98 97 99 98 98 96 91 86 78 72 71 66 65 67 68 69 64 59 64 64 33 19 19 18 18 14 19 16 21 23 31 29 22 18 16
38 56 64 73 97 98 94 95 98 97 99 99 98 97 87 79 74 68 64 61 56 53 53 60 69 72 69 62 21 22 22 19 16 20 17 24 25 28 27 22 18 16 15
18 17 21 32 57 81 86 85 96 96 95 93 94 94 78 70 66 63 61 59 56 53 56 60 70 79 73 34 22 23 22 20 18 19 23 25 24 22 21 19 18 18 20
27 27 32 27 25 28 39 49 54 60 77 73 69 74 71 72 71 67 61 62 63 68 67 70 66 49 31 30 30 29 27 21 22 24 23 25 23 23 23 23 23 22 26
44 34 34 38 44 45 43 42 41 42 52 56 62 52 48 58 71 72 69 66 56 44 43 39 34 36 36 43 36 34 24 24 26 27 25 25 27 28 28 27 27 28 33
61 57 51 49 56 63 63 64 64 66 67 69 67 69 67 71 73 70 84 89 82 65 43 44 46 55 59 74 64 36 33 27 29 28 32 32 33 30 30 32 35 35 37
56 60 63 70 72 74 72 71 73 78 78 73 77 72 76 75 76 73 79 93 97 92 99 96 99 96 87 55 53 46 33 32 34 37 39 34 35 33 31 28 31 40 50
59 60 68 78 79 78 78 77 82 84 84 88 90 86 92 92 86 86 84 84 92 98 93 80 78 85 59 58 55 47 37 38 47 45 41 38 37 35 34 34 34 39 51
56 63 76 89 91 91 89 87 89 84 90 94 100 100 98 96 95 99 98 96 91 90 93 96 97 66 64 60 57 48 42 48 52 54 47 48 46 41 38 40 43 49 54
54 57 65 71 79 81 83 86 88 87 94 98 100 100 98 100 99 95 93 100 100 99 100 91 72 72 66 66 58 47 52 57 59 56 55 57 55 51 45 46 53 57 64
53 55 57 70 79 79 81 95 94 82 90 100 100 100 100 100 100 97 98 99 100 100 98 91 87 78 73 67 58 52 54 61 67 79 66 64 63 59 55 53 57 60 65
54 63 67 72 79 75 88 93 98 91 91 100 100 100 100 100 100 99 96 96 100 100 99 100 90 79 71 66 60 60 63 77 90 84 76 72 72 69 68 64 66 73 75
49 56 65 72 71 80 96 91 83 96 100 100 99 100 99 98 94 98 100 100 100 100 100 100 100 95 87 77 75 74 72 81 93 96 84 86 82 76 69 77 79 82 81
92 88 89 85 77 71 85 100 91 96 100 100 100 100 100 99 99 100 100 100 100 100 100 100 100 99 99 98 94 86 87 98 100 97 94 90 83 80 83 82 82 84 88
100 100 94 90 89 96 90 97 97 97 100 99 100 100 100 100 100 100 100 100 100 100 100 100 100 100 100 100 100 100 100 100 100 98 90 86 86 86 85 82 80 83 88
78 81 90 100 100 98 89 82 93 98 100 100 100 100 100 100 100 100 100 100 100 100 100 100 100 100 100 100 100 100 100 100 99 96 92 88 89 87 84 86 89 92 91
77 75 68 88 94 98 100 97 97 100 100 97 99 100 100 100 100 100 100 100 99 97 100 100 100 100 100 100 100 100 100 100 100 99 93 94 92 94 92 91 87 83 84
69 70 75 75 69 70 74 96 100 97 100 100 98 99 92 94 100 100 100 100 100 100 100 100 100 100 100 100 100 100 100 100 100 100 97 99 94 93 93 93 92 85 87
65 71 69 66 64 60 59 58 73 97 100 100 100 96 86 88 97 99 95 94 94 95 94 99 100 100 100 100 100 100 100 100 100 99 99 100 98 94 91 93 95 68 22
52 55 53 55 60 59 58 58 58 63 93 89 68 57 53 53 54 54 53 53 53 53 53 56 63 68 74 93 100 100 100 100 100 100 100 100 100 99 96 97 54 27 28
48 49 44 45 45 41 43 48 56 58 58 56 52 49 42 37 30 23 20 19 18 19 20 23 29 37 42 50 66 79 85 95 98 100 100 100 100 100 99 70 34 25 23
30 56 40 32 36 42 41 40 43 45 43 41 33 21 18 22 25 22 19 22 30 37 40 44 53 67 85 95 83 75 83 98 100 100 100 100 100 100 82 34 22 18 33
47 59 37 28 34 40 41 44 43 37 26 19 19 22 27 24 23 25 29 32 35 38 41 42 43 45 64 92 100 100 100 100 100 100 100 100 100 84 25 17 30 60 70
78 52 36 37 46 52 41 31 25 22 22 24 27 27 25 26 30 33 27 27 34 42 51 50 41 39 52 95 100 100 100 100 100 100 100 100 54 19 27 57 74 71 52
100 78 53 55 46 38 32 28 28 31 34 32 29 30 33 30 23 16 14 15 16 27 38 34 36 77 100 100 100 100 100 100 100 100 75 26 31 60 75 76 62 45 50

GFSGL_500_rhum_069.txt.gz
RH
81 87 89 99 97 98 100 99 100 99 95 96 96 95 100 100 98 96 89 86 83 77 72 68 65 65 69 67 69 65 62 62 59 43 26 20 16 14 20 11 16 21 28
32 37 40 55 86 85 95 88 99 96 97 96 98 98 98 96 94 96 94 92 92 84 73 67 64 61 59 61 66 69 63 67 63 33 23 20 15 28 16 15 20 24 22
15 16 21 28 36 58 77 86 74 98 97 97 91 96 96 96 96 93 95 94 89 81 69 63 60 56 54 52 58 69 75 81 48 27 29 20 18 18 17 20 21 21 20
20 19 18 16 15 16 22 34 37 39 61 82 82 84 90 81 88 90 88 90 91 84 78 70 60 58 59 59 69 82 82 54 31 34 32 28 20 20 22 22 21 21 21
19 21 22 22 24 22 20 23 26 28 30 34 38 40 45 53 50 53 63 68 68 72 67 64 63 63 64 64 66 51 38 39 46 41 40 33 25 26 26 25 23 25 24
46 44 42 41 42 38 28 31 36 41 44 44 41 41 42 45 55 67 63 55 52 69 72 73 73 46 43 43 44 51 69 64 48 52 43 35 29 29 31 30 28 26 24
57 52 47 52 66 67 61 50 49 47 50 55 56 57 60 60 58 62 69 69 70 77 79 96 92 88 61 56 61 65 66 74 75 52 57 38 31 38 38 36 31 29 27
52 48 42 41 54 63 63 63 65 63 67 72 72 68 64 71 75 67 72 70 75 74 82 92 94 99 95 97 99 98 98 64 72 65 42 38 42 43 41 41 34 32 33
49 45 44 46 56 58 59 67 75 76 72 69 65 66 62 66 78 96 98 97 97 95 93 87 88 100 100 99 100 97 69 86 76 52 43 50 53 51 52 51 47 42 39
43 41 40 51 60 68 74 81 88 86 81 78 78 75 77 79 83 93 92 100 100 99 99 100 97 98 100 100 100 83 79 91 68 53 52 59 61 60 61 62 59 55 49
48 49 50 54 58 60 71 75 71 74 77 79 85 86 92 85 98 98 100 100 100 99 100 100 99 99 100 100 98 100 97 79 72 61 61 64 68 82 76 70 66 64 62
49 46 48 51 54 58 59 61 73 78 76 88 96 88 91 100 100 99 100 100 100 100 99 99 100 100 100 100 100 100 91 84 74 68 64 72 90 99 88 87 75 73 74
48 49 50 50 55 60 64 69 80 80 89 88 90 85 92 96 99 95 100 100 100 98 98 99 100 100 100 100 100 100 99 92 89 80 82 91 99 100 100 92 82 78 73
71 64 61 60 50 59 66 72 76 82 95 96 87 95 92 100 100 100 100 100 99 100 100 100 100 98 98 99 99 99 99 100 99 100 100 99 100 100 99 92 81 78 76
75 87 97 98 97 92 89 89 75 72 97 95 92 92 84 91 98 100 100 100 100 100 100 100 99 99 99 100 100 100 100 100 100 100 100 100 100 98 95 90 78 78 80
76 74 78 98 100 100 100 97 86 99 98 99 97 89 88 91 100 100 100 100 100 100 100 100 100 100 100 100 100 100 100 100 100 100 100 100 100 98 99 93 80 78 82
70 78 77 71 93 92 100 100 100 99 100 99 100 94 97 89 94 100 100 100 100 100 100 100 98 98 97 90 95 100 100 100 100 100 100 100 100 100 100 99 88 89 85
64 72 73 88 84 72 80 99 100 100 100 98 100 97 97 92 90 97 100 100 100 100 100 100 100 100 100 100 98 98 98 100 100 100 100 100 100 99 98 97 90 95 88
44 54 65 74 82 95 86 74 68 84 92 100 100 100 97 96 98 99 99 100 100 99 95 94 90 93 97 96 93 90 98 100 100 100 100 100 100 100 100 100 100 100 100
22 20 45 56 70 76 79 85 77 68 70 72 99 100 100 100 100 99 96 94 87 83 76 72 66 60 59 61 61 65 77 86 98 100 100 100 100 100 100 100 100 100 100
27 22 16 26 54 61 72 71 69 66 65 64 78 97 100 98 80 70 62 58 56 54 50 39 27 21 20 20 22 32 40 43 46 50 64 87 94 100 100 100 100 100 100
25 22 19 15 22 52 52 51 51 54 56 61 64 64 70 76 72 65 54 45 28 21 22 21 21 26 30 34 38 39 40 46 58 89 98 92 96 98 100 100 100 100 100
27 23 19 17 15 30 52 46 46 52 50 48 52 55 54 53 51 40 23 21 25 24 27 26 28 35 37 44 47 46 44 42 50 85 96 99 100 100 100 100 100 100 100
29 22 20 18 16 16 48 49 38 44 51 59 60 52 44 37 24 22 26 26 30 30 28 26 24 22 20 30 45 50 37 49 72 99 100 100 100 100 100 100 100 100 44
38 23 24 32 24 19 43 48 33 42 57 64 52 45 27 24 28 30 28 30 32 21 14 12 11 12 18 21 23 30 59 83 98 100 100 100 100 100 100 99 69 48 75
83 100 100 100 100 62 57 38 44 55 48 36 30 29 35 41 36 35 30 20 13 11 11 12 15 18 22 26 44 76 84 92 100 100 100 100 100 99 87 84 88 85 81

GFSGL_500_rhum_072.txt.gz
RH
21 28 38 44 53 72 83 98 100 98 98 96 98 98 98 93 87 87 95 91 88 84 91 96 91 84 78 75 72 69 68 64 61 66 62 59 73 63 39 25 18 25 18
9 11 13 17 28 59 72 93 99 99 96 98 98 97 97 97 98 100 95 97 97 98 96 97 97 92 84 81 76 65 62 60 60 63 63 66 80 62 34 26 24 19 22
13 13 13 13 14 15 21 25 30 36 46 65 87 92 88 94 99 92 89 93 95 94 93 95 93 88 80 76 74 75 66 64 66 73 89 85 79 41 35 30 23 26 24
20 22 23 23 22 20 18 17 16 15 15 16 22 34 47 59 60 64 71 62 59 62 61 57 64 71 67 70 70 71 69 74 86 90 90 76 61 47 40 32 32 28 25
23 20 19 18 18 18 18 18 18 18 17 18 18 19 21 24 24 26 29 30 38 43 52 62 66 67 70 71 67 61 58 56 56 49 51 58 65 54 49 36 38 30 28
19 18 21 32 34 34 35 35 35 35 36 38 32 32 32 33 35 33 35 32 36 39 42 56 58 55 58 81 82 79 63 49 52 58 86 96 79 64 46 58 36 34 33
28 29 41 39 40 49 45 36 38 50 64 64 60 48 43 40 40 42 43 48 47 48 54 61 65 58 67 89 100 93 78 70 75 91 96 70 91 59 80 44 41 46 42
36 43 55 54 41 38 44 40 36 40 48 55 58 56 54 56 58 59 58 48 52 58 64 72 71 90 82 85 95 93 98 94 91 86 97 97 92 93 53 49 53 54 45
44 48 55 54 47 43 43 39 40 42 54 62 68 72 71 70 68 67 68 69 63 71 80 87 86 96 100 100 100 100 90 100 100 100 90 100 98 67 59 63 65 60 58
66 60 58 57 53 49 46 43 44 52 56 66 70 68 68 71 75 80 79 78 88 92 97 96 98 100 100 100 100 100 100 100 100 96 93 100 88 72 68 68 70 74 91
50 49 50 50 49 47 44 46 48 57 58 63 65 64 73 70 81 88 86 88 96 95 97 97 99 100 100 100 100 100 100 100 100 100 100 100 93 76 76 83 84 91 98
56 54 52 52 52 51 52 53 54 56 60 62 61 71 72 76 95 92 86 100 100 99 100 99 100 100 100 100 100 100 99 99 100 100 100 100 95 84 84 89 95 100 100
59 52 55 61 59 49 49 52 54 57 60 63 67 76 80 95 99 90 94 100 100 100 99 100 100 100 100 100 100 100 100 100 100 100 100 97 96 97 95 95 98 100 99
49 61 60 69 65 60 52 56 52 54 66 69 78 82 97 100 92 91 90 91 97 100 97 100 100 100 100 100 100 100 100 100 99 99 100 100 100 100 100 100 100 100 98
55 55 62 72 80 82 78 83 90 91 80 88 75 76 96 99 89 94 94 90 99 99 100 100 99 97 100 100 100 100 100 100 100 100 100 100 100 100 100 100 100 100 95
70 70 63 72 75 78 83 99 96 98 99 96 90 99 99 100 99 94 94 97 100 100 100 97 97 100 100 99 98 97 98 98 97 100 98 99 100 100 100 100 100 100 98
56 49 80 75 78 91 85 83 94 97 100 99 100 100 100 100 100 100 100 100 98 100 100 100 100 98 95 98 100 99 99 96 94 95 97 95 100 100 100 100 100 100 100
53 43 53 59 92 87 89 88 84 87 100 100 100 100 100 98 100 100 99 100 98 97 96 96 100 100 100 100 97 88 80 93 100 99 94 92 99 100 100 100 100 100 100
57 58 34 35 42 61 77 83 97 97 93 97 100 99 100 100 100 100 100 100 96 98 99 100 97 99 97 97 96 94 88 76 67 61 60 66 78 94 100 100 100 100 100
43 30 27 27 26 25 42 63 80 90 99 100 78 76 90 100 100 100 100 100 100 100 100 99 90 77 63 57 54 48 33 24 22 25 33 39 42 47 61 64 65 66 83
80 70 41 37 34 29 23 26 50 78 80 84 86 74 70 79 85 100 100 100 100 95 77 66 62 56 46 24 22 22 27 31 34 38 43 45 45 44 43 46 83 100 100
10 32 63 57 35 36 32 25 20 46 62 72 73 69 66 65 69 77 99 100 99 96 85 76 41 23 24 27 28 28 28 32 36 46 52 52 50 42 46 69 99 100 100
14 10 15 52 54 42 27 24 22 20 48 53 52 63 61 52 55 64 67 70 75 64 54 26 26 30 32 28 22 17 14 13 13 16 26 36 33 68 92 97 100 100 100
22 13 9 18 54 51 40 25 22 19 23 53 51 48 58 59 50 57 59 52 52 46 26 31 37 33 21 12 10 10 12 15 18 22 38 73 96 100 100 100 100 100 100
28 12 9 10 50 50 37 24 22 22 20 37 55 48 43 50 71 82 80 58 32 32 36 35 24 13 11 12 14 15 18 28 32 38 67 89 95 100 100 100 100 100 100
15 12 9 10 55 51 36 26 22 23 22 33 54 42 40 60 67 44 32 36 47 46 28 17 14 15 17 17 16 17 29 43 42 46 58 73 93 100 99 99 100 100 100

GFSGL_500_rhum_075.txt.gz
RH
20 24 32 34 42 52 55 58 55 65 68 78 98 99 97 100 99 96 89 90 90 84 78 80 85 81 88 100 99 93 94 93 88 80 78 74 67 72 77 77 75 81 62
12 12 11 10 10 11 13 16 25 38 60 82 92 87 91 96 94 100 100 92 97 96 96 94 97 98 97 92 95 97 100 96 89 87 74 73 77 69 80 90 95 90 68
13 13 12 9 9 10 11 12 13 14 14 17 20 25 27 24 29 56 61 62 79 90 85 80 74 66 68 72 72 78 91 85 75 76 75 74 68 72 83 99 98 96 63
17 14 11 12 14 16 17 18 19 20 21 20 18 17 16 16 16 15 18 24 30 41 40 40 36 32 37 40 49 62 71 75 74 74 73 68 66 77 77 86 83 79 53
15 13 13 15 18 23 26 25 23 21 18 16 15 15 16 18 19 19 19 19 20 20 22 24 27 29 31 34 46 64 71 69 77 76 65 69 56 60 85 83 88 87 78
20 23 25 27 23 16 14 14 14 15 14 18 24 28 32 34 36 39 41 36 30 32 32 33 37 45 50 49 49 54 59 64 96 88 75 70 68 68 81 94 99 92 68
32 27 20 16 15 16 15 15 22 29 34 35 33 30 32 36 42 47 49 48 44 44 49 56 62 54 51 60 64 76 69 72 98 100 94 90 82 97 100 87 82 83 96
24 22 23 27 25 24 25 26 32 36 34 36 35 36 31 33 40 46 54 59 64 66 67 66 60 57 55 67 78 88 96 98 100 100 100 98 100 100 98 96 96 99 79
25 30 36 35 32 34 36 39 40 40 44 47 42 37 35 33 40 53 65 65 64 64 64 70 71 69 74 84 95 98 98 98 100 100 100 100 100 100 96 97 98 86 73
42 32 29 30 34 40 47 47 50 52 47 47 45 41 39 37 43 60 59 54 60 64 68 75 77 78 82 96 95 94 100 97 100 100 100 100 100 98 99 100 100 92 83
44 41 42 49 57 58 58 60 55 49 45 43 42 41 40 44 46 56 60 60 65 77 81 81 89 90 93 94 96 98 88 100 100 100 100 100 99 99 100 99 100 98 97
51 49 44 45 51 50 48 52 54 53 54 55 54 54 52 52 56 57 62 64 69 83 82 92 91 85 100 100 93 88 98 100 100 100 100 100 100 100 99 99 100 99 98
46 45 44 46 52 57 55 52 53 54 52 49 50 52 55 58 59 64 73 76 80 89 86 90 85 92 100 98 100 100 100 100 100 100 100 100 100 100 100 100 100 100 100
51 44 44 44 50 59 56 59 69 64 52 51 52 53 52 65 71 79 83 85 90 96 97 89 77 88 99 100 100 100 98 100 100 100 100 100 100 100 100 100 100 100 100
77 67 63 57 51 52 62 64 74 82 80 65 72 79 82 71 77 72 77 93 95 95 98 100 95 90 97 96 98 96 100 100 100 98 99 98 98 97 94 98 100 100 100
45 60 69 74 74 68 62 64 81 82 84 91 91 86 86 86 83 100 95 97 100 100 100 96 96 100 100 100 100 100 100 100 100 98 96 93 90 93 96 100 93 99 97
80 69 65 60 51 63 77 73 74 90 92 88 99 90 99 96 92 97 100 100 100 100 100 97 86 84 86 91 100 100 100 100 100 99 100 92 94 97 97 96 95 99 100
78 68 56 84 82 61 57 89 91 92 98 100 95 97 100 100 90 100 100 100 100 100 97 95 98 98 99 100 100 98 98 98 100 96 92 91 90 78 70 65 66 76 78
94 70 62 65 78 50 43 56 62 93 99 98 99 90 95 100 97 100 100 100 100 100 100 100 100 100 98 97 100 100 99 92 86 72 61 51 32 24 26 29 30 34 36
100 99 84 67 66 86 90 42 31 40 61 88 98 99 100 99 97 100 100 100 100 100 100 100 97 100 100 100 88 68 61 55 34 24 22 22 25 31 34 36 40 43 45
45 77 100 100 83 51 50 37 32 32 27 32 63 92 94 100 100 91 97 98 100 100 100 100 100 100 94 78 76 64 29 25 24 24 26 24 22 22 21 19 26 42 51
26 24 22 54 96 96 69 39 40 42 34 26 25 42 75 95 94 94 82 70 74 90 100 100 100 100 95 82 62 25 28 31 24 16 11 9 10 12 14 17 22 34 46
42 33 28 18 13 34 74 75 62 46 35 33 29 23 36 59 78 85 76 64 64 70 83 84 82 87 78 65 28 35 32 17 10 10 12 13 13 16 24 30 48 82 100
78 46 40 33 23 13 10 16 49 64 53 35 28 22 21 37 54 53 63 70 57 54 62 68 60 53 56 39 40 24 13 12 15 15 12 13 22 37 41 41 46 73 92
95 71 55 54 45 23 14 9 9 33 55 48 35 24 20 19 43 53 49 48 56 60 65 78 72 49 52 39 20 14 16 18 14 10 14 25 42 57 58 59 66 79 90
42 78 62 61 61 42 17 10 10 13 46 52 43 28 21 21 29 52 55 50 54 74 90 53 45 57 31 19 18 19 19 11 10 11 13 20 39 57 66 67 66 69 71

GFSGL_500_rhum_078.txt.gz
RH
35 36 33 30 26 25 28 30 30 39 48 47 48 53 53 56 65 74 84 97 98 94 87 80 89 90 82 83 84 89 95 92 90 85 84 93 100 95 87 87 83 76 88
25 24 24 21 18 17 16 15 14 14 19 21 18 14 19 25 40 57 65 76 62 47 32 38 64 86 96 90 86 79 73 72 80 88 96 97 100 92 91 78 74 77 89
31 22 15 13 13 13 12 12 10 9 9 10 12 13 14 16 16 15 15 16 16 16 16 19 22 23 31 44 51 47 51 51 56 65 72 84 90 85 83 92 95 93 95
23 20 16 16 15 13 13 10 10 11 13 15 16 19 22 22 20 18 16 16 16 17 17 16 17 19 20 20 21 24 27 32 38 43 54 69 74 70 70 66 64 61 76
26 28 29 29 26 19 14 12 13 14 15 17 20 22 22 19 17 15 16 21 23 26 31 36 40 35 31 31 31 32 36 48 48 51 55 57 57 79 77 76 70 61 77
42 45 47 44 31 16 14 14 15 17 22 22 15 12 11 10 14 22 25 25 27 32 41 46 46 41 37 34 39 50 52 42 50 61 71 75 72 85 95 97 83 87 97
50 44 35 28 20 18 20 25 27 24 17 14 13 14 14 20 27 34 32 31 27 30 34 39 41 42 44 49 52 51 54 56 53 69 82 92 88 89 94 100 100 100 100
43 39 38 36 34 32 30 27 18 17 18 22 24 23 26 29 30 31 34 34 31 29 30 38 42 44 50 58 64 68 61 64 77 87 93 100 99 89 100 100 100 100 100
42 38 32 27 27 26 25 23 24 27 29 32 33 33 35 37 36 36 38 39 36 32 32 40 40 45 56 62 68 72 74 77 90 85 86 82 91 99 100 100 100 100 100
42 41 40 33 28 29 32 32 33 38 40 42 42 42 46 49 46 43 44 37 35 35 36 42 44 49 62 78 75 80 79 86 82 85 100 98 99 100 100 100 100 100 100
68 70 68 51 41 48 50 49 47 40 39 46 49 52 57 52 48 42 40 40 41 46 47 48 51 57 73 77 75 82 86 87 93 93 98 85 99 100 100 100 100 100 100
59 60 56 53 49 47 44 41 42 45 44 47 48 50 51 46 47 50 50 53 54 55 56 57 61 67 75 80 88 87 79 94 95 94 90 94 90 99 100 100 99 100 100
67 58 56 54 52 46 43 44 42 45 46 46 47 50 53 53 53 51 51 54 57 62 66 71 74 78 83 93 91 94 100 94 92 98 100 100 100 100 98 96 100 100 100
50 76 90 80 62 50 48 47 45 46 51 55 54 54 61 62 54 52 55 54 64 72 76 81 90 95 96 100 94 89 94 100 100 100 100 100 99 99 100 98 90 88 96
81 54 41 65 84 71 55 45 43 44 53 58 57 64 70 65 64 61 72 77 68 75 72 81 99 96 99 100 92 100 100 100 94 86 88 94 96 97 97 98 98 96 92
100 100 81 48 41 71 77 72 62 52 48 58 63 72 82 86 85 80 82 82 79 85 97 100 100 100 100 100 94 91 90 87 84 82 92 100 100 100 100 100 100 100 100
100 100 100 99 59 45 54 72 74 80 68 59 63 79 85 85 91 98 94 97 96 96 100 100 100 100 100 100 100 98 91 93 91 100 100 98 96 97 94 90 93 93 86
53 98 100 100 100 80 68 68 83 70 81 80 72 75 88 90 88 97 96 98 97 100 100 100 100 100 100 100 100 100 100 99 100 100 100 98 94 87 74 59 49 35 23
26 27 87 100 100 98 77 71 98 100 78 85 92 85 90 88 93 96 91 100 100 100 100 98 100 100 100 100 100 100 100 100 100 98 78 62 59 49 28 23 21 19 19
68 27 26 74 100 100 92 63 64 92 75 68 75 92 94 92 94 99 100 100 100 100 100 100 98 99 100 100 100 100 100 100 84 67 67 38 25 24 23 18 12 9 10
33 78 30 30 76 100 100 90 61 65 74 53 38 50 60 79 93 97 98 100 100 100 100 100 100 100 100 100 100 100 100 97 92 75 26 26 25 19 10 10 14 14 13
14 35 72 35 33 95 100 100 91 92 95 95 78 40 28 31 36 75 93 100 100 100 100 100 94 100 100 100 100 100 100 91 83 28 30 25 12 10 14 14 11 12 20
14 14 52 75 35 61 99 100 100 91 76 80 65 50 55 36 29 29 51 87 100 100 98 95 87 97 100 100 97 96 89 93 42 37 25 11 15 16 13 9 11 18 30
9 12 17 82 50 36 36 43 91 100 97 81 56 50 72 69 39 32 26 43 63 77 79 78 76 73 76 82 82 69 84 58 48 29 14 18 16 10 10 11 12 15 23
11 11 11 70 79 32 30 24 17 34 73 93 90 78 79 77 38 31 27 26 49 56 60 69 70 68 69 67 83 83 60 51 33 17 19 14 10 14 16 20 19 16 18
15 11 11 46 92 62 37 30 24 14 11 11 18 43 61 76 60 34 26 25 36 57 59 58 59 69 86 93 58 55 46 39 21 22 22 17 14 20 21 22 24 22 19

GFSGL_500_rhum_081.txt.gz
RH
60 48 43 41 40 38 43 45 36 33 31 34 41 48 40 50 45 40 30 21 24 34 40 53 43 57 65 47 29 40 49 55 75 79 81 77 81 92 100 100 100 100 96
49 44 36 30 30 29 29 28 25 23 24 22 19 18 15 14 12 9 10 11 11 12 12 13 13 14 14 14 14 15 16 17 24 32 32 34 48 65 76 83 84 90 94
54 35 30 27 26 26 24 22 20 17 16 15 14 12 10 10 10 12 14 15 15 16 17 17 16 15 15 15 14 16 16 17 18 20 24 28 29 30 33 38 56 67 69
34 36 35 29 30 29 26 20 15 14 15 15 15 13 11 11 13 14 14 16 17 18 18 15 13 14 17 20 25 25 26 30 28 29 31 33 38 40 46 48 48 48 46
39 36 34 31 27 28 26 18 15 15 13 13 12 12 13 14 15 18 23 19 13 11 10 16 21 22 22 24 30 37 41 39 36 33 38 46 37 44 52 64 59 57 84
46 39 34 32 31 26 26 28 28 32 31 20 14 14 15 15 22 20 12 9 10 12 21 27 30 27 23 24 30 36 40 41 45 46 48 49 55 46 59 60 73 76 91
58 61 57 51 50 39 39 46 52 47 46 29 17 14 19 26 20 14 15 19 19 21 28 33 33 31 28 26 24 31 36 40 47 52 59 55 60 78 78 87 100 97 93
79 78 71 60 54 52 50 43 37 30 25 22 26 28 27 21 16 18 20 20 24 32 32 30 30 30 30 28 28 30 36 46 53 58 65 66 69 83 96 83 91 100 96
87 91 86 83 78 65 53 45 42 39 37 35 32 27 22 20 21 23 26 28 35 36 38 42 38 35 33 30 30 35 38 50 59 62 71 70 78 83 96 86 91 100 87
78 88 99 99 95 84 57 41 34 31 32 29 30 27 28 27 26 29 33 34 34 40 44 42 42 35 33 35 39 43 44 58 62 68 73 80 87 89 92 83 91 100 100
64 69 77 96 98 93 68 70 66 61 53 38 34 33 36 37 37 33 39 47 53 53 49 42 38 42 43 48 50 50 55 61 70 78 90 81 88 83 79 76 77 88 100
51 56 64 91 93 89 85 85 84 77 70 58 54 52 48 51 46 44 45 41 42 41 44 48 50 52 56 58 61 60 70 68 79 86 81 75 78 72 85 92 92 99 100
83 80 83 89 90 95 95 84 73 62 58 56 52 49 44 36 32 33 36 45 46 52 55 52 53 56 65 72 75 79 87 80 86 88 78 79 76 82 93 97 100 100 100
54 79 85 76 75 89 94 90 66 60 58 56 54 52 50 45 47 49 48 49 56 61 54 56 62 62 70 74 81 100 94 90 94 87 82 91 95 90 92 95 92 89 92
32 79 94 92 100 96 87 82 88 83 66 54 50 49 49 49 50 48 53 55 62 59 60 68 76 78 80 79 92 100 99 100 100 96 97 97 95 90 91 91 92 95 99
48 42 68 98 100 99 100 93 63 73 91 72 56 48 46 46 54 56 57 66 73 76 81 78 77 78 87 95 100 100 100 99 100 98 97 97 98 96 93 95 94 95 94
73 64 56 52 68 97 100 100 99 60 51 88 76 72 58 48 51 59 64 78 81 81 96 88 93 88 82 94 100 100 100 92 100 99 98 91 88 95 100 97 96 94 86
11 25 72 68 54 60 92 100 100 100 64 50 75 77 79 69 58 63 72 84 84 85 89 80 86 80 88 97 100 100 100 100 97 98 98 98 100 100 100 95 85 71 54
28 15 9 29 71 42 42 93 100 100 99 68 64 80 73 75 76 67 81 85 89 92 89 83 89 94 100 100 100 100 100 100 100 100 100 100 100 100 72 63 46 26 24
37 33 27 9 14 68 32 32 100 100 100 95 92 100 100 87 92 90 91 88 96 96 94 95 97 95 100 98 100 100 100 100 100 100 100 100 89 75 72 32 27 26 18
35 31 30 25 11 23 60 27 59 100 100 100 96 100 100 99 90 98 100 100 99 100 99 100 100 95 100 100 100 100 93 98 100 100 98 96 91 86 30 29 28 12 12
17 13 14 20 19 14 50 45 26 88 100 100 96 100 100 96 85 82 92 98 100 100 100 100 100 99 100 100 100 100 100 100 100 98 99 92 91 52 34 31 13 14 15
72 50 26 10 17 17 24 59 32 46 100 100 99 96 100 88 61 46 46 55 71 91 100 100 100 100 100 100 100 100 100 100 100 100 98 95 92 43 32 14 16 15 10
89 84 70 24 10 18 18 58 46 32 87 100 100 91 78 94 98 73 52 44 34 35 67 99 100 100 96 95 92 92 94 93 93 90 84 97 61 36 17 18 14 11 15
91 97 90 54 12 14 17 49 58 31 60 100 100 100 98 99 100 98 68 61 49 38 33 48 92 99 96 91 86 78 75 75 67 78 78 71 43 34 19 21 16 15 18
86 99 100 32 15 11 14 51 72 36 62 100 100 100 100 97 98 78 69 97 98 83 49 32 53 79 82 81 70 68 76 84 88 60 62 41 43 25 24 25 27 20 20

GFSGL_500_rhum_084.txt.gz
RH
73 73 80 77 61 42 43 41 39 37 36 36 43 36 36 45 42 46 44 47 39 44 39 25 11 12 11 12 13 14 14 13 13 13 13 14 14 14 16 22 24 35 44
70 76 73 68 66 51 44 43 42 43 46 42 41 33 30 33 31 27 18 14 13 11 12 11 12 13 13 16 16 15 14 12 12 12 12 13 14 14 14 16 19 23 28
52 52 60 57 53 45 44 34 34 34 32 32 30 26 22 20 17 14 14 13 13 12 12 14 15 15 17 14 9 8 9 13 17 21 25 26 27 26 25 25 27 31 40
46 55 61 65 54 50 47 29 26 26 27 24 20 19 16 15 14 14 12 11 11 13 15 14 14 14 9 7 8 10 15 17 16 16 20 24 28 30 28 28 35 37 42
58 62 69 70 62 50 34 31 32 26 28 27 26 20 16 15 14 13 12 12 14 16 17 20 14 9 8 9 10 16 24 22 21 19 21 29 36 36 39 45 46 50 44
54 46 45 48 47 42 38 36 36 32 27 25 24 26 22 17 14 13 13 13 15 15 21 17 10 10 10 10 14 22 23 24 25 25 21 25 29 37 46 51 52 55 62
49 48 50 50 51 52 50 48 46 41 36 34 32 30 31 35 39 40 32 15 14 21 23 14 10 14 16 20 24 26 24 25 27 24 20 22 36 44 50 58 61 70 75
56 56 54 52 52 52 50 54 63 65 56 57 52 49 47 47 46 43 28 17 22 25 19 15 18 19 20 27 28 28 29 30 29 24 23 27 44 48 56 65 74 80 86
70 74 74 74 75 72 72 76 77 77 72 59 51 46 42 37 32 27 28 29 28 22 19 19 24 26 27 31 34 36 35 32 27 26 27 33 48 53 62 64 72 78 85
60 62 62 64 69 77 84 87 93 92 90 92 80 51 45 43 40 38 35 31 29 24 24 24 30 23 33 44 43 41 36 32 30 35 33 46 56 59 69 76 77 74 77
32 36 42 48 52 56 63 71 83 94 99 99 92 67 54 45 46 42 39 35 32 35 30 28 27 33 46 39 32 31 36 42 45 49 49 63 63 70 78 71 72 69 71
35 44 52 56 61 62 56 58 59 76 92 100 100 98 91 87 80 55 52 53 48 44 36 33 35 34 36 36 37 42 48 54 59 61 74 78 73 83 75 71 71 74 76
35 31 28 34 48 62 75 85 90 86 74 92 99 99 100 100 96 75 67 61 60 57 45 37 34 34 43 47 47 52 56 63 70 74 88 88 88 89 82 74 70 64 72
52 58 56 52 38 28 55 76 83 75 81 97 96 100 100 96 84 73 64 58 54 45 47 38 36 45 49 51 53 61 59 64 72 92 100 99 88 86 81 79 73 76 80
34 41 52 57 58 48 42 56 83 87 87 88 97 100 100 98 93 72 59 52 53 57 43 47 51 52 54 55 59 69 74 80 83 100 100 100 97 91 96 94 86 86 90
22 21 22 36 65 60 46 46 53 99 100 100 98 97 99 100 86 75 66 54 52 53 49 56 58 60 62 62 63 68 73 90 92 100 100 100 99 100 98 95 96 95 93
13 12 11 12 16 46 69 58 48 67 99 96 100 99 95 100 97 68 54 50 48 46 57 61 63 67 67 67 77 81 68 80 99 100 97 100 100 100 99 99 95 94 89
10 12 16 14 11 11 18 64 66 54 58 95 98 100 94 79 99 97 75 56 50 48 64 66 71 72 69 73 72 72 82 84 100 99 92 99 100 100 99 98 94 90 96
43 47 47 50 40 14 10 11 35 68 60 52 100 100 100 86 73 98 94 72 71 59 69 78 80 72 68 72 79 84 94 93 100 100 94 100 100 100 98 96 98 100 78
60 64 63 51 42 45 19 10 9 14 60 58 74 99 100 100 93 84 98 87 84 83 90 97 86 70 73 77 71 89 100 100 100 100 99 100 100 100 100 100 100 90 80
74 77 73 68 45 41 40 20 12 12 36 62 51 96 100 100 100 100 100 100 100 100 100 100 88 75 80 87 94 98 100 100 100 92 94 99 100 100 100 100 99 92 74
65 79 87 69 22 17 19 34 21 14 37 64 46 72 100 100 100 100 100 100 100 100 100 100 95 84 83 88 100 96 98 100 100 100 100 100 100 100 100 100 91 87 61
100 99 80 39 54 49 27 15 26 21 24 64 46 44 100 100 100 100 100 100 100 100 100 100 100 97 98 100 100 100 100 100 99 100 100 100 100 100 100 97 94 95 54
100 79 51 84 85 96 72 19 18 24 18 62 54 34 99 100 100 100 100 100 100 100 100 97 97 94 100 100 100 100 100 100 100 100 100 100 100 99 94 89 98 84 42
62 56 90 82 88 92 85 38 12 22 20 42 60 31 82 100 100 100 100 100 100 92 93 81 64 60 77 97 100 100 100 100 100 100 99 92 79 70 74 76 79 43 41
69 98 94 88 98 100 96 32 13 17 21 35 67 34 55 100 100 100 100 100 100 100 90 68 57 47 43 56 90 100 100 100 100 92 81 76 80 88 71 65 40 44 36

GFSGL_500_rhum_087.txt.gz
RH
89 88 80 78 78 78 74 70 57 52 51 68 79 87 76 80 88 80 59 68 69 51 54 45 28 18 12 12 11 11 11 10 10 7 6 6 5 5 7 12 14 18 21
80 73 68 68 61 61 70 67 64 45 43 42 45 58 46 40 46 47 47 52 44 40 26 24 13 12 12 12 12 13 12 11 7 7 7 8 10 12 13 13 15 19 21
68 60 62 65 59 53 63 62 63 59 51 46 42 39 41 45 48 43 38 33 30 24 16 13 13 13 13 14 15 15 12 7 7 9 9 13 16 16 15 13 16 20 24
63 55 58 56 48 44 52 52 62 58 48 46 38 30 30 30 28 26 22 19 16 15 15 14 13 12 13 14 14 14 11 6 8 9 10 11 15 20 18 16 15 22 22
50 52 54 56 52 54 60 59 72 76 60 54 48 29 27 27 27 25 20 15 15 16 15 14 12 13 15 14 16 15 10 8 9 11 13 13 15 18 17 16 15 17 28
54 56 61 62 64 61 55 52 60 66 66 54 45 34 33 29 25 26 25 23 21 19 14 13 13 14 15 14 18 15 10 9 11 14 16 19 20 19 19 19 16 21 38
37 41 45 49 53 53 55 54 53 53 53 54 54 48 42 37 33 30 29 26 27 29 30 29 33 26 17 16 20 16 11 11 13 15 18 25 26 25 23 20 19 27 38
27 31 32 33 40 46 53 55 55 54 54 55 55 54 53 48 47 44 43 39 34 37 40 45 40 36 23 20 22 15 13 14 15 20 22 26 27 27 24 20 20 31 38
19 25 29 30 35 40 46 50 51 51 51 56 57 58 66 67 65 58 53 53 52 50 46 42 36 24 24 25 21 18 20 17 18 21 26 26 28 26 26 24 33 46 43
11 10 10 15 25 33 44 49 46 48 56 66 71 73 75 81 83 82 66 51 47 44 38 32 30 30 30 27 23 24 22 21 21 21 21 23 23 28 34 38 49 56 59
13 16 23 20 19 21 21 23 32 41 47 53 58 64 68 80 88 84 91 88 64 51 46 44 43 39 38 36 34 30 27 32 22 20 26 37 39 40 47 54 66 68 69
14 34 42 40 38 32 26 26 27 31 33 39 44 59 75 82 88 95 100 99 96 80 63 60 59 66 61 53 40 36 37 24 26 29 37 47 46 50 54 72 74 74 70
23 24 25 28 28 32 32 36 34 25 33 48 64 58 66 77 97 99 93 97 100 100 93 84 83 78 67 56 50 49 35 31 35 40 49 54 54 56 75 85 86 82 77
20 19 19 20 23 26 30 36 50 48 35 33 70 91 94 92 87 83 88 100 100 100 100 100 94 78 68 70 63 45 40 39 45 51 57 57 60 71 96 94 95 84 80
12 14 14 16 18 21 25 28 35 38 52 46 43 76 87 91 100 100 100 100 95 99 100 96 91 85 70 61 52 48 47 50 52 56 63 69 76 86 98 97 98 86 88
10 9 9 9 9 11 14 19 24 32 42 54 59 60 71 86 74 88 100 100 100 100 98 98 97 76 64 56 53 52 55 57 59 62 67 79 87 96 99 100 100 95 93
15 16 16 14 12 9 9 10 14 26 38 69 71 67 77 86 96 83 92 100 100 100 90 98 88 67 65 58 55 57 64 60 62 66 75 78 89 96 97 100 100 96 90
24 26 26 26 25 25 22 15 10 13 24 49 74 74 78 100 100 100 98 97 87 82 89 97 98 85 67 59 62 67 72 70 75 77 82 82 87 96 97 96 100 99 95
33 33 35 37 41 45 48 47 38 16 13 21 48 79 81 92 100 100 100 94 94 80 94 94 84 70 59 65 69 79 78 84 77 77 77 96 92 96 94 99 100 99 98
52 52 48 45 46 54 66 62 55 45 20 12 22 73 88 72 87 100 100 94 100 92 96 100 96 75 69 74 82 92 85 85 78 82 89 100 95 95 100 100 100 100 98
77 87 79 71 64 55 55 71 72 59 43 18 16 25 100 74 65 100 100 100 100 100 99 100 100 99 86 83 100 100 89 94 84 82 95 100 100 100 98 97 100 100 97
94 100 100 100 100 100 97 82 78 66 39 31 27 19 61 78 66 86 100 100 100 100 100 100 100 100 100 100 100 98 94 96 97 100 100 100 100 100 100 100 100 100 99
100 100 100 100 100 100 100 95 67 39 18 27 28 29 18 74 66 61 100 100 100 98 100 100 100 100 100 100 100 100 93 94 93 96 96 100 100 100 100 100 100 99 97
100 100 100 100 100 98 66 59 63 72 50 18 25 30 18 60 62 53 99 100 100 100 100 100 100 100 100 100 100 100 100 100 100 100 100 100 100 100 100 100 100 100 100
100 100 100 88 60 74 94 80 88 83 86 37 20 29 20 44 54 46 99 100 100 100 100 100 100 100 100 100 100 100 100 100 100 100 100 100 100 100 100 100 100 100 88
56 67 74 82 99 95 87 99 100 99 92 32 16 29 19 42 46 43 100 100 100 100 100 100 100 100 97 98 100 94 99 100 100 100 100 100 100 100 100 100 97 82 83

GFSGL_500_rhum_090.txt.gz
RH
95 92 93 93 94 97 94 91 91 92 95 95 94 96 96 96 94 96 97 96 96 96 95 96 97 64 38 31 27 19 16 16 12 11 10 9 6 8 8 8 8 12 14
89 91 87 86 85 83 75 80 83 81 74 68 59 79 88 78 71 72 76 77 84 87 97 86 94 92 75 40 16 15 12 12 13 13 12 9 7 8 9 10 10 10 12
66 68 61 64 63 58 54 60 64 58 54 59 61 44 44 47 46 52 61 62 59 62 52 62 44 34 28 19 12 13 14 14 14 15 14 12 9 9 10 10 10 9 9
56 68 74 59 51 40 40 45 49 49 43 38 45 52 58 51 44 39 39 52 59 50 48 48 56 30 17 15 14 12 13 14 15 16 17 12 8 8 10 10 10 9 12
60 59 54 45 42 45 45 51 51 50 48 49 55 59 66 66 52 45 32 28 28 25 21 19 18 16 15 16 16 13 13 15 16 16 17 13 9 9 11 11 10 11 16
30 31 32 30 31 33 40 51 56 62 61 62 58 62 76 75 64 55 43 30 27 26 26 25 23 20 17 15 13 13 14 16 18 18 19 14 9 10 13 12 13 17 19
13 12 15 17 20 23 27 32 37 47 57 60 57 54 56 55 56 54 49 41 35 32 29 26 25 25 26 25 26 24 30 33 34 27 21 17 12 13 14 13 17 20 21
7 7 7 7 8 9 10 11 13 20 28 38 47 56 59 59 60 61 60 60 56 54 51 45 38 36 35 38 39 39 42 37 34 29 22 18 14 15 14 14 17 16 16
12 14 12 13 14 13 12 11 12 20 21 24 37 41 45 49 57 55 52 55 58 59 58 58 56 56 52 49 47 42 42 39 31 26 24 20 19 21 17 19 16 16 18
7 6 8 9 10 12 15 15 18 15 12 18 37 45 42 47 57 65 61 65 71 78 75 62 59 55 54 51 49 45 39 33 28 29 25 26 25 23 21 18 16 26 31
7 7 7 8 8 9 10 14 18 20 22 19 18 30 37 44 55 62 65 66 79 85 85 77 76 75 68 56 44 40 36 38 36 34 40 36 31 29 22 26 31 40 36
7 8 9 10 12 14 14 13 15 18 19 19 20 19 18 35 52 62 65 65 72 79 85 87 89 80 68 60 54 53 53 57 54 56 43 40 34 29 30 37 52 47 50
8 9 9 10 10 10 10 11 14 17 18 20 20 20 24 28 38 54 58 76 90 98 94 93 90 91 92 97 90 81 77 80 77 67 51 47 33 39 41 51 49 58 70
9 9 9 9 9 10 11 11 14 18 20 20 23 25 23 25 31 36 59 74 87 100 100 100 100 100 90 93 89 96 100 88 80 66 58 46 43 44 52 58 59 71 91
9 12 16 17 15 15 14 12 13 18 21 23 28 30 38 39 51 58 58 75 84 94 100 100 99 90 94 96 98 92 99 93 85 72 59 48 48 55 60 70 74 83 100
18 25 25 22 18 16 13 10 9 10 15 20 26 29 44 51 51 57 86 96 99 100 96 100 94 93 100 100 100 100 100 96 96 68 53 56 57 60 68 77 84 93 100
28 34 35 34 31 26 24 22 20 13 10 11 16 23 39 56 68 62 87 100 92 98 100 94 92 88 98 100 92 88 100 98 81 61 59 64 64 68 79 82 87 97 100
31 35 37 39 39 40 37 32 30 28 25 17 11 13 24 40 76 86 96 100 100 94 84 84 100 100 96 99 100 84 86 90 73 64 63 70 74 79 98 86 82 99 98
29 31 34 36 45 49 51 48 40 38 39 38 34 17 11 19 42 98 100 100 100 100 89 94 100 100 99 95 100 100 84 86 78 86 73 80 83 85 90 93 92 100 100
30 33 34 42 52 64 73 73 61 50 47 54 56 46 35 13 15 44 100 100 100 100 100 93 93 97 100 100 100 100 100 98 99 88 92 88 85 86 90 96 100 100 100
22 30 43 52 64 82 99 100 96 79 62 55 66 63 48 39 15 14 60 100 97 100 100 100 100 100 100 100 100 100 100 100 99 96 100 90 82 83 87 100 100 100 100
32 51 67 79 89 99 100 100 100 100 94 82 61 69 74 51 38 18 16 90 100 99 100 100 100 100 100 100 100 100 100 100 99 100 100 93 92 90 100 100 100 100 100
84 93 99 100 100 100 100 100 100 100 99 98 96 85 76 65 43 30 15 68 96 97 100 100 100 100 96 98 100 100 100 100 100 100 96 98 100 96 100 100 99 100 100
85 90 96 100 100 100 100 100 100 100 100 98 85 70 58 49 36 35 17 56 86 89 100 100 100 100 100 100 100 100 100 100 100 100 98 100 100 98 100 100 100 100 100
67 69 61 63 73 70 69 73 72 89 81 69 74 94 92 31 29 34 14 69 74 87 100 100 98 100 100 100 100 100 100 100 100 100 100 100 100 100 99 100 100 100 100
100 100 100 100 97 83 87 100 100 94 88 92 96 94 85 33 32 26 17 77 73 92 100 100 100 100 100 100 100 100 100 100 100 99 100 100 99 100 100 100 100 100 100

GFSGL_500_rhum_093.txt.gz
RH
96 96 97 98 97 96 98 95 94 94 96 97 97 98 98 97 98 98 99 98 98 97 98 98 97 96 97 96 97 95 94 82 60 52 40 29 14 11 11 9 8 10 13
86 92 95 96 95 94 94 93 93 93 91 90 94 97 97 96 97 99 96 97 93 97 97 96 97 98 94 98 98 85 59 49 53 55 30 12 13 14 13 11 12 12 10
50 55 69 57 58 56 52 46 54 68 84 85 84 89 92 93 95 93 76 66 76 63 74 91 95 94 93 86 81 60 80 46 26 14 12 13 14 16 17 16 12 11 9
58 60 57 58 56 51 51 49 49 43 42 53 58 59 58 57 64 66 59 57 63 63 63 67 83 82 70 57 60 54 34 21 17 13 13 14 16 17 18 18 12 9 10
30 30 28 28 30 35 33 30 32 39 46 48 48 47 48 48 50 55 58 54 53 49 45 49 54 60 52 49 50 46 58 45 22 17 15 14 16 17 19 22 16 10 11
7 7 6 5 6 9 8 9 18 27 30 28 30 28 45 58 59 60 61 60 61 56 51 40 58 67 51 31 23 16 18 17 16 14 13 13 15 19 27 25 18 12 11
8 8 9 9 8 7 9 9 9 9 8 7 7 12 20 26 32 47 58 58 71 74 61 45 36 55 64 34 23 20 18 16 15 15 15 16 29 36 33 27 21 15 13
9 10 9 8 8 9 9 8 7 7 10 11 12 11 8 9 12 22 31 50 55 55 57 49 38 32 31 29 27 23 22 22 20 24 26 30 38 37 33 25 22 18 14
6 6 6 6 6 5 6 6 6 7 8 7 9 12 13 13 11 12 16 23 36 52 57 60 63 62 60 52 44 37 35 37 38 40 40 39 39 39 32 27 25 19 16
8 8 7 6 6 6 6 6 7 7 8 8 8 10 13 16 16 14 15 24 34 42 44 53 57 60 62 60 61 58 54 51 50 50 47 45 40 36 34 34 26 23 20
8 8 8 7 7 7 8 8 8 8 8 9 9 9 9 10 11 14 16 16 26 48 54 53 61 69 73 70 64 61 58 59 60 66 65 45 40 40 44 38 37 30 28
9 9 9 9 8 7 8 9 9 10 9 9 9 9 8 8 8 16 15 17 17 21 57 68 76 75 85 91 86 74 63 61 71 72 55 57 64 63 54 54 47 43 29
10 7 5 6 9 9 8 8 8 8 9 9 9 10 15 20 13 13 17 15 16 21 35 72 84 84 88 94 95 86 77 77 77 69 76 83 86 75 76 67 59 46 39
4 4 7 7 7 10 12 14 15 16 18 17 17 16 24 27 36 33 25 20 24 30 44 69 87 100 99 96 99 96 92 100 100 100 99 98 98 89 85 73 66 46 52
5 6 7 10 15 21 22 27 28 25 19 15 15 16 16 29 45 78 83 61 71 78 69 87 92 95 100 92 100 100 100 100 100 100 100 100 100 99 93 92 66 52 59
9 13 16 17 22 32 34 36 39 35 27 21 16 10 12 21 30 52 80 96 100 100 99 100 100 90 98 100 100 100 100 100 100 100 100 100 100 100 97 92 60 58 61
15 20 22 23 24 33 46 47 46 46 37 32 25 20 11 10 21 33 62 82 94 100 100 100 100 100 100 88 100 100 100 100 100 97 100 100 100 100 100 90 61 63 67
8 9 11 17 24 30 46 56 54 49 53 44 35 29 22 15 10 20 28 50 88 100 100 100 100 100 100 100 98 100 100 100 100 100 100 100 100 100 100 82 64 70 75
6 7 9 11 14 24 43 58 61 55 49 53 48 39 33 26 17 10 16 26 42 84 100 100 99 100 100 100 100 100 100 100 100 100 100 100 100 100 100 81 68 82 88
13 10 10 12 17 24 31 38 46 52 55 57 62 52 44 36 32 22 11 15 22 36 90 95 100 100 100 100 100 100 100 100 97 100 100 99 100 100 100 82 83 91 90
35 24 29 36 43 53 63 71 73 76 75 80 86 75 57 47 43 41 33 14 12 18 39 87 100 100 100 100 100 100 100 100 100 100 100 99 100 100 100 98 98 95 92
56 46 42 57 76 87 93 96 97 94 93 96 100 100 87 64 51 56 50 40 20 13 14 69 92 100 92 100 99 96 99 99 100 100 100 100 100 100 100 100 100 91 89
81 85 84 73 54 63 95 100 99 100 100 100 100 100 100 94 67 60 59 49 44 27 14 52 86 100 99 96 99 94 94 91 98 99 100 100 100 100 100 100 98 92 92
78 89 98 100 100 98 79 83 81 97 99 100 100 100 100 100 95 70 64 64 59 40 17 40 87 99 100 100 100 78 86 89 98 100 100 100 100 100 100 100 100 100 100
91 94 100 100 100 100 100 100 95 95 73 81 91 95 98 99 100 96 78 61 62 36 20 62 99 92 100 94 83 72 90 99 100 100 99 100 100 100 100 100 97 99 100
89 96 98 100 100 100 100 100 100 87 94 95 89 74 64 72 76 59 68 64 47 21 27 88 99 100 100 96 88 100 100 100 100 100 100 100 100 100 100 97 99 100 100

GFSGL_500_rhum_096.txt.gz
RH
98 88 98 99 97 98 98 97 97 98 98 96 94 97 97 96 98 96 97 97 96 98 100 95 90 90 98 98 98 94 97 95 97 98 99 97 94 74 78 62 43 26 12
95 95 96 97 97 97 97 97 96 97 93 94 96 97 97 98 98 98 98 96 97 96 99 99 97 97 97 98 97 96 96 96 96 97 95 96 90 78 79 47 15 13 14
73 74 73 84 90 87 91 93 88 86 86 89 94 95 96 95 95 97 99 97 98 97 98 97 98 97 97 98 97 96 92 96 94 93 93 84 73 60 36 14 14 16 17
72 57 50 48 58 63 60 52 48 44 43 44 50 49 45 62 83 93 88 84 95 93 90 85 86 91 93 95 97 95 90 94 75 71 66 58 44 36 17 13 15 16 17
24 20 16 13 12 16 20 24 25 30 28 29 28 33 42 52 62 70 69 73 67 68 64 67 72 76 64 62 84 97 88 73 62 56 52 39 17 14 13 14 15 16 17
6 6 6 6 6 7 7 5 5 6 6 6 5 6 9 17 19 23 46 57 58 59 64 63 63 55 54 54 54 65 54 64 60 64 49 42 44 45 25 20 14 15 18
7 6 6 6 6 6 6 6 6 6 6 6 6 5 5 7 8 7 6 10 22 38 57 60 64 75 80 70 54 66 99 98 89 81 62 94 56 21 25 15 14 16 30
9 9 8 8 7 7 8 8 7 7 7 6 6 6 6 6 6 6 8 9 8 8 17 37 56 62 74 79 51 48 82 94 92 88 70 71 81 27 15 16 15 23 35
10 10 9 9 10 10 10 9 8 8 8 7 6 6 6 6 6 6 6 7 8 10 9 9 26 51 56 56 55 41 48 86 98 91 73 59 36 18 16 18 25 32 38
9 8 8 9 10 10 11 12 12 12 11 11 10 9 8 8 8 8 8 8 8 8 11 12 11 29 64 62 63 67 55 40 38 35 36 30 23 25 32 37 38 40 40
11 10 10 9 7 7 6 5 7 8 8 8 8 8 8 8 8 7 7 8 9 8 9 12 14 18 34 52 70 73 72 72 68 67 64 48 42 41 41 50 49 58 65
12 11 11 10 9 7 6 6 6 6 6 6 5 5 5 5 5 6 6 8 9 8 8 9 10 14 18 33 57 78 85 78 75 71 69 67 64 64 66 82 88 97 80
10 10 8 7 6 5 4 4 4 6 6 6 6 7 8 9 9 10 10 12 14 11 8 8 10 12 20 27 36 55 67 74 88 91 82 71 64 69 80 80 99 90 92
11 8 6 4 3 4 5 7 10 15 17 20 19 17 16 16 18 18 15 19 24 28 28 29 22 27 39 35 76 92 96 99 100 100 100 96 88 84 94 97 94 94 100
6 5 3 3 4 6 7 7 8 17 23 25 31 27 28 30 25 20 19 17 21 45 65 78 100 100 98 87 82 99 100 100 100 100 100 100 100 100 96 92 97 100 100
4 3 3 5 12 21 20 10 8 12 32 35 36 37 34 36 30 20 14 17 18 24 51 72 100 100 100 100 100 100 100 100 100 100 100 98 100 100 100 100 100 100 100
3 4 9 22 30 30 27 10 9 21 39 66 58 48 42 42 38 26 17 12 16 21 32 56 97 100 100 100 100 100 100 100 100 100 100 100 98 100 95 100 100 100 100
4 12 28 38 38 41 35 16 11 15 43 92 84 66 52 46 44 35 26 16 11 15 25 36 75 100 99 100 92 98 100 100 100 100 100 100 100 100 94 99 100 100 100
13 32 47 48 52 58 45 28 24 23 29 58 99 95 67 49 42 40 34 25 12 12 20 27 37 91 100 100 100 98 100 97 100 100 100 100 99 95 99 100 100 100 97
35 51 52 53 60 79 62 43 56 71 58 63 80 98 99 66 48 39 38 33 23 11 11 19 25 43 94 99 100 97 100 100 100 93 89 92 100 99 100 100 100 91 95
48 43 56 71 76 87 98 83 52 80 93 99 88 89 92 86 73 57 42 38 33 26 12 12 20 25 67 100 100 96 100 100 100 100 100 100 100 100 99 100 99 99 98
28 36 58 70 92 100 100 100 94 61 91 98 100 100 97 90 89 86 68 49 38 36 29 14 12 18 37 76 100 100 100 100 100 100 100 100 100 98 100 100 100 100 98
24 39 59 76 88 96 100 100 100 100 79 85 100 100 100 93 92 96 93 67 48 43 45 35 15 14 21 54 99 94 96 98 97 100 100 100 94 94 100 100 99 98 98
26 50 73 89 98 97 96 100 100 100 100 87 81 100 100 96 92 92 96 86 59 51 54 51 25 15 17 48 92 97 90 93 99 100 100 87 84 85 100 100 100 100 100
21 41 74 96 100 98 100 100 100 100 100 98 95 82 100 100 98 95 89 86 74 55 59 52 33 18 23 56 79 100 78 72 75 97 97 85 80 92 98 96 96 98 100
19 29 53 88 99 100 99 100 100 100 100 98 84 99 100 87 93 98 97 94 83 60 61 59 34 22 75 73 78 100 94 86 86 79 71 78 88 99 100 100 100 100 100

GFSGL_500_rhum_099.txt.gz
RH
76 80 78 71 79 94 96 95 96 97 96 96 96 97 97 97 96 96 96 96 95 96 96 96 95 96 96 95 98 92 87 99 92 82 88 95 97 96 96 95 100 96 57
99 99 99 95 92 96 98 98 100 99 98 94 95 96 96 96 97 96 96 97 97 97 97 97 93 96 96 94 87 99 97 97 98 99 100 97 97 97 98 97 98 97 82
97 98 96 97 91 96 97 96 98 97 97 96 96 96 96 97 98 97 97 97 97 98 97 97 100 97 98 99 98 95 96 97 96 96 97 97 96 96 96 96 96 96 94
93 86 74 61 70 72 72 77 85 84 77 72 59 49 54 70 81 82 91 96 96 96 97 98 98 97 100 99 98 97 98 98 97 92 96 98 97 93 90 93 92 79 62
25 14 10 7 7 6 6 10 14 18 20 22 27 33 39 38 38 38 39 48 60 72 93 96 94 96 96 97 96 96 99 95 92 97 96 98 98 94 94 80 72 74 77
7 7 8 8 8 8 7 7 7 6 6 6 5 5 4 5 5 6 6 8 12 20 30 53 75 93 96 96 97 97 97 90 98 90 98 98 96 98 94 69 51 37 24
9 9 8 8 8 8 8 8 8 7 7 7 7 8 8 7 6 6 6 5 6 6 9 15 20 24 44 59 72 89 92 96 98 95 98 98 100 99 96 90 69 36 23
12 12 11 11 12 11 10 8 8 8 9 9 9 9 9 9 8 8 8 7 7 6 7 8 8 9 9 25 29 48 69 76 86 79 84 90 97 96 92 100 99 90 92
12 12 12 12 12 11 10 10 9 9 9 9 9 10 11 11 12 13 11 8 8 7 6 7 9 10 11 11 12 27 46 57 75 93 97 100 92 99 100 99 97 98 99
14 13 13 14 14 12 11 10 10 10 9 9 9 8 8 9 10 10 10 11 12 12 9 7 7 8 12 13 16 19 28 40 56 64 69 62 74 87 98 100 100 94 74
17 17 16 15 13 12 12 11 10 9 8 7 7 6 6 5 5 5 5 5 6 7 9 11 9 8 8 11 14 14 21 43 47 54 58 54 46 43 81 100 98 69 50
20 20 19 17 16 14 11 10 8 6 5 5 5 4 4 4 4 4 5 6 5 4 4 4 4 4 7 9 9 10 13 19 30 45 48 63 67 54 46 44 42 44 48
25 24 22 18 14 10 7 5 4 3 3 2 2 3 4 9 9 9 13 12 11 9 7 6 8 8 6 6 6 9 12 15 20 29 59 76 96 95 84 80 85 73 84
28 26 21 15 10 7 5 3 2 2 3 5 10 15 18 17 12 16 25 20 18 17 13 12 12 15 14 11 16 14 14 18 23 26 57 88 100 100 100 99 95 96 94
32 26 17 10 7 4 3 2 4 8 15 20 20 18 22 20 9 28 36 30 27 25 21 18 15 20 23 24 32 46 54 92 67 50 72 98 100 100 100 100 100 99 94
35 17 11 6 4 2 4 6 11 15 14 20 26 33 27 10 12 52 58 43 40 41 34 27 23 20 17 24 40 48 74 100 99 100 99 100 100 100 100 100 100 100 100
17 11 6 4 3 7 10 10 11 19 31 39 53 37 16 11 26 70 77 60 52 48 37 25 17 19 21 19 32 52 59 82 100 94 100 100 100 100 100 100 100 100 100
11 6 4 3 8 10 10 11 15 27 60 70 59 38 22 16 38 88 99 74 62 51 37 25 14 13 19 20 41 82 70 80 91 93 97 99 98 100 100 100 99 100 100
6 4 3 9 11 10 12 14 22 54 84 80 72 61 55 29 33 96 100 88 71 56 41 29 17 12 15 22 57 99 100 80 99 99 100 99 98 100 89 98 99 100 100
4 4 9 12 11 12 15 20 43 73 87 93 87 61 76 79 47 62 95 95 81 63 47 34 19 12 16 47 84 65 100 90 74 97 100 100 100 99 97 100 100 100 100
4 8 14 13 13 15 18 38 72 84 89 96 100 77 82 84 84 64 66 88 84 72 56 43 28 12 17 37 62 100 89 93 82 66 100 100 100 100 100 100 100 100 100
7 14 16 14 16 18 23 54 88 92 93 90 98 100 83 88 91 89 72 65 77 71 65 52 41 18 14 24 51 90 97 100 100 100 100 100 100 100 100 100 100 100 93
15 19 16 16 19 21 32 60 96 93 90 95 97 98 96 83 93 96 92 80 60 63 68 59 50 31 14 20 46 84 80 100 87 100 97 99 100 95 88 98 100 100 92
22 21 16 20 23 28 38 52 80 99 93 95 95 98 98 94 88 100 99 94 79 66 70 65 53 45 16 17 37 75 98 100 96 88 100 100 100 92 100 100 98 78 68
26 16 19 23 24 21 34 64 66 72 84 93 99 95 90 86 96 100 100 99 91 78 77 67 54 51 22 15 29 60 88 100 100 100 99 100 100 100 100 96 90 77 78
16 17 23 27 26 24 27 35 60 50 65 87 100 84 77 94 89 98 100 100 96 82 79 63 58 53 28 15 28 55 61 89 81 79 95 100 100 99 87 77 75 74 90

GFSGL_500_rhum_102.txt.gz
RH
46 53 55 59 61 67 76 68 71 82 94 92 84 84 96 100 97 96 96 97 97 96 97 96 95 96 96 97 97 97 96 96 93 81 81 85 81 89 81 82 84 93 98
78 84 89 81 92 100 99 94 79 97 89 98 96 96 96 96 93 95 97 99 97 97 97 96 95 97 96 97 97 97 97 96 98 94 90 84 90 92 92 91 99 98 96
96 98 98 99 99 99 100 100 94 98 99 97 97 96 98 98 97 98 97 97 97 97 97 97 97 97 97 97 98 97 96 97 97 96 93 96 97 96 93 96 98 97 98
99 99 97 96 91 94 91 94 90 93 95 93 92 91 88 85 86 88 93 95 96 96 97 97 97 96 98 98 98 98 98 98 97 96 98 97 98 96 97 96 97 97 97
90 67 38 29 20 14 14 10 10 9 12 13 15 15 25 21 15 17 22 24 30 37 44 43 63 86 97 97 97 97 97 96 98 98 100 91 100 99 100 97 98 95 86
7 8 9 10 10 9 9 9 9 9 8 8 8 7 7 7 7 6 6 5 5 5 4 5 10 14 22 31 45 80 97 99 98 96 95 98 100 95 98 99 98 96 98
12 12 13 13 12 12 13 13 13 12 12 11 10 11 11 10 10 9 8 8 8 8 8 7 6 5 4 8 26 43 46 53 87 97 97 96 96 99 98 100 98 98 98
17 17 16 16 15 14 13 13 13 13 13 13 12 11 10 11 11 10 10 10 9 8 8 9 10 9 8 7 6 9 19 35 58 54 57 84 90 97 98 97 97 98 97
18 17 16 15 15 15 16 16 16 16 17 16 15 14 13 12 12 12 11 10 10 10 10 10 9 9 12 11 8 8 8 10 21 39 48 64 66 84 75 89 96 100 99
21 21 20 20 19 19 19 20 19 18 16 14 13 12 11 10 9 8 7 7 7 7 7 8 8 9 10 13 13 10 8 9 10 14 23 41 70 77 98 100 87 100 99
28 27 26 26 24 22 22 22 21 20 17 15 12 10 9 8 6 6 5 4 4 4 4 5 5 5 5 5 8 13 10 8 9 11 12 18 25 47 69 87 99 100 98
28 30 36 47 47 44 34 30 27 23 17 13 10 8 6 4 4 3 3 2 2 2 2 2 2 3 3 3 4 4 6 11 9 12 12 13 14 25 49 61 65 77 90
32 34 38 43 51 54 50 44 33 21 14 10 6 4 4 2 2 2 3 4 5 6 9 13 13 11 8 8 6 6 7 6 9 10 11 16 16 21 39 51 62 66 64
45 49 59 61 59 56 49 37 26 17 9 5 3 2 2 3 4 5 7 8 9 10 13 14 19 15 11 15 11 9 14 14 15 12 21 12 15 25 42 42 56 77 96
78 72 66 63 60 54 42 29 16 8 4 3 2 3 4 6 8 10 11 13 21 30 31 25 16 18 23 24 22 15 13 13 19 30 95 100 82 51 93 97 71 98 96
75 69 66 61 57 46 32 14 5 3 3 4 5 6 9 10 11 20 39 48 35 19 14 14 40 46 43 36 32 26 20 17 18 24 38 96 97 88 68 98 100 100 100
73 71 66 61 45 30 12 5 3 5 6 8 10 11 10 13 36 62 60 38 20 23 49 76 80 67 53 46 38 31 25 19 19 21 35 55 99 100 100 98 98 100 100
77 70 62 40 24 10 4 4 5 5 6 11 13 13 28 49 63 75 55 45 31 74 100 100 90 69 58 49 38 28 27 26 32 29 30 36 50 84 92 78 62 86 100
76 67 28 14 7 4 4 5 6 8 13 13 14 45 65 68 79 78 59 67 44 92 100 100 82 63 50 34 22 16 20 55 100 62 50 21 97 96 100 94 96 84 96
76 30 8 5 4 6 6 6 8 13 14 13 28 64 78 82 88 86 72 80 69 72 100 100 79 62 42 25 13 13 22 99 100 100 100 85 31 81 100 100 100 100 86
35 5 4 4 8 7 8 10 13 13 13 21 40 74 82 84 87 92 86 92 84 62 94 100 83 62 39 16 12 17 75 100 99 100 100 100 100 68 99 66 76 100 100
5 4 5 10 7 9 11 14 15 13 17 31 46 82 92 92 90 90 86 98 93 65 61 97 86 63 39 14 14 22 70 100 100 100 100 100 100 66 100 100 100 100 95
4 6 12 8 9 11 14 21 18 15 20 32 41 67 96 98 94 93 92 98 97 77 48 78 82 65 40 14 17 48 66 100 100 100 100 100 100 100 100 90 80 56 75
6 13 9 10 11 14 21 26 25 22 23 24 33 60 96 98 90 91 98 98 94 74 48 54 71 60 40 16 20 36 85 98 100 97 100 100 98 91 95 99 100 100 100
16 11 10 11 13 17 23 29 31 29 30 24 35 87 90 68 87 95 97 96 89 74 51 43 56 51 38 16 19 34 62 100 100 99 100 100 97 100 99 90 100 100 94
17 10 12 14 16 18 23 29 33 31 33 30 36 82 61 75 100 72 92 92 90 81 62 44 50 45 37 16 18 31 58 100 100 100 98 100 100 100 96 98 100 99 100

GFSGL_500_rhum_105.txt.gz
RH
53 46 43 42 32 34 33 45 58 59 69 67 67 81 97 90 60 71 86 82 93 86 96 97 96 96 96 97 97 96 94 98 91 89 89 98 97 96 97 97 96 95 89
48 75 100 100 69 69 69 100 100 100 89 81 95 81 88 89 86 100 95 92 99 97 99 94 96 97 96 96 96 96 96 96 97 97 95 98 93 95 97 96 97 97 89
99 97 99 100 99 100 99 100 99 99 100 99 100 98 94 99 99 96 96 97 96 96 98 97 98 97 97 98 98 96 95 97 97 97 94 95 93 98 89 96 97 97 96
98 99 97 99 99 99 99 98 99 99 99 99 100 99 99 100 100 98 96 95 92 93 94 95 96 97 98 98 97 97 97 97 97 98 97 96 96 97 94 96 97 97 96
98 98 95 62 53 68 76 53 81 34 21 21 32 15 18 14 15 24 20 16 15 14 10 14 14 17 27 35 68 87 96 97 98 97 96 97 97 94 98 100 98 97 97
36 20 13 9 8 9 10 11 11 11 11 11 10 11 11 10 9 10 9 8 8 8 8 8 8 8 7 6 6 8 14 24 40 57 81 95 97 98 97 98 98 96 98
12 12 13 14 15 16 16 16 16 16 15 15 14 15 15 15 14 14 12 12 11 11 10 10 11 11 10 10 10 9 8 7 6 11 16 54 37 75 95 97 98 99 98
19 20 21 22 22 22 21 20 19 18 18 18 19 19 19 19 18 16 15 14 14 14 13 13 13 13 12 12 12 11 11 11 11 9 7 6 33 90 98 83 97 98 97
24 25 26 27 27 27 28 27 27 27 28 27 25 23 22 22 21 19 18 16 15 14 13 13 12 11 11 11 10 10 9 10 12 13 12 9 7 17 36 82 99 72 96
29 29 29 30 30 30 30 30 30 29 31 33 36 32 27 26 26 26 25 22 19 16 12 12 11 10 8 7 6 6 6 5 6 8 11 12 11 8 13 32 30 66 97
29 30 30 31 31 30 30 30 33 38 43 43 42 43 40 36 32 30 28 26 23 19 17 15 14 12 10 8 6 5 4 4 3 4 5 9 12 12 9 9 22 28 46
45 48 51 52 52 52 53 55 57 55 54 52 48 46 45 39 35 31 29 24 17 12 9 7 5 4 4 4 3 3 2 2 2 3 3 5 9 12 11 11 15 22 49
94 86 80 76 75 72 71 72 73 68 60 54 49 47 43 39 35 28 20 13 8 5 4 3 2 2 2 3 3 4 5 5 5 4 4 5 11 12 12 12 27 24 34
76 79 81 71 64 64 69 67 65 63 62 57 50 42 35 30 25 17 7 3 2 2 2 2 3 3 4 5 8 9 11 13 13 10 7 8 13 16 19 26 28 29 66
65 69 77 79 64 65 68 67 68 66 57 47 41 34 26 14 4 2 2 2 3 3 4 4 6 8 8 13 17 19 27 30 26 19 12 13 27 20 61 92 93 100 70
45 52 73 69 70 70 70 76 71 59 42 28 18 12 4 2 2 3 4 5 5 6 12 24 33 39 38 32 29 27 26 26 24 22 22 24 25 16 56 88 89 100 100
61 80 72 74 79 80 80 73 58 14 8 5 3 3 3 3 5 6 7 8 23 43 55 61 49 35 21 29 40 52 65 58 52 41 34 27 23 17 35 100 100 100 99
78 81 87 87 89 87 72 27 10 6 4 4 5 5 6 8 8 9 17 36 57 70 70 55 46 32 77 100 99 85 71 57 46 38 30 33 56 19 22 28 85 100 92
90 92 95 91 86 57 9 4 4 4 5 5 6 8 10 9 9 16 46 65 72 80 68 65 59 69 100 95 72 64 60 52 42 34 26 91 98 44 19 19 90 98 100
100 96 92 88 39 4 6 5 6 7 7 8 9 13 11 9 14 42 74 78 76 74 71 78 67 96 100 76 52 42 38 33 27 33 50 99 100 90 95 54 84 95 100
100 97 88 24 5 8 8 9 11 11 11 13 17 16 11 11 16 54 75 85 86 78 79 83 78 100 98 67 46 28 19 14 21 38 48 100 100 98 64 100 54 69 73
100 84 23 6 10 10 13 16 15 14 17 20 20 18 14 24 53 75 79 82 85 83 84 76 80 100 87 60 38 19 13 14 89 100 100 100 100 88 100 100 81 65 100
89 20 6 11 10 12 17 21 18 19 23 24 19 19 28 60 66 68 67 72 84 90 86 62 80 94 74 51 27 13 14 18 100 100 100 100 100 98 100 100 100 100 99
26 6 11 12 12 15 25 28 24 27 28 25 20 22 54 50 70 87 80 89 93 91 73 53 80 80 62 44 21 14 20 65 80 100 94 93 99 100 100 100 100 99 97
6 8 18 13 19 23 38 40 56 42 36 36 26 31 60 59 89 77 84 94 94 79 49 53 68 65 52 39 16 16 25 79 99 100 100 100 78 85 98 100 85 99 95
8 16 19 23 26 38 45 54 65 79 53 46 37 40 55 61 70 82 97 100 89 61 45 46 55 48 43 36 15 22 48 90 100 100 98 86 100 100 98 97 88 85 72

GFSGL_500_rhum_108.txt.gz
RH
99 99 100 100 98 97 90 72 79 88 79 83 80 65 63 62 68 68 82 84 79 68 60 68 85 93 99 100 98 96 97 96 93 97 96 98 96 95 96 95 95 96 96
82 74 68 90 83 63 53 61 56 39 58 64 61 74 83 98 98 83 91 99 97 71 72 90 96 97 100 99 97 95 94 95 96 96 97 96 96 96 95 95 96 96 95
44 61 86 92 98 100 84 84 72 76 97 98 99 98 99 98 97 89 89 91 99 99 97 98 97 96 98 98 98 97 98 97 97 97 96 96 96 96 96 95 94 96 88
98 98 98 99 99 96 97 99 99 98 98 99 98 100 99 98 98 99 100 100 100 99 99 98 97 97 97 97 98 98 98 98 97 97 98 94 96 97 91 95 96 96 95
100 100 99 100 100 99 94 94 93 84 94 92 84 58 46 68 79 31 71 91 86 90 61 23 19 13 11 12 14 28 19 28 41 68 76 57 82 88 96 97 95 90 90
26 35 50 36 50 47 10 18 10 26 17 11 13 16 14 12 12 12 12 13 12 12 10 9 9 10 10 11 11 11 10 9 9 7 6 6 8 47 41 52 77 87 95
15 14 14 13 13 13 14 14 15 16 16 16 17 18 18 17 16 15 16 17 18 18 17 16 15 14 13 13 12 12 13 12 11 12 11 11 10 8 12 19 51 70 54
18 19 20 21 22 24 25 26 27 28 28 29 28 27 26 26 24 24 21 20 19 20 19 19 19 18 17 15 13 13 13 13 13 14 13 13 12 12 11 9 11 36 87
28 28 29 29 29 29 30 30 30 31 31 31 32 32 32 34 36 37 40 43 46 46 44 38 32 29 26 25 22 19 17 16 15 14 13 12 11 10 10 12 11 10 13
29 29 30 31 33 36 40 44 46 47 47 44 43 40 37 36 38 42 48 47 46 43 41 39 39 38 36 35 34 33 30 24 17 13 11 10 8 8 8 7 10 11 13
42 49 55 64 75 85 87 83 77 71 64 60 59 63 66 62 60 57 55 53 50 46 43 40 36 33 30 27 24 23 22 21 21 18 15 12 11 9 5 3 4 6 11
69 92 97 91 84 78 71 66 62 55 49 46 45 43 44 47 48 46 45 45 44 42 40 37 35 32 28 25 22 19 17 15 14 13 12 9 6 5 4 3 3 3 8
72 59 57 54 49 47 45 41 38 36 39 46 45 44 48 52 52 51 49 49 48 44 40 35 30 25 23 21 18 14 11 8 7 6 6 5 4 3 3 3 3 3 8
96 90 68 48 44 40 35 32 32 39 44 43 45 50 56 60 61 60 53 47 41 36 31 26 18 9 6 4 3 2 2 2 2 2 2 2 2 3 4 4 4 4 7
42 42 42 43 38 38 46 60 62 59 58 64 71 70 69 63 46 36 26 17 12 7 4 3 2 2 2 3 3 3 4 4 4 4 4 3 4 5 6 8 7 7 24
46 53 60 72 82 80 74 74 76 79 82 75 68 58 46 31 18 10 5 3 2 2 3 3 4 4 4 4 5 8 12 15 19 18 16 14 11 14 25 25 17 16 12
99 100 100 89 74 75 87 87 87 80 63 41 21 8 6 4 4 3 4 3 4 5 5 5 5 6 11 20 33 40 38 29 26 26 29 31 34 35 37 52 98 67 22
100 100 95 93 98 99 97 94 69 35 7 8 10 7 7 6 5 5 6 7 8 7 7 10 24 42 50 52 45 33 33 63 67 61 50 50 48 40 35 84 99 100 48
96 95 99 100 97 98 91 32 10 8 7 8 10 10 9 8 7 8 8 8 9 13 32 52 60 64 55 48 40 64 95 95 88 80 70 58 48 38 34 44 60 93 84
100 100 98 98 100 88 26 9 9 11 14 15 15 16 13 10 10 11 13 24 42 56 55 63 71 64 56 48 73 99 84 64 60 60 51 42 33 38 94 44 100 100 99
100 99 96 96 86 17 13 12 14 21 21 26 32 24 16 14 13 29 45 51 58 66 70 68 67 66 52 66 98 81 52 37 42 42 39 35 31 52 99 100 67 74 100
100 99 98 82 12 16 14 18 26 29 32 33 45 40 24 19 38 45 54 61 64 64 70 75 76 58 54 92 82 60 41 24 22 23 28 30 43 100 100 100 100 100 100
100 100 90 15 15 18 23 31 35 36 46 59 62 49 30 34 51 71 82 76 76 84 79 72 48 47 86 82 65 50 25 14 14 21 43 86 99 100 99 95 68 85 82
100 97 20 11 22 26 35 39 34 42 67 87 80 57 40 40 54 66 86 90 83 69 53 29 46 79 79 66 52 29 16 14 34 47 100 100 100 96 100 84 86 100 100
100 34 9 17 25 37 42 44 37 52 82 92 90 62 62 48 51 64 87 84 62 38 22 46 70 74 67 53 37 19 17 26 100 100 100 100 94 82 67 78 100 100 96
85 9 9 21 33 40 45 45 39 52 89 99 95 62 61 72 78 86 82 60 29 23 42 59 62 62 52 42 19 17 32 61 100 100 100 99 88 85 98 100 100 100 98

GFSGL_500_rhum_111.txt.gz
RH
88 94 98 99 100 99 84 78 78 98 100 100 96 97 83 76 71 80 73 74 64 59 60 59 62 64 60 64 61 74 85 95 96 99 99 84 94 96 97 96 96 95 96
75 82 88 86 83 81 82 81 91 97 94 81 98 92 87 84 84 80 72 86 77 80 92 90 96 100 95 88 75 82 84 96 97 95 100 96 96 100 99 96 98 97 95
44 50 48 73 89 89 96 99 100 64 70 76 73 59 76 68 63 67 94 95 98 97 98 95 99 98 97 98 98 98 98 96 99 97 96 97 97 100 97 97 97 98 97
86 93 94 93 97 100 98 94 97 99 98 98 98 73 93 98 98 98 95 96 95 90 98 93 97 98 99 96 97 98 98 97 97 97 98 97 97 98 95 98 96 94 94
31 55 83 93 87 96 96 94 91 96 98 98 95 99 98 98 99 92 92 96 96 88 68 90 98 96 96 97 97 95 86 96 77 77 94 58 58 77 79 71 35 39 74
14 12 12 12 11 11 24 25 19 14 16 15 30 51 31 34 44 46 36 13 12 13 13 13 13 14 13 13 12 14 14 13 12 9 10 13 8 8 8 8 8 6 13
20 20 20 19 19 19 19 20 21 22 22 23 24 24 22 21 20 18 18 17 18 19 20 20 20 18 18 16 16 16 16 14 15 15 15 14 12 11 11 10 9 10 9
26 26 26 25 25 25 26 27 29 30 31 31 32 32 32 32 32 33 32 32 32 31 31 33 36 40 39 34 30 25 22 21 21 20 19 19 19 18 17 16 14 13 12
29 29 30 30 31 31 32 33 34 35 36 38 39 43 50 55 53 52 50 46 43 39 36 35 34 36 39 41 42 42 43 42 39 31 24 22 22 24 22 20 17 16 14
42 41 42 46 50 56 60 65 69 73 87 99 100 91 83 80 73 65 57 52 49 46 44 54 61 62 63 60 56 54 49 48 48 46 44 42 38 34 35 34 29 21 16
72 85 80 80 92 92 94 95 94 94 95 95 92 76 58 49 44 38 34 31 30 30 33 37 40 41 44 49 51 49 47 47 47 46 44 43 42 40 38 36 33 31 28
45 51 67 90 86 72 80 89 96 96 79 58 47 39 34 31 28 28 30 29 29 29 33 34 40 46 48 48 48 48 48 47 45 42 42 42 40 36 34 32 29 27 25
37 45 51 48 48 51 60 58 58 57 54 46 38 36 45 49 48 42 39 42 47 46 48 50 51 54 56 54 52 48 46 43 41 39 38 34 31 28 25 22 19 18 14
36 40 43 44 43 44 50 56 58 58 61 65 62 58 54 58 70 72 67 62 58 55 52 48 43 42 41 40 36 32 30 29 26 24 24 24 23 19 15 12 9 5 7
46 43 44 50 66 88 94 90 88 82 74 73 72 76 76 76 60 46 34 28 20 16 19 19 17 15 14 11 7 6 4 3 4 4 4 4 4 5 4 4 3 3 3
58 66 83 97 98 95 95 100 97 93 94 91 85 80 68 44 25 16 10 8 7 6 8 6 4 4 3 3 3 4 4 4 4 4 3 3 3 3 3 3 3 3 3
94 100 100 100 95 98 100 100 100 100 100 86 53 23 13 11 12 11 8 6 6 5 5 4 5 5 5 5 6 6 7 13 13 13 13 14 12 10 12 11 8 6 6
93 86 96 100 97 96 100 100 100 99 38 15 13 14 18 19 17 14 10 8 6 6 6 7 8 11 14 16 23 28 36 42 38 33 28 25 25 24 27 32 34 31 30
100 94 94 95 98 100 100 100 84 27 12 14 22 28 32 38 31 19 10 7 9 14 18 21 27 38 45 47 50 52 47 41 36 48 67 76 74 57 51 57 44 43 67
90 82 86 95 99 97 100 78 15 14 16 27 30 40 49 48 34 20 14 22 30 43 48 42 42 46 54 59 56 57 46 56 91 90 79 76 74 74 70 58 51 52 100
76 81 94 98 93 94 54 10 16 21 29 29 42 67 70 55 34 18 26 41 61 67 63 66 72 71 68 64 60 40 85 91 70 49 47 50 51 46 55 44 46 69 99
69 83 91 91 93 27 9 17 24 32 31 37 66 80 68 46 32 36 45 58 76 74 71 65 62 57 48 32 61 87 73 52 34 27 33 41 38 50 100 95 100 94 96
71 80 85 91 33 8 15 24 34 37 39 46 78 67 60 46 35 53 71 78 73 59 44 31 23 27 57 80 73 58 41 24 16 16 23 27 32 49 72 74 98 78 70
75 81 87 67 8 9 21 32 39 40 41 70 77 80 44 44 31 38 51 44 29 20 18 36 63 75 68 55 41 24 16 16 15 27 47 30 49 100 100 95 100 100 81
74 81 86 40 7 11 26 39 43 39 45 76 78 71 40 39 24 21 21 20 26 45 58 65 60 52 45 37 19 16 22 40 38 79 86 89 95 88 78 65 96 87 94
72 80 90 30 7 14 28 47 43 37 53 82 83 67 34 32 23 23 28 34 42 47 45 43 43 44 38 19 23 33 75 98 94 100 100 100 100 88 66 51 58 76 93

GFSGL_500_rhum_114.txt.gz
RH
55 62 68 71 75 79 61 56 61 62 59 51 47 48 56 65 70 68 89 91 94 67 42 50 58 56 56 70 68 60 57 64 63 60 57 60 73 91 97 93 84 88 97
52 50 55 60 58 66 72 71 73 75 73 72 84 92 92 78 75 90 98 77 68 70 72 73 72 72 71 69 67 78 85 93 84 74 69 65 75 85 97 97 98 99 96
76 81 77 50 73 97 98 98 92 82 96 85 81 80 83 88 90 98 97 98 99 94 97 97 99 98 99 98 98 96 98 100 98 84 91 98 97 97 98 97 97 98 97
12 24 53 80 86 88 90 89 86 83 94 97 98 99 100 98 100 98 98 98 99 93 91 96 98 97 97 98 98 97 98 98 97 96 97 97 98 98 98 98 98 97 96
18 16 15 12 19 31 34 28 49 83 77 50 61 92 90 97 98 98 98 97 96 96 99 98 99 98 96 95 90 96 99 98 97 97 98 99 99 98 97 98 96 94 98
20 21 21 21 21 20 19 17 16 16 16 16 17 17 16 17 16 16 19 45 73 83 54 87 38 17 20 17 15 14 20 23 16 39 90 87 72 92 64 51 76 83 33
26 26 26 26 27 27 27 27 28 27 27 27 28 29 29 29 29 30 29 28 26 23 22 22 23 21 20 18 19 17 17 18 19 21 20 20 18 17 20 23 14 10 10
37 40 42 42 42 41 39 37 35 35 36 37 37 37 36 35 36 37 38 38 36 36 35 35 35 36 35 34 35 34 33 35 30 27 31 35 31 28 26 23 18 15 12
52 81 88 88 79 77 71 66 65 69 69 68 66 68 70 71 78 89 86 82 90 92 87 80 73 67 63 58 53 53 56 55 45 35 34 36 40 44 45 41 33 26 23
24 27 28 31 36 46 56 76 93 98 100 100 100 98 97 99 97 94 90 90 90 87 75 65 60 57 48 38 35 35 34 34 35 40 49 52 49 48 50 49 48 47 40
35 39 41 37 34 32 36 44 52 55 56 70 86 91 92 92 92 92 89 82 74 63 51 37 28 26 27 27 26 24 22 21 24 28 33 41 44 48 54 53 54 52 52
18 21 30 39 43 41 40 41 42 44 46 48 51 54 53 52 47 44 42 39 38 37 41 43 41 39 37 33 29 28 29 28 30 30 34 40 47 52 51 51 52 50 49
17 18 22 29 42 52 51 50 55 70 83 81 76 76 76 74 68 61 61 65 63 57 57 54 59 61 58 53 51 48 47 47 42 44 46 46 47 48 50 52 50 51 51
13 15 20 28 58 81 87 95 96 94 87 79 73 74 83 91 89 92 91 82 67 61 56 52 45 44 43 40 32 27 30 33 33 32 31 30 31 32 33 36 37 38 42
17 18 28 60 87 100 86 86 91 90 83 84 86 94 94 97 86 60 32 17 12 11 12 10 10 10 9 9 8 8 6 6 7 8 11 11 10 12 13 15 18 17 16
15 19 38 69 93 88 70 82 88 90 91 85 83 86 75 40 16 15 16 15 15 10 8 7 6 5 4 4 4 4 4 4 4 4 4 3 4 4 3 3 4 5 5
16 19 29 52 59 56 65 82 92 98 93 87 59 16 14 19 24 23 22 22 17 12 11 8 6 6 6 7 6 7 8 10 9 9 9 7 6 5 5 4 4 4 3
20 25 31 42 56 68 78 83 80 73 37 14 15 20 27 27 39 43 32 20 19 13 9 10 15 19 21 24 22 18 24 34 38 36 32 28 24 20 21 18 16 16 12
26 29 36 45 53 63 74 74 44 9 10 18 27 29 28 53 52 44 31 23 15 18 26 40 47 41 36 41 49 45 38 45 43 38 35 33 46 57 60 49 40 40 31
32 37 43 52 58 63 72 49 8 8 16 26 29 31 52 51 56 35 24 15 22 38 46 44 35 32 34 42 53 54 50 41 40 73 88 83 79 77 76 80 73 75 72
32 44 49 54 63 71 72 18 7 13 22 32 33 46 51 55 28 15 11 13 16 18 18 18 18 20 23 26 30 49 72 78 70 51 42 44 47 50 44 56 76 55 53
28 42 53 59 64 72 68 10 7 17 30 32 35 57 62 48 18 18 21 24 26 31 38 48 55 62 66 67 65 59 48 41 31 24 26 32 38 51 97 100 100 100 100
28 44 53 61 71 76 62 8 9 22 33 31 44 64 68 45 20 20 24 29 36 43 48 52 51 47 43 39 32 22 17 17 15 15 19 28 34 43 67 79 70 94 97
28 44 60 63 77 87 54 8 13 28 33 29 58 65 71 65 26 22 23 25 29 34 37 40 42 39 32 20 16 24 28 32 60 48 27 42 79 100 99 100 100 100 100
29 43 68 68 83 94 44 8 16 31 31 30 64 66 75 64 24 28 31 31 35 39 42 42 42 33 18 17 45 71 88 99 94 94 96 88 78 80 64 74 100 100 100
31 46 75 73 86 96 36 9 18 33 30 32 66 69 70 57 52 25 18 18 23 32 34 25 19 33 46 62 79 95 98 100 100 100 100 100 100 100 76 46 60 90 100

GFSGL_500_rhum_117.txt.gz
RH
64 65 54 49 51 54 60 61 61 62 70 69 61 51 42 38 38 37 41 50 56 67 68 70 71 80 77 80 70 71 77 71 60 63 61 59 54 54 60 84 74 69 74
12 47 70 78 60 81 79 73 81 77 76 72 67 62 56 58 77 82 82 79 71 73 76 86 88 85 82 48 48 49 60 56 54 51 62 55 56 68 69 79 76 87 100
18 15 13 15 47 82 83 91 100 100 100 86 75 70 75 80 85 83 86 89 96 93 86 95 94 82 69 88 94 78 83 85 80 77 77 93 99 93 86 87 87 91 87
20 21 21 20 18 15 27 48 49 52 47 79 99 100 95 93 99 100 100 96 92 87 96 97 99 100 100 99 100 94 99 99 98 98 99 100 99 97 97 92 95 95 86
26 26 26 26 26 26 25 23 21 19 18 18 17 19 17 17 17 28 24 27 62 95 98 99 95 98 99 99 95 100 100 94 97 100 98 99 99 97 96 97 97 99 98
31 33 36 47 50 44 38 34 33 32 31 29 27 26 26 26 26 26 26 27 28 28 28 28 44 78 93 96 97 78 29 57 93 99 63 72 94 63 83 99 100 97 97
22 24 26 29 33 47 66 78 82 75 63 52 49 49 44 40 39 38 38 38 38 38 38 37 36 35 34 34 34 33 37 55 32 22 24 20 28 21 22 20 75 96 96
29 35 36 35 33 32 32 32 33 36 51 70 86 98 93 83 80 77 69 63 60 59 63 73 87 82 71 64 65 56 46 39 35 35 32 34 30 28 23 23 21 21 37
16 17 17 18 20 22 24 27 34 36 38 43 51 54 54 64 80 89 100 100 100 100 100 100 97 98 94 89 81 80 78 77 65 57 51 43 37 34 33 33 34 27 22
18 18 18 18 18 19 18 19 20 29 40 46 47 49 52 54 58 55 53 51 65 81 89 93 91 92 96 93 86 82 84 72 67 66 65 59 53 49 47 46 48 45 36
22 24 22 20 16 17 18 18 27 50 58 56 57 58 56 56 62 63 54 51 58 64 63 54 47 48 50 52 62 74 76 74 64 45 33 28 29 32 29 25 25 27 31
40 39 39 35 29 20 12 15 30 58 67 67 67 72 72 73 66 67 65 63 62 61 64 66 68 66 60 52 45 37 32 30 30 34 38 37 33 30 26 24 22 19 17
46 45 42 35 17 13 11 18 30 56 46 39 51 70 82 79 78 78 80 85 88 89 90 87 80 76 71 69 65 64 60 55 49 43 36 31 30 28 28 26 23 19 16
52 50 43 24 14 14 16 24 33 36 42 61 66 74 81 86 86 88 89 81 63 44 34 22 20 18 17 16 17 17 21 27 33 37 41 42 44 44 43 46 44 43 34
60 52 43 19 18 22 23 34 44 51 58 66 69 73 75 66 42 23 17 18 18 16 14 14 12 10 9 8 7 6 6 5 8 10 13 16 18 21 22 23 25 28 33
65 56 44 20 19 28 35 46 50 59 64 62 33 8 8 11 16 21 26 35 31 22 18 15 12 10 9 8 7 6 5 5 5 4 4 4 4 4 4 5 8 11 11
72 61 49 22 20 32 40 48 64 68 62 29 6 7 14 20 20 26 31 29 15 10 8 7 7 7 8 11 13 13 12 12 11 13 12 10 7 6 5 5 5 4 4
79 67 59 26 19 31 44 52 61 68 48 9 6 11 20 22 35 40 41 15 16 16 12 8 8 9 10 11 11 11 13 16 23 26 24 23 23 20 18 15 13 10 7
86 75 68 39 18 26 44 55 68 71 38 7 12 23 23 36 44 50 26 15 18 22 25 28 28 25 20 14 13 15 19 25 29 29 28 28 28 30 34 32 27 23 19
94 83 75 53 22 23 41 54 70 70 25 8 19 26 26 48 52 62 26 17 20 23 28 34 39 43 47 50 53 57 61 64 66 67 65 65 67 71 74 79 76 71 50
98 90 82 67 31 22 39 55 71 67 15 11 26 24 33 44 55 58 24 19 21 23 27 31 35 38 36 32 29 27 30 33 34 34 33 43 48 57 57 58 65 67 67
100 96 89 75 43 23 34 58 76 62 13 15 28 24 44 47 49 36 22 23 28 32 34 37 40 40 40 26 15 17 18 17 16 15 23 34 43 49 69 80 84 100 100
100 99 95 82 50 26 36 60 78 56 11 18 26 25 53 56 47 55 40 22 18 21 33 39 34 33 26 20 50 56 59 53 37 23 28 33 38 63 76 74 100 87 94
100 100 100 87 52 29 39 62 79 52 11 23 26 30 55 56 53 60 75 42 16 16 18 21 26 27 35 59 80 92 84 88 90 74 67 88 88 100 100 100 100 100 100
100 100 100 90 52 30 41 63 79 46 12 26 25 38 54 59 60 72 84 47 16 15 24 34 36 56 72 93 99 100 100 100 100 100 100 100 100 72 92 99 100 100 98
100 100 100 92 57 32 42 67 79 44 13 28 25 44 58 64 67 76 80 41 19 23 42 49 72 95 100 100 100 100 100 100 100 100 100 100 83 60 53 56 100 76 59